<?xml version='1.0' encoding='UTF-8'?><gpx version="1.1" creator="JPX - https://github.com/jenetics/jpx" xmlns="http://www.topografix.com/GPX/1/1"><trk><trkseg><trkpt lat="45.5589170887121" lon="8.047974852902183"><ele>409.0</ele><time>2026-05-01T16:17:24Z</time></trkpt><trkpt lat="45.55900825780584" lon="8.047944748820369"><ele>409.0</ele><time>2026-05-01T16:17:26Z</time></trkpt><trkpt lat="45.55909709131779" lon="8.047905013120854"><ele>409.0</ele><time>2026-05-01T16:17:28Z</time></trkpt><trkpt lat="45.559173886901576" lon="8.047866457253784"><ele>409.0</ele><time>2026-05-01T16:17:30Z</time></trkpt><trkpt lat="45.55926412503001" lon="8.047848251098491"><ele>409.0</ele><time>2026-05-01T16:17:32Z</time></trkpt><trkpt lat="45.55935571921828" lon="8.047813137747877"><ele>409.0</ele><time>2026-05-01T16:17:34Z</time></trkpt><trkpt lat="45.559450029532094" lon="8.047759521286233"><ele>409.0</ele><time>2026-05-01T16:17:36Z</time></trkpt><trkpt lat="45.55955942241602" lon="8.047738626652315"><ele>409.0</ele><time>2026-05-01T16:17:38Z</time></trkpt><trkpt lat="45.55966673213834" lon="8.04768284098464"><ele>409.0</ele><time>2026-05-01T16:17:40Z</time></trkpt><trkpt lat="45.559761993457215" lon="8.047737689705004"><ele>409.0</ele><time>2026-05-01T16:17:44Z</time></trkpt><trkpt lat="45.55975887881629" lon="8.047853392476867"><ele>409.6666666666667</ele><time>2026-05-01T16:17:45Z</time></trkpt><trkpt lat="45.5597789563932" lon="8.047998941580644"><ele>410.33333333333337</ele><time>2026-05-01T16:17:47Z</time></trkpt><trkpt lat="45.55981463659273" lon="8.048147843075267"><ele>411.0</ele><time>2026-05-01T16:17:49Z</time></trkpt><trkpt lat="45.55984749900202" lon="8.048281007423315"><ele>411.66666666666663</ele><time>2026-05-01T16:17:51Z</time></trkpt><trkpt lat="45.55986125163991" lon="8.048374600077763"><ele>412.3333333333333</ele><time>2026-05-01T16:17:52Z</time></trkpt><trkpt lat="45.559865244262525" lon="8.048469703760947"><ele>413.0</ele><time>2026-05-01T16:17:53Z</time></trkpt><trkpt lat="45.55989031100043" lon="8.04863733025967"><ele>413.25</ele><time>2026-05-01T16:17:55Z</time></trkpt><trkpt lat="45.559914168312005" lon="8.048797813121464"><ele>413.5</ele><time>2026-05-01T16:17:57Z</time></trkpt><trkpt lat="45.55993807107506" lon="8.048960724168778"><ele>413.75</ele><time>2026-05-01T16:17:59Z</time></trkpt><trkpt lat="45.55997535286424" lon="8.049117493910412"><ele>414.0</ele><time>2026-05-01T16:18:01Z</time></trkpt><trkpt lat="45.56001665065612" lon="8.049261553144731"><ele>413.79999999999995</ele><time>2026-05-01T16:18:03Z</time></trkpt><trkpt lat="45.560080388812715" lon="8.049383420992765"><ele>413.59999999999997</ele><time>2026-05-01T16:18:05Z</time></trkpt><trkpt lat="45.56017148523939" lon="8.049495997629595"><ele>413.4</ele><time>2026-05-01T16:18:07Z</time></trkpt><trkpt lat="45.56021999810014" lon="8.049554985283494"><ele>413.2</ele><time>2026-05-01T16:18:08Z</time></trkpt><trkpt lat="45.56031020942897" lon="8.04966957781144"><ele>413.0</ele><time>2026-05-01T16:18:10Z</time></trkpt><trkpt lat="45.56040415671169" lon="8.04976846967608"><ele>412.99999999999994</ele><time>2026-05-01T16:18:12Z</time></trkpt><trkpt lat="45.560490635327945" lon="8.04987083563453"><ele>413.0</ele><time>2026-05-01T16:18:14Z</time></trkpt><trkpt lat="45.56058180223249" lon="8.049962640018608"><ele>413.0</ele><time>2026-05-01T16:18:16Z</time></trkpt><trkpt lat="45.56062789349421" lon="8.05002752062311"><ele>413.0</ele><time>2026-05-01T16:18:18Z</time></trkpt><trkpt lat="45.56066369395895" lon="8.05011801073639"><ele>412.99999999999994</ele><time>2026-05-01T16:18:21Z</time></trkpt><trkpt lat="45.560709302886245" lon="8.050213388195266"><ele>413.0</ele><time>2026-05-01T16:18:23Z</time></trkpt><trkpt lat="45.56077431897416" lon="8.050304160577179"><ele>413.4</ele><time>2026-05-01T16:18:25Z</time></trkpt><trkpt lat="45.560815977245156" lon="8.050424264205262"><ele>413.79999999999995</ele><time>2026-05-01T16:18:27Z</time></trkpt><trkpt lat="45.56087432819765" lon="8.05055321418662"><ele>414.2</ele><time>2026-05-01T16:18:29Z</time></trkpt><trkpt lat="45.560916773678656" lon="8.050705623484925"><ele>414.6</ele><time>2026-05-01T16:18:31Z</time></trkpt><trkpt lat="45.56094643341396" lon="8.050876078560956"><ele>415.0</ele><time>2026-05-01T16:18:33Z</time></trkpt><trkpt lat="45.56097718488308" lon="8.051035531728186"><ele>415.2</ele><time>2026-05-01T16:18:35Z</time></trkpt><trkpt lat="45.56099899317645" lon="8.05112978998179"><ele>415.4</ele><time>2026-05-01T16:18:36Z</time></trkpt><trkpt lat="45.5610302582302" lon="8.051275199557908"><ele>415.6</ele><time>2026-05-01T16:18:38Z</time></trkpt><trkpt lat="45.56105841467601" lon="8.051425566018029"><ele>415.8</ele><time>2026-05-01T16:18:40Z</time></trkpt><trkpt lat="45.56108701561594" lon="8.051583654213001"><ele>416.0</ele><time>2026-05-01T16:18:42Z</time></trkpt><trkpt lat="45.56106825499743" lon="8.051719798098672"><ele>416.0</ele><time>2026-05-01T16:18:44Z</time></trkpt><trkpt lat="45.56115406949503" lon="8.05183910934034"><ele>416.0</ele><time>2026-05-01T16:18:45Z</time></trkpt><trkpt lat="45.56120393564904" lon="8.051978047084127"><ele>416.0</ele><time>2026-05-01T16:18:47Z</time></trkpt><trkpt lat="45.56124371841267" lon="8.052137880215556"><ele>416.0</ele><time>2026-05-01T16:18:49Z</time></trkpt><trkpt lat="45.561297367794275" lon="8.052290711304368"><ele>417.25</ele><time>2026-05-01T16:18:51Z</time></trkpt><trkpt lat="45.56134167511939" lon="8.052451794290233"><ele>418.5</ele><time>2026-05-01T16:18:53Z</time></trkpt><trkpt lat="45.561384787736024" lon="8.052607150603619"><ele>419.75</ele><time>2026-05-01T16:18:55Z</time></trkpt><trkpt lat="45.56141832977888" lon="8.052759266300807"><ele>421.0</ele><time>2026-05-01T16:18:57Z</time></trkpt><trkpt lat="45.56145820120202" lon="8.052920987946223"><ele>421.0</ele><time>2026-05-01T16:18:59Z</time></trkpt><trkpt lat="45.561496886077485" lon="8.053084295156891"><ele>421.0</ele><time>2026-05-01T16:19:01Z</time></trkpt><trkpt lat="45.56155545411754" lon="8.053244836327393"><ele>421.0</ele><time>2026-05-01T16:19:03Z</time></trkpt><trkpt lat="45.56156003914676" lon="8.053427820373287"><ele>421.0</ele><time>2026-05-01T16:19:05Z</time></trkpt><trkpt lat="45.561601409090926" lon="8.053597376742712"><ele>420.4</ele><time>2026-05-01T16:19:07Z</time></trkpt><trkpt lat="45.56164151324441" lon="8.053761745225664"><ele>419.8</ele><time>2026-05-01T16:19:09Z</time></trkpt><trkpt lat="45.561680602787185" lon="8.05392195528929"><ele>419.2</ele><time>2026-05-01T16:19:11Z</time></trkpt><trkpt lat="45.56170147274672" lon="8.054007491655279"><ele>418.59999999999997</ele><time>2026-05-01T16:19:12Z</time></trkpt><trkpt lat="45.56174375657937" lon="8.054169898940591"><ele>418.0</ele><time>2026-05-01T16:19:14Z</time></trkpt><trkpt lat="45.5617648199872" lon="8.054256975128013"><ele>417.4</ele><time>2026-05-01T16:19:15Z</time></trkpt><trkpt lat="45.56181751952354" lon="8.054417210531474"><ele>416.79999999999995</ele><time>2026-05-01T16:19:17Z</time></trkpt><trkpt lat="45.5618404922763" lon="8.05458140953137"><ele>416.2</ele><time>2026-05-01T16:19:19Z</time></trkpt><trkpt lat="45.56183978308045" lon="8.054750239800162"><ele>415.6</ele><time>2026-05-01T16:19:21Z</time></trkpt><trkpt lat="45.56185773576712" lon="8.054843593581422"><ele>415.0</ele><time>2026-05-01T16:19:22Z</time></trkpt><trkpt lat="45.561894262523275" lon="8.054923933397818"><ele>414.4</ele><time>2026-05-01T16:19:23Z</time></trkpt><trkpt lat="45.56194073221634" lon="8.054997640985713"><ele>413.8</ele><time>2026-05-01T16:19:24Z</time></trkpt><trkpt lat="45.5619850457976" lon="8.055170587061033"><ele>413.20000000000005</ele><time>2026-05-01T16:19:26Z</time></trkpt><trkpt lat="45.56201545014495" lon="8.055337408791575"><ele>412.6</ele><time>2026-05-01T16:19:28Z</time></trkpt><trkpt lat="45.56205455958298" lon="8.055495583489323"><ele>412.0</ele><time>2026-05-01T16:19:30Z</time></trkpt><trkpt lat="45.56207566404109" lon="8.055583147740743"><ele>413.0</ele><time>2026-05-01T16:19:31Z</time></trkpt><trkpt lat="45.56210012679108" lon="8.055754395647995"><ele>414.0</ele><time>2026-05-01T16:19:33Z</time></trkpt><trkpt lat="45.562126245771005" lon="8.055915353457346"><ele>415.0</ele><time>2026-05-01T16:19:35Z</time></trkpt><trkpt lat="45.56216259759363" lon="8.056069643982845"><ele>416.0</ele><time>2026-05-01T16:19:37Z</time></trkpt><trkpt lat="45.56220737824184" lon="8.056229348306204"><ele>416.0</ele><time>2026-05-01T16:19:39Z</time></trkpt><trkpt lat="45.56222643118136" lon="8.056317053794043"><ele>416.0</ele><time>2026-05-01T16:19:40Z</time></trkpt><trkpt lat="45.56226365775063" lon="8.056476020713934"><ele>416.0</ele><time>2026-05-01T16:19:42Z</time></trkpt><trkpt lat="45.5623052000775" lon="8.056632838745784"><ele>416.0</ele><time>2026-05-01T16:19:44Z</time></trkpt><trkpt lat="45.5623438072922" lon="8.056784057127931"><ele>416.0</ele><time>2026-05-01T16:19:46Z</time></trkpt><trkpt lat="45.56236756036257" lon="8.056869182330573"><ele>416.0</ele><time>2026-05-01T16:19:47Z</time></trkpt><trkpt lat="45.56240389486708" lon="8.057036969348674"><ele>416.0</ele><time>2026-05-01T16:19:49Z</time></trkpt><trkpt lat="45.562444093089006" lon="8.057194767664567"><ele>416.0</ele><time>2026-05-01T16:19:51Z</time></trkpt><trkpt lat="45.56248320812181" lon="8.057355336084841"><ele>416.0</ele><time>2026-05-01T16:19:53Z</time></trkpt><trkpt lat="45.562504486475895" lon="8.057523649600897"><ele>416.0</ele><time>2026-05-01T16:19:55Z</time></trkpt><trkpt lat="45.56253097981397" lon="8.057606425553363"><ele>416.0</ele><time>2026-05-01T16:19:56Z</time></trkpt><trkpt lat="45.56255177084732" lon="8.05769176058966"><ele>416.0</ele><time>2026-05-01T16:19:57Z</time></trkpt><trkpt lat="45.562589001524564" lon="8.057854675108262"><ele>416.0</ele><time>2026-05-01T16:19:59Z</time></trkpt><trkpt lat="45.56264084621798" lon="8.058011466862855"><ele>416.0</ele><time>2026-05-01T16:20:01Z</time></trkpt><trkpt lat="45.56268442935616" lon="8.058128334320669"><ele>416.0</ele><time>2026-05-01T16:20:03Z</time></trkpt><trkpt lat="45.5627447319886" lon="8.058249987207892"><ele>416.0</ele><time>2026-05-01T16:20:05Z</time></trkpt><trkpt lat="45.56283310951916" lon="8.05833189960135"><ele>416.0</ele><time>2026-05-01T16:20:07Z</time></trkpt><trkpt lat="45.56286984062585" lon="8.05850439317414"><ele>416.0</ele><time>2026-05-01T16:20:09Z</time></trkpt><trkpt lat="45.56291709740993" lon="8.058653433612928"><ele>416.0</ele><time>2026-05-01T16:20:11Z</time></trkpt><trkpt lat="45.56295488274224" lon="8.058805291099869"><ele>416.0</ele><time>2026-05-01T16:20:13Z</time></trkpt><trkpt lat="45.56302033493181" lon="8.05894319616937"><ele>416.0</ele><time>2026-05-01T16:20:15Z</time></trkpt><trkpt lat="45.56305158767151" lon="8.05908361497732"><ele>416.0</ele><time>2026-05-01T16:20:18Z</time></trkpt><trkpt lat="45.56306716433602" lon="8.05917915844435"><ele>416.0</ele><time>2026-05-01T16:20:21Z</time></trkpt><trkpt lat="45.56307014254598" lon="8.05928186150682"><ele>416.0</ele><time>2026-05-01T16:20:24Z</time></trkpt><trkpt lat="45.56309338545945" lon="8.059371483265597"><ele>416.0</ele><time>2026-05-01T16:20:25Z</time></trkpt><trkpt lat="45.563183890692635" lon="8.059468216857892"><ele>416.0</ele><time>2026-05-01T16:20:27Z</time></trkpt><trkpt lat="45.56321022187229" lon="8.059608977973577"><ele>416.0</ele><time>2026-05-01T16:20:29Z</time></trkpt><trkpt lat="45.56324859189519" lon="8.059716341728112"><ele>416.0</ele><time>2026-05-01T16:20:31Z</time></trkpt><trkpt lat="45.5632731573918" lon="8.059853156843939"><ele>416.0</ele><time>2026-05-01T16:20:33Z</time></trkpt><trkpt lat="45.563343789588615" lon="8.059977462537484"><ele>416.0</ele><time>2026-05-01T16:20:35Z</time></trkpt><trkpt lat="45.563477547285565" lon="8.059948756909561"><ele>416.0</ele><time>2026-05-01T16:20:37Z</time></trkpt><trkpt lat="45.56352629448054" lon="8.05988727606032"><ele>416.0</ele><time>2026-05-01T16:20:38Z</time></trkpt><trkpt lat="45.563588423898075" lon="8.059860174676306"><ele>416.0</ele><time>2026-05-01T16:20:39Z</time></trkpt><trkpt lat="45.5636699789941" lon="8.059843006679452"><ele>417.0</ele><time>2026-05-01T16:20:41Z</time></trkpt><trkpt lat="45.56376034218041" lon="8.059787652651247"><ele>418.0</ele><time>2026-05-01T16:20:43Z</time></trkpt><trkpt lat="45.5638648014555" lon="8.059734434845922"><ele>419.0</ele><time>2026-05-01T16:20:45Z</time></trkpt><trkpt lat="45.56393534396822" lon="8.059675299409053"><ele>420.0</ele><time>2026-05-01T16:20:47Z</time></trkpt><trkpt lat="45.56402675241135" lon="8.059607096048001"><ele>421.0</ele><time>2026-05-01T16:20:49Z</time></trkpt><trkpt lat="45.56413676147703" lon="8.059560146092908"><ele>421.0</ele><time>2026-05-01T16:20:51Z</time></trkpt><trkpt lat="45.56424823107123" lon="8.059500698430192"><ele>421.0</ele><time>2026-05-01T16:20:53Z</time></trkpt><trkpt lat="45.564362208923725" lon="8.05943807143526"><ele>421.0</ele><time>2026-05-01T16:20:55Z</time></trkpt><trkpt lat="45.56446920544811" lon="8.05937264075761"><ele>421.0</ele><time>2026-05-01T16:20:57Z</time></trkpt><trkpt lat="45.564579977685995" lon="8.059309839797233"><ele>421.1666666666667</ele><time>2026-05-01T16:20:59Z</time></trkpt><trkpt lat="45.56468375427406" lon="8.059243070569146"><ele>421.33333333333337</ele><time>2026-05-01T16:21:01Z</time></trkpt><trkpt lat="45.56479671218081" lon="8.059220201698722"><ele>421.5</ele><time>2026-05-01T16:21:03Z</time></trkpt><trkpt lat="45.56486205116816" lon="8.059256817634898"><ele>421.66666666666663</ele><time>2026-05-01T16:21:04Z</time></trkpt><trkpt lat="45.56493490667451" lon="8.059277687203208"><ele>421.8333333333333</ele><time>2026-05-01T16:21:05Z</time></trkpt><trkpt lat="45.56499597679975" lon="8.059252730960399"><ele>422.0</ele><time>2026-05-01T16:21:06Z</time></trkpt><trkpt lat="45.56501051370514" lon="8.059126448793199"><ele>422.40000000000003</ele><time>2026-05-01T16:21:07Z</time></trkpt><trkpt lat="45.56503758058558" lon="8.059007882255276"><ele>422.8</ele><time>2026-05-01T16:21:09Z</time></trkpt><trkpt lat="45.56514433791969" lon="8.05896470257019"><ele>423.2</ele><time>2026-05-01T16:21:10Z</time></trkpt><trkpt lat="45.56521888299343" lon="8.058939232786097"><ele>423.6</ele><time>2026-05-01T16:21:11Z</time></trkpt><trkpt lat="45.56532639430651" lon="8.05887240708057"><ele>424.0</ele><time>2026-05-01T16:21:13Z</time></trkpt><trkpt lat="45.565433381683576" lon="8.05880211409601"><ele>424.5</ele><time>2026-05-01T16:21:15Z</time></trkpt><trkpt lat="45.56554454581572" lon="8.058735996656862"><ele>425.0</ele><time>2026-05-01T16:21:17Z</time></trkpt><trkpt lat="45.565651188157744" lon="8.058651688375535"><ele>425.5</ele><time>2026-05-01T16:21:19Z</time></trkpt><trkpt lat="45.565751052643996" lon="8.058572100882662"><ele>426.0</ele><time>2026-05-01T16:21:21Z</time></trkpt><trkpt lat="45.565866704903954" lon="8.058521430829616"><ele>426.0</ele><time>2026-05-01T16:21:23Z</time></trkpt><trkpt lat="45.56597691100135" lon="8.058455492719757"><ele>426.0</ele><time>2026-05-01T16:21:25Z</time></trkpt><trkpt lat="45.5660846991543" lon="8.058364574932975"><ele>426.0</ele><time>2026-05-01T16:21:27Z</time></trkpt><trkpt lat="45.56618986969049" lon="8.058305501622371"><ele>426.0</ele><time>2026-05-01T16:21:29Z</time></trkpt><trkpt lat="45.56629289707113" lon="8.058219136404283"><ele>426.3333333333333</ele><time>2026-05-01T16:21:31Z</time></trkpt><trkpt lat="45.56635104532491" lon="8.058184591047041"><ele>426.66666666666663</ele><time>2026-05-01T16:21:32Z</time></trkpt><trkpt lat="45.56641083238295" lon="8.058142132784674"><ele>427.0</ele><time>2026-05-01T16:21:33Z</time></trkpt><trkpt lat="45.56652152730947" lon="8.058078274909018"><ele>427.3333333333333</ele><time>2026-05-01T16:21:35Z</time></trkpt><trkpt lat="45.56658068110464" lon="8.05801315124054"><ele>427.66666666666663</ele><time>2026-05-01T16:21:36Z</time></trkpt><trkpt lat="45.56668348981759" lon="8.05795294056649"><ele>428.0</ele><time>2026-05-01T16:21:38Z</time></trkpt><trkpt lat="45.56674474124086" lon="8.057927695122997"><ele>428.0</ele><time>2026-05-01T16:21:39Z</time></trkpt><trkpt lat="45.56680292606817" lon="8.057891118896771"><ele>427.99999999999994</ele><time>2026-05-01T16:21:40Z</time></trkpt><trkpt lat="45.5669123100545" lon="8.057818514855013"><ele>427.99999999999994</ele><time>2026-05-01T16:21:42Z</time></trkpt><trkpt lat="45.56703020292243" lon="8.057766062072204"><ele>428.0</ele><time>2026-05-01T16:21:44Z</time></trkpt><trkpt lat="45.56713846781844" lon="8.05769082803629"><ele>428.0</ele><time>2026-05-01T16:21:46Z</time></trkpt><trkpt lat="45.567227219549316" lon="8.057628805525601"><ele>428.25</ele><time>2026-05-01T16:21:48Z</time></trkpt><trkpt lat="45.56731551104729" lon="8.057592552146026"><ele>428.5</ele><time>2026-05-01T16:21:50Z</time></trkpt><trkpt lat="45.56749887308776" lon="8.05749939997309"><ele>428.75</ele><time>2026-05-01T16:22:10Z</time></trkpt><trkpt lat="45.567571794056946" lon="8.057454243613376"><ele>429.0</ele><time>2026-05-01T16:22:15Z</time></trkpt><trkpt lat="45.56765002235254" lon="8.057408631468158"><ele>429.25</ele><time>2026-05-01T16:22:17Z</time></trkpt><trkpt lat="45.56774951597887" lon="8.057363117122446"><ele>429.5</ele><time>2026-05-01T16:22:19Z</time></trkpt><trkpt lat="45.567842711185335" lon="8.057287053515704"><ele>429.75</ele><time>2026-05-01T16:22:21Z</time></trkpt><trkpt lat="45.56794891760415" lon="8.057203781287386"><ele>430.0</ele><time>2026-05-01T16:22:23Z</time></trkpt><trkpt lat="45.56806125941034" lon="8.05714403618533"><ele>430.25</ele><time>2026-05-01T16:22:25Z</time></trkpt><trkpt lat="45.56818057828231" lon="8.057091578203162"><ele>430.5</ele><time>2026-05-01T16:22:27Z</time></trkpt><trkpt lat="45.568284126745226" lon="8.057027942540115"><ele>430.75</ele><time>2026-05-01T16:22:29Z</time></trkpt><trkpt lat="45.56839102859" lon="8.056970369203075"><ele>431.0</ele><time>2026-05-01T16:22:31Z</time></trkpt><trkpt lat="45.56850106452374" lon="8.056899495217756"><ele>431.0</ele><time>2026-05-01T16:22:33Z</time></trkpt><trkpt lat="45.568606838693974" lon="8.05683934345156"><ele>431.0</ele><time>2026-05-01T16:22:35Z</time></trkpt><trkpt lat="45.56871648304777" lon="8.05678490819153"><ele>431.0</ele><time>2026-05-01T16:22:37Z</time></trkpt><trkpt lat="45.56883211626685" lon="8.056740025091317"><ele>431.0</ele><time>2026-05-01T16:22:39Z</time></trkpt><trkpt lat="45.56893811430021" lon="8.05666953672771"><ele>431.8</ele><time>2026-05-01T16:22:41Z</time></trkpt><trkpt lat="45.5690387919353" lon="8.056605506039492"><ele>432.6</ele><time>2026-05-01T16:22:43Z</time></trkpt><trkpt lat="45.56914449156989" lon="8.056535066071975"><ele>433.4</ele><time>2026-05-01T16:22:45Z</time></trkpt><trkpt lat="45.569245831003414" lon="8.056449752520363"><ele>434.2</ele><time>2026-05-01T16:22:47Z</time></trkpt><trkpt lat="45.56930506286218" lon="8.056415617460281"><ele>435.0</ele><time>2026-05-01T16:22:48Z</time></trkpt><trkpt lat="45.56941998063845" lon="8.05634861113065"><ele>435.5</ele><time>2026-05-01T16:22:50Z</time></trkpt><trkpt lat="45.5695377259962" lon="8.056277206544351"><ele>436.0</ele><time>2026-05-01T16:22:52Z</time></trkpt><trkpt lat="45.569654725226165" lon="8.056218635715332"><ele>436.5</ele><time>2026-05-01T16:22:54Z</time></trkpt><trkpt lat="45.569764154662046" lon="8.056143302860296"><ele>437.0</ele><time>2026-05-01T16:22:56Z</time></trkpt><trkpt lat="45.56987576785135" lon="8.05606978685484"><ele>437.0</ele><time>2026-05-01T16:22:58Z</time></trkpt><trkpt lat="45.56998469888107" lon="8.055994531430667"><ele>437.00000000000006</ele><time>2026-05-01T16:23:00Z</time></trkpt><trkpt lat="45.57009705562082" lon="8.0559188753401"><ele>437.00000000000006</ele><time>2026-05-01T16:23:02Z</time></trkpt><trkpt lat="45.570208463869875" lon="8.055845629873017"><ele>437.0</ele><time>2026-05-01T16:23:04Z</time></trkpt><trkpt lat="45.570272313635904" lon="8.05579642596628"><ele>437.0</ele><time>2026-05-01T16:23:05Z</time></trkpt><trkpt lat="45.57045397649066" lon="8.055741393621023"><ele>435.20000000000005</ele><time>2026-05-01T16:23:08Z</time></trkpt><trkpt lat="45.570559983144356" lon="8.055677553653593"><ele>433.40000000000003</ele><time>2026-05-01T16:23:10Z</time></trkpt><trkpt lat="45.57064373211359" lon="8.055567145579426"><ele>431.59999999999997</ele><time>2026-05-01T16:23:12Z</time></trkpt><trkpt lat="45.57071546792455" lon="8.055431779166287"><ele>429.79999999999995</ele><time>2026-05-01T16:23:14Z</time></trkpt><trkpt lat="45.570769335467624" lon="8.055361747037722"><ele>428.0</ele><time>2026-05-01T16:23:15Z</time></trkpt><trkpt lat="45.570794199663446" lon="8.055251908322315"><ele>428.0</ele><time>2026-05-01T16:23:16Z</time></trkpt><trkpt lat="45.57079312693022" lon="8.055075211489575"><ele>428.0</ele><time>2026-05-01T16:23:18Z</time></trkpt><trkpt lat="45.57083863661194" lon="8.054909275242546"><ele>428.0</ele><time>2026-05-01T16:23:20Z</time></trkpt><trkpt lat="45.57087336959568" lon="8.054742823059538"><ele>428.0</ele><time>2026-05-01T16:23:22Z</time></trkpt><trkpt lat="45.5709018211169" lon="8.054573301151477"><ele>429.5</ele><time>2026-05-01T16:23:24Z</time></trkpt><trkpt lat="45.570942431618214" lon="8.05441181307875"><ele>431.0</ele><time>2026-05-01T16:23:26Z</time></trkpt><trkpt lat="45.570960739456474" lon="8.054242663359036"><ele>432.5</ele><time>2026-05-01T16:23:28Z</time></trkpt><trkpt lat="45.57097038217169" lon="8.054087834982573"><ele>434.0</ele><time>2026-05-01T16:23:30Z</time></trkpt><trkpt lat="45.57099828593299" lon="8.053944953687932"><ele>435.25</ele><time>2026-05-01T16:23:32Z</time></trkpt><trkpt lat="45.57100041141249" lon="8.053814502682496"><ele>436.5</ele><time>2026-05-01T16:23:34Z</time></trkpt><trkpt lat="45.57100492721405" lon="8.05369903650977"><ele>437.75</ele><time>2026-05-01T16:23:37Z</time></trkpt><trkpt lat="45.57108186920399" lon="8.053372864073392"><ele>439.0</ele><time>2026-05-01T16:23:57Z</time></trkpt><trkpt lat="45.571132390809595" lon="8.053316289330558"><ele>439.0</ele><time>2026-05-01T16:23:58Z</time></trkpt><trkpt lat="45.571178022268164" lon="8.053249777938092"><ele>439.0</ele><time>2026-05-01T16:23:59Z</time></trkpt><trkpt lat="45.571230821095845" lon="8.053180840555509"><ele>439.0</ele><time>2026-05-01T16:24:00Z</time></trkpt><trkpt lat="45.5712842291541" lon="8.053108902356609"><ele>439.0</ele><time>2026-05-01T16:24:01Z</time></trkpt><trkpt lat="45.57134597562885" lon="8.053024074428363"><ele>439.0</ele><time>2026-05-01T16:24:02Z</time></trkpt><trkpt lat="45.57139452838725" lon="8.05295616599254"><ele>439.0</ele><time>2026-05-01T16:24:03Z</time></trkpt><trkpt lat="45.571451342147164" lon="8.05288357816318"><ele>439.0</ele><time>2026-05-01T16:24:04Z</time></trkpt><trkpt lat="45.571503571220475" lon="8.052781604432926"><ele>439.00000000000006</ele><time>2026-05-01T16:24:05Z</time></trkpt><trkpt lat="45.571560329823704" lon="8.052697854183739"><ele>439.0</ele><time>2026-05-01T16:24:06Z</time></trkpt><trkpt lat="45.571615335834714" lon="8.052616315134596"><ele>439.0</ele><time>2026-05-01T16:24:07Z</time></trkpt><trkpt lat="45.57166900867428" lon="8.052547846167037"><ele>439.0</ele><time>2026-05-01T16:24:08Z</time></trkpt><trkpt lat="45.57172973925349" lon="8.052463402699537"><ele>439.00000000000006</ele><time>2026-05-01T16:24:09Z</time></trkpt><trkpt lat="45.57179910223982" lon="8.052398675985115"><ele>439.0</ele><time>2026-05-01T16:24:10Z</time></trkpt><trkpt lat="45.571867368434006" lon="8.052343342565731"><ele>439.00000000000006</ele><time>2026-05-01T16:24:11Z</time></trkpt><trkpt lat="45.57191960516188" lon="8.052285125880152"><ele>439.0</ele><time>2026-05-01T16:24:12Z</time></trkpt><trkpt lat="45.572010801876324" lon="8.052235322260959"><ele>439.0</ele><time>2026-05-01T16:24:14Z</time></trkpt><trkpt lat="45.57209760448009" lon="8.052156762337852"><ele>439.0</ele><time>2026-05-01T16:24:16Z</time></trkpt><trkpt lat="45.572177871249465" lon="8.052081975039513"><ele>439.00000000000006</ele><time>2026-05-01T16:24:18Z</time></trkpt><trkpt lat="45.572253249129304" lon="8.0520408830207"><ele>439.0</ele><time>2026-05-01T16:24:20Z</time></trkpt><trkpt lat="45.57234144941659" lon="8.051992069339613"><ele>438.83333333333337</ele><time>2026-05-01T16:24:22Z</time></trkpt><trkpt lat="45.572478243445424" lon="8.051954757866026"><ele>438.6666666666667</ele><time>2026-05-01T16:24:39Z</time></trkpt><trkpt lat="45.57253990179701" lon="8.051934627966832"><ele>438.5</ele><time>2026-05-01T16:24:46Z</time></trkpt><trkpt lat="45.57260409977917" lon="8.051919092945374"><ele>438.33333333333337</ele><time>2026-05-01T16:24:52Z</time></trkpt><trkpt lat="45.57267155699495" lon="8.051892796488282"><ele>438.1666666666667</ele><time>2026-05-01T16:24:58Z</time></trkpt><trkpt lat="45.57274427381766" lon="8.05187101558995"><ele>438.0</ele><time>2026-05-01T16:25:04Z</time></trkpt><trkpt lat="45.572810173662916" lon="8.051852964081304"><ele>437.14285714285717</ele><time>2026-05-01T16:25:10Z</time></trkpt><trkpt lat="45.57287826196567" lon="8.051810840194687"><ele>436.2857142857143</ele><time>2026-05-01T16:25:16Z</time></trkpt><trkpt lat="45.57294254720892" lon="8.051759945904653"><ele>435.42857142857144</ele><time>2026-05-01T16:25:23Z</time></trkpt><trkpt lat="45.57298692716835" lon="8.051693531232527"><ele>434.57142857142856</ele><time>2026-05-01T16:25:32Z</time></trkpt><trkpt lat="45.573032997763605" lon="8.051627590674489"><ele>433.71428571428567</ele><time>2026-05-01T16:25:40Z</time></trkpt><trkpt lat="45.57307792687406" lon="8.051563876471493"><ele>432.85714285714283</ele><time>2026-05-01T16:25:45Z</time></trkpt><trkpt lat="45.57313760366561" lon="8.051517268215568"><ele>432.0</ele><time>2026-05-01T16:25:49Z</time></trkpt><trkpt lat="45.573174803312504" lon="8.051436151176087"><ele>434.0</ele><time>2026-05-01T16:25:55Z</time></trkpt><trkpt lat="45.57322345125738" lon="8.051377554969081"><ele>436.0</ele><time>2026-05-01T16:26:00Z</time></trkpt><trkpt lat="45.57327025450871" lon="8.051313821906865"><ele>438.0</ele><time>2026-05-01T16:26:05Z</time></trkpt><trkpt lat="45.5733307558191" lon="8.051273605397471"><ele>440.0</ele><time>2026-05-01T16:26:10Z</time></trkpt><trkpt lat="45.5734006985" lon="8.051274028453703"><ele>442.0</ele><time>2026-05-01T16:26:27Z</time></trkpt><trkpt lat="45.57346376246563" lon="8.051261843591506"><ele>444.0</ele><time>2026-05-01T16:26:31Z</time></trkpt><trkpt lat="45.57353138906492" lon="8.05129477624652"><ele>446.0</ele><time>2026-05-01T16:26:34Z</time></trkpt><trkpt lat="45.57365083027087" lon="8.051331583182376"><ele>448.66666666666663</ele><time>2026-05-01T16:26:46Z</time></trkpt><trkpt lat="45.57371652609751" lon="8.051345601743568"><ele>451.3333333333333</ele><time>2026-05-01T16:26:52Z</time></trkpt><trkpt lat="45.57378015309467" lon="8.051335569268378"><ele>454.0</ele><time>2026-05-01T16:26:56Z</time></trkpt><trkpt lat="45.57385087271855" lon="8.051286146012814"><ele>456.66666666666663</ele><time>2026-05-01T16:27:01Z</time></trkpt><trkpt lat="45.57392776329574" lon="8.051228365495412"><ele>459.3333333333333</ele><time>2026-05-01T16:27:04Z</time></trkpt><trkpt lat="45.57402233006899" lon="8.051184808135847"><ele>462.0</ele><time>2026-05-01T16:27:06Z</time></trkpt><trkpt lat="45.57412433041717" lon="8.051218676784766"><ele>462.0</ele><time>2026-05-01T16:27:08Z</time></trkpt><trkpt lat="45.57421434280229" lon="8.051285342361568"><ele>462.00000000000006</ele><time>2026-05-01T16:27:10Z</time></trkpt><trkpt lat="45.57430557146723" lon="8.05135787607521"><ele>462.00000000000006</ele><time>2026-05-01T16:27:12Z</time></trkpt><trkpt lat="45.574412542484" lon="8.051373172539204"><ele>462.0</ele><time>2026-05-01T16:27:14Z</time></trkpt><trkpt lat="45.57450525435661" lon="8.051332969597627"><ele>462.0</ele><time>2026-05-01T16:27:16Z</time></trkpt><trkpt lat="45.57459988850807" lon="8.051283399673043"><ele>461.0</ele><time>2026-05-01T16:27:18Z</time></trkpt><trkpt lat="45.574692687936164" lon="8.051191036980857"><ele>460.0</ele><time>2026-05-01T16:27:20Z</time></trkpt><trkpt lat="45.57481554286577" lon="8.051207532027897"><ele>459.0</ele><time>2026-05-01T16:27:22Z</time></trkpt><trkpt lat="45.57494615340146" lon="8.051218043424642"><ele>458.0</ele><time>2026-05-01T16:27:24Z</time></trkpt><trkpt lat="45.5750622697838" lon="8.051228054182861"><ele>458.0</ele><time>2026-05-01T16:27:26Z</time></trkpt><trkpt lat="45.57517555384678" lon="8.05122497626865"><ele>457.99999999999994</ele><time>2026-05-01T16:27:28Z</time></trkpt><trkpt lat="45.57528493819464" lon="8.051195710044224"><ele>457.99999999999994</ele><time>2026-05-01T16:27:30Z</time></trkpt><trkpt lat="45.57536790409793" lon="8.05106869543293"><ele>458.0</ele><time>2026-05-01T16:27:32Z</time></trkpt><trkpt lat="45.575410003523366" lon="8.050998542459151"><ele>458.0</ele><time>2026-05-01T16:27:33Z</time></trkpt><trkpt lat="45.57552262806638" lon="8.050996056322788"><ele>457.0</ele><time>2026-05-01T16:27:35Z</time></trkpt><trkpt lat="45.575610439927644" lon="8.051049329023394"><ele>456.0</ele><time>2026-05-01T16:27:37Z</time></trkpt><trkpt lat="45.57573366342666" lon="8.05109052623551"><ele>455.0</ele><time>2026-05-01T16:27:39Z</time></trkpt><trkpt lat="45.57586018152029" lon="8.051124059630004"><ele>454.0</ele><time>2026-05-01T16:27:41Z</time></trkpt><trkpt lat="45.5759678858378" lon="8.051148532272958"><ele>454.0</ele><time>2026-05-01T16:27:43Z</time></trkpt><trkpt lat="45.57607439453824" lon="8.0511536489022"><ele>454.0</ele><time>2026-05-01T16:27:45Z</time></trkpt><trkpt lat="45.57618570303364" lon="8.051131237759185"><ele>454.0</ele><time>2026-05-01T16:27:47Z</time></trkpt><trkpt lat="45.57627665569988" lon="8.051100617459054"><ele>454.0</ele><time>2026-05-01T16:27:49Z</time></trkpt><trkpt lat="45.576337055471605" lon="8.051074847610062"><ele>454.0</ele><time>2026-05-01T16:27:50Z</time></trkpt><trkpt lat="45.57644012923383" lon="8.051029677512426"><ele>452.4</ele><time>2026-05-01T16:27:52Z</time></trkpt><trkpt lat="45.57652863193026" lon="8.050929204753526"><ele>450.79999999999995</ele><time>2026-05-01T16:27:54Z</time></trkpt><trkpt lat="45.57662800216179" lon="8.05086053822718"><ele>449.20000000000005</ele><time>2026-05-01T16:27:56Z</time></trkpt><trkpt lat="45.5767352859018" lon="8.050813178801485"><ele>447.6</ele><time>2026-05-01T16:27:58Z</time></trkpt><trkpt lat="45.576833452136775" lon="8.050746560527054"><ele>446.0</ele><time>2026-05-01T16:28:00Z</time></trkpt><trkpt lat="45.576943166950635" lon="8.050699368576362"><ele>449.0</ele><time>2026-05-01T16:28:02Z</time></trkpt><trkpt lat="45.57704882984709" lon="8.050642497284988"><ele>452.0</ele><time>2026-05-01T16:28:04Z</time></trkpt><trkpt lat="45.577143976776256" lon="8.050552084148947"><ele>455.0</ele><time>2026-05-01T16:28:06Z</time></trkpt><trkpt lat="45.57722294531746" lon="8.050459167174418"><ele>458.0</ele><time>2026-05-01T16:28:08Z</time></trkpt><trkpt lat="45.57731379312056" lon="8.05038187909157"><ele>461.0</ele><time>2026-05-01T16:28:10Z</time></trkpt><trkpt lat="45.577399944147594" lon="8.050300778725985"><ele>461.0</ele><time>2026-05-01T16:28:12Z</time></trkpt><trkpt lat="45.57748751853717" lon="8.050241002980417"><ele>461.0</ele><time>2026-05-01T16:28:14Z</time></trkpt><trkpt lat="45.577570199388134" lon="8.050186816136804"><ele>461.0</ele><time>2026-05-01T16:28:16Z</time></trkpt><trkpt lat="45.57763506781351" lon="8.050194877606248"><ele>461.0</ele><time>2026-05-01T16:28:18Z</time></trkpt><trkpt lat="45.57771979480671" lon="8.050144282622421"><ele>461.0</ele><time>2026-05-01T16:28:20Z</time></trkpt><trkpt lat="45.57784006735476" lon="8.050110237868497"><ele>463.4</ele><time>2026-05-01T16:28:22Z</time></trkpt><trkpt lat="45.57793446064902" lon="8.050071582304811"><ele>465.8</ele><time>2026-05-01T16:28:24Z</time></trkpt><trkpt lat="45.57804864982677" lon="8.050051503416672"><ele>468.19999999999993</ele><time>2026-05-01T16:28:26Z</time></trkpt><trkpt lat="45.57815667743941" lon="8.050006233074773"><ele>470.59999999999997</ele><time>2026-05-01T16:28:28Z</time></trkpt><trkpt lat="45.578267283602116" lon="8.049952463011806"><ele>473.0</ele><time>2026-05-01T16:28:30Z</time></trkpt><trkpt lat="45.57837578535712" lon="8.049879537732144"><ele>473.0</ele><time>2026-05-01T16:28:32Z</time></trkpt><trkpt lat="45.578470671685665" lon="8.049786227395163"><ele>473.0</ele><time>2026-05-01T16:28:34Z</time></trkpt><trkpt lat="45.57855667902623" lon="8.049694035379511"><ele>473.0</ele><time>2026-05-01T16:28:36Z</time></trkpt><trkpt lat="45.578659697288316" lon="8.049614076117525"><ele>473.0</ele><time>2026-05-01T16:28:38Z</time></trkpt><trkpt lat="45.5787533774514" lon="8.049531184433691"><ele>470.4</ele><time>2026-05-01T16:28:40Z</time></trkpt><trkpt lat="45.57884688612171" lon="8.049421804464632"><ele>467.79999999999995</ele><time>2026-05-01T16:28:42Z</time></trkpt><trkpt lat="45.57891805799545" lon="8.049298326224136"><ele>465.2</ele><time>2026-05-01T16:28:44Z</time></trkpt><trkpt lat="45.578968318494155" lon="8.049168019205865"><ele>462.6</ele><time>2026-05-01T16:28:46Z</time></trkpt><trkpt lat="45.57902294285455" lon="8.049041767624031"><ele>460.0</ele><time>2026-05-01T16:28:48Z</time></trkpt><trkpt lat="45.57908509814637" lon="8.048904438968155"><ele>460.0</ele><time>2026-05-01T16:28:50Z</time></trkpt><trkpt lat="45.57912290530074" lon="8.048748019821362"><ele>460.0</ele><time>2026-05-01T16:28:52Z</time></trkpt><trkpt lat="45.579169506933155" lon="8.048612499877388"><ele>460.0</ele><time>2026-05-01T16:28:54Z</time></trkpt><trkpt lat="45.579237268524565" lon="8.048474433527765"><ele>460.0</ele><time>2026-05-01T16:28:56Z</time></trkpt><trkpt lat="45.579317830520054" lon="8.048344965465176"><ele>464.4</ele><time>2026-05-01T16:28:58Z</time></trkpt><trkpt lat="45.57934511782869" lon="8.048184432266677"><ele>468.8</ele><time>2026-05-01T16:29:00Z</time></trkpt><trkpt lat="45.579389181581604" lon="8.048050641189931"><ele>473.20000000000005</ele><time>2026-05-01T16:29:02Z</time></trkpt><trkpt lat="45.57942054591395" lon="8.047939961810524"><ele>477.6</ele><time>2026-05-01T16:29:04Z</time></trkpt><trkpt lat="45.579449963389244" lon="8.047822534946848"><ele>482.0</ele><time>2026-05-01T16:29:06Z</time></trkpt><trkpt lat="45.57950609770676" lon="8.047688814346344"><ele>477.20000000000005</ele><time>2026-05-01T16:29:08Z</time></trkpt><trkpt lat="45.57953013961905" lon="8.047536862170128"><ele>472.40000000000003</ele><time>2026-05-01T16:29:10Z</time></trkpt><trkpt lat="45.57957334708955" lon="8.047405545393008"><ele>467.59999999999997</ele><time>2026-05-01T16:29:12Z</time></trkpt><trkpt lat="45.57960783737069" lon="8.04726441133629"><ele>462.79999999999995</ele><time>2026-05-01T16:29:14Z</time></trkpt><trkpt lat="45.579650532610295" lon="8.047139554321236"><ele>458.0</ele><time>2026-05-01T16:29:15Z</time></trkpt><trkpt lat="45.57968596273896" lon="8.047036509212054"><ele>458.0</ele><time>2026-05-01T16:29:17Z</time></trkpt><trkpt lat="45.57972208381233" lon="8.04692214451132"><ele>457.99999999999994</ele><time>2026-05-01T16:29:19Z</time></trkpt><trkpt lat="45.57978964293797" lon="8.046794783782987"><ele>457.99999999999994</ele><time>2026-05-01T16:29:21Z</time></trkpt><trkpt lat="45.57984325411881" lon="8.046661227931153"><ele>458.0</ele><time>2026-05-01T16:29:23Z</time></trkpt><trkpt lat="45.57991806207779" lon="8.04655496589269"><ele>458.0</ele><time>2026-05-01T16:29:25Z</time></trkpt><trkpt lat="45.579975908639305" lon="8.046519065906946"><ele>457.0</ele><time>2026-05-01T16:29:26Z</time></trkpt><trkpt lat="45.58005936810387" lon="8.046426698511326"><ele>455.99999999999994</ele><time>2026-05-01T16:29:28Z</time></trkpt><trkpt lat="45.58014813086969" lon="8.046341462994242"><ele>454.99999999999994</ele><time>2026-05-01T16:29:30Z</time></trkpt><trkpt lat="45.58024875157701" lon="8.046250901276844"><ele>454.0</ele><time>2026-05-01T16:29:32Z</time></trkpt><trkpt lat="45.58033434550257" lon="8.046155501136502"><ele>453.0</ele><time>2026-05-01T16:29:34Z</time></trkpt><trkpt lat="45.58044041758324" lon="8.04608802271914"><ele>453.0</ele><time>2026-05-01T16:29:36Z</time></trkpt><trkpt lat="45.58048759416383" lon="8.046027123097538"><ele>452.99999999999994</ele><time>2026-05-01T16:29:37Z</time></trkpt><trkpt lat="45.58054666642645" lon="8.045880289163193"><ele>452.99999999999994</ele><time>2026-05-01T16:29:39Z</time></trkpt><trkpt lat="45.58058358235994" lon="8.045769662025496"><ele>453.0</ele><time>2026-05-01T16:29:41Z</time></trkpt><trkpt lat="45.580649156473356" lon="8.045689078663253"><ele>453.0</ele><time>2026-05-01T16:29:44Z</time></trkpt><trkpt lat="45.580749890509814" lon="8.045650379014752"><ele>459.25</ele><time>2026-05-01T16:29:46Z</time></trkpt><trkpt lat="45.58085896703662" lon="8.04559969174794"><ele>465.5</ele><time>2026-05-01T16:29:48Z</time></trkpt><trkpt lat="45.58097042719044" lon="8.04555609384435"><ele>471.75</ele><time>2026-05-01T16:29:50Z</time></trkpt><trkpt lat="45.581073074158226" lon="8.04549030533197"><ele>478.0</ele><time>2026-05-01T16:29:52Z</time></trkpt><trkpt lat="45.5811718140109" lon="8.045406266583395"><ele>473.79999999999995</ele><time>2026-05-01T16:29:54Z</time></trkpt><trkpt lat="45.58122879655753" lon="8.04534697394946"><ele>469.59999999999997</ele><time>2026-05-01T16:29:55Z</time></trkpt><trkpt lat="45.58131295455419" lon="8.045257873789254"><ele>465.40000000000003</ele><time>2026-05-01T16:29:57Z</time></trkpt><trkpt lat="45.5814115257364" lon="8.04516057849937"><ele>461.20000000000005</ele><time>2026-05-01T16:29:59Z</time></trkpt><trkpt lat="45.58146340504927" lon="8.045107812173558"><ele>457.0</ele><time>2026-05-01T16:30:00Z</time></trkpt><trkpt lat="45.58156487849956" lon="8.045031398796585"><ele>457.0</ele><time>2026-05-01T16:30:02Z</time></trkpt><trkpt lat="45.58162772996601" lon="8.044989134893983"><ele>457.00000000000006</ele><time>2026-05-01T16:30:03Z</time></trkpt><trkpt lat="45.58169018253406" lon="8.044961084474652"><ele>457.00000000000006</ele><time>2026-05-01T16:30:04Z</time></trkpt><trkpt lat="45.58179552200325" lon="8.04495323265818"><ele>457.0</ele><time>2026-05-01T16:30:06Z</time></trkpt><trkpt lat="45.58191186035076" lon="8.04499137989994"><ele>457.0</ele><time>2026-05-01T16:30:08Z</time></trkpt><trkpt lat="45.5820327980485" lon="8.04493760332253"><ele>457.6</ele><time>2026-05-01T16:30:10Z</time></trkpt><trkpt lat="45.58209391562958" lon="8.044899093062766"><ele>458.20000000000005</ele><time>2026-05-01T16:30:11Z</time></trkpt><trkpt lat="45.58219412994985" lon="8.04481214882363"><ele>458.8</ele><time>2026-05-01T16:30:13Z</time></trkpt><trkpt lat="45.58230548334984" lon="8.044773340377853"><ele>459.4</ele><time>2026-05-01T16:30:15Z</time></trkpt><trkpt lat="45.58240656385483" lon="8.04472692173064"><ele>460.0</ele><time>2026-05-01T16:30:17Z</time></trkpt><trkpt lat="45.582462711179716" lon="8.044632298146954"><ele>460.00000000000006</ele><time>2026-05-01T16:30:19Z</time></trkpt><trkpt lat="45.582469009362946" lon="8.04454188170099"><ele>460.0</ele><time>2026-05-01T16:30:20Z</time></trkpt><trkpt lat="45.58252939972688" lon="8.044449115784039"><ele>460.0</ele><time>2026-05-01T16:30:22Z</time></trkpt><trkpt lat="45.582601961579755" lon="8.044386250534476"><ele>460.0</ele><time>2026-05-01T16:30:24Z</time></trkpt><trkpt lat="45.58263793905531" lon="8.044281080724344"><ele>460.00000000000006</ele><time>2026-05-01T16:30:26Z</time></trkpt><trkpt lat="45.58269311628547" lon="8.044207146302048"><ele>460.0</ele><time>2026-05-01T16:30:28Z</time></trkpt><trkpt lat="45.58273029415966" lon="8.044079318256923"><ele>461.42857142857133</ele><time>2026-05-01T16:30:31Z</time></trkpt><trkpt lat="45.58272887394091" lon="8.043966779648269"><ele>462.85714285714283</ele><time>2026-05-01T16:30:34Z</time></trkpt><trkpt lat="45.58276590542997" lon="8.043880015080225"><ele>464.2857142857142</ele><time>2026-05-01T16:30:37Z</time></trkpt><trkpt lat="45.582833751803875" lon="8.04383949589722"><ele>465.71428571428567</ele><time>2026-05-01T16:30:40Z</time></trkpt><trkpt lat="45.58284106609331" lon="8.043735876437957"><ele>467.1428571428571</ele><time>2026-05-01T16:30:44Z</time></trkpt><trkpt lat="45.58285589331603" lon="8.043639142693396"><ele>468.57142857142856</ele><time>2026-05-01T16:30:48Z</time></trkpt><trkpt lat="45.58284852553254" lon="8.043539001149956"><ele>470.0</ele><time>2026-05-01T16:30:55Z</time></trkpt><trkpt lat="45.58289119272618" lon="8.043455328910072"><ele>469.99999999999994</ele><time>2026-05-01T16:31:09Z</time></trkpt><trkpt lat="45.58295040830632" lon="8.04338436513674"><ele>470.0</ele><time>2026-05-01T16:31:12Z</time></trkpt><trkpt lat="45.58299490477477" lon="8.043307024917866"><ele>470.0</ele><time>2026-05-01T16:31:15Z</time></trkpt><trkpt lat="45.5830497021416" lon="8.04321636096483"><ele>470.0</ele><time>2026-05-01T16:31:17Z</time></trkpt><trkpt lat="45.583111262452945" lon="8.043158894871915"><ele>469.99999999999994</ele><time>2026-05-01T16:31:20Z</time></trkpt><trkpt lat="45.58310878072611" lon="8.043059961732972"><ele>470.0</ele><time>2026-05-01T16:31:23Z</time></trkpt><trkpt lat="45.58316864290218" lon="8.04298443529413"><ele>470.3333333333333</ele><time>2026-05-01T16:31:27Z</time></trkpt><trkpt lat="45.58320480149963" lon="8.042881420540892"><ele>470.66666666666663</ele><time>2026-05-01T16:31:30Z</time></trkpt><trkpt lat="45.583220506752184" lon="8.042775601351185"><ele>471.0</ele><time>2026-05-01T16:31:33Z</time></trkpt><trkpt lat="45.58326646608367" lon="8.042653475571695"><ele>471.33333333333337</ele><time>2026-05-01T16:31:37Z</time></trkpt><trkpt lat="45.58329391798949" lon="8.042572442953094"><ele>471.6666666666667</ele><time>2026-05-01T16:31:39Z</time></trkpt><trkpt lat="45.58333897463063" lon="8.042478553979546"><ele>472.0</ele><time>2026-05-01T16:31:42Z</time></trkpt><trkpt lat="45.58334395658718" lon="8.04231374132434"><ele>472.83333333333337</ele><time>2026-05-01T16:31:45Z</time></trkpt><trkpt lat="45.58335523684877" lon="8.042199779434872"><ele>473.6666666666667</ele><time>2026-05-01T16:31:47Z</time></trkpt><trkpt lat="45.58336456421988" lon="8.042085567738516"><ele>474.5</ele><time>2026-05-01T16:31:51Z</time></trkpt><trkpt lat="45.58340668843468" lon="8.042002703709107"><ele>475.33333333333337</ele><time>2026-05-01T16:31:53Z</time></trkpt><trkpt lat="45.58342487782427" lon="8.041881852695905"><ele>476.1666666666667</ele><time>2026-05-01T16:31:56Z</time></trkpt><trkpt lat="45.5834470901934" lon="8.041783441404464"><ele>477.0</ele><time>2026-05-01T16:31:59Z</time></trkpt><trkpt lat="45.58343401654344" lon="8.041683757173011"><ele>478.85714285714283</ele><time>2026-05-01T16:32:03Z</time></trkpt><trkpt lat="45.583476301435766" lon="8.041616155817687"><ele>480.71428571428567</ele><time>2026-05-01T16:32:05Z</time></trkpt><trkpt lat="45.5835010513573" lon="8.04152036393487"><ele>482.57142857142856</ele><time>2026-05-01T16:32:07Z</time></trkpt><trkpt lat="45.58352758605173" lon="8.041430672903594"><ele>484.42857142857144</ele><time>2026-05-01T16:32:10Z</time></trkpt><trkpt lat="45.58355423838983" lon="8.041332384554028"><ele>486.2857142857143</ele><time>2026-05-01T16:32:13Z</time></trkpt><trkpt lat="45.58356837699023" lon="8.041240160232473"><ele>488.1428571428571</ele><time>2026-05-01T16:32:16Z</time></trkpt><trkpt lat="45.5836003416638" lon="8.041100435034036"><ele>490.0</ele><time>2026-05-01T16:32:18Z</time></trkpt><trkpt lat="45.58361190220037" lon="8.040985109411528"><ele>490.0</ele><time>2026-05-01T16:32:22Z</time></trkpt><trkpt lat="45.583646624551704" lon="8.04090306910783"><ele>490.0</ele><time>2026-05-01T16:32:26Z</time></trkpt><trkpt lat="45.58366347312245" lon="8.040812961989273"><ele>490.0</ele><time>2026-05-01T16:32:34Z</time></trkpt><trkpt lat="45.58370025942884" lon="8.04073425227558"><ele>490.0</ele><time>2026-05-01T16:32:38Z</time></trkpt><trkpt lat="45.58377129754991" lon="8.040680906042326"><ele>490.0</ele><time>2026-05-01T16:32:41Z</time></trkpt><trkpt lat="45.58382376433472" lon="8.040604641375403"><ele>490.0</ele><time>2026-05-01T16:32:44Z</time></trkpt><trkpt lat="45.58387086204221" lon="8.040510574507305"><ele>490.0</ele><time>2026-05-01T16:32:47Z</time></trkpt><trkpt lat="45.58392745775733" lon="8.040452728298828"><ele>488.00000000000006</ele><time>2026-05-01T16:32:50Z</time></trkpt><trkpt lat="45.58404705908507" lon="8.040417251406277"><ele>486.0</ele><time>2026-05-01T16:32:54Z</time></trkpt><trkpt lat="45.5841105334047" lon="8.040354426529365"><ele>484.0</ele><time>2026-05-01T16:32:57Z</time></trkpt><trkpt lat="45.58418932988781" lon="8.04030404906407"><ele>482.0</ele><time>2026-05-01T16:32:59Z</time></trkpt><trkpt lat="45.58424275083444" lon="8.040255620436048"><ele>480.00000000000006</ele><time>2026-05-01T16:33:01Z</time></trkpt><trkpt lat="45.584309197907466" lon="8.04021088493057"><ele>478.0</ele><time>2026-05-01T16:33:04Z</time></trkpt><trkpt lat="45.58438677931273" lon="8.040149010466264"><ele>478.00000000000006</ele><time>2026-05-01T16:33:09Z</time></trkpt><trkpt lat="45.58445963041222" lon="8.04003486849297"><ele>478.0</ele><time>2026-05-01T16:33:12Z</time></trkpt><trkpt lat="45.58454017166076" lon="8.040020191098105"><ele>478.0</ele><time>2026-05-01T16:33:14Z</time></trkpt><trkpt lat="45.58461368557769" lon="8.040028440834098"><ele>478.0</ele><time>2026-05-01T16:33:16Z</time></trkpt><trkpt lat="45.584704978169334" lon="8.039972070357882"><ele>478.00000000000006</ele><time>2026-05-01T16:33:21Z</time></trkpt><trkpt lat="45.5847599293135" lon="8.039919448975743"><ele>478.0</ele><time>2026-05-01T16:33:23Z</time></trkpt><trkpt lat="45.584803742352804" lon="8.039838377753025"><ele>479.00000000000006</ele><time>2026-05-01T16:33:25Z</time></trkpt><trkpt lat="45.58479816080397" lon="8.039739153592445"><ele>480.0</ele><time>2026-05-01T16:33:27Z</time></trkpt><trkpt lat="45.58483205818614" lon="8.039661995913571"><ele>481.00000000000006</ele><time>2026-05-01T16:33:30Z</time></trkpt><trkpt lat="45.58482901068069" lon="8.039556920677958"><ele>482.00000000000006</ele><time>2026-05-01T16:33:36Z</time></trkpt><trkpt lat="45.584840434770676" lon="8.039462841837855"><ele>483.0</ele><time>2026-05-01T16:33:40Z</time></trkpt><trkpt lat="45.58486939274077" lon="8.039371047295827"><ele>484.00000000000006</ele><time>2026-05-01T16:33:42Z</time></trkpt><trkpt lat="45.584885088120146" lon="8.039251570757793"><ele>485.00000000000006</ele><time>2026-05-01T16:33:45Z</time></trkpt><trkpt lat="45.58492022616966" lon="8.039155063253803"><ele>487.16666666666663</ele><time>2026-05-01T16:33:47Z</time></trkpt><trkpt lat="45.58494854848508" lon="8.039056725761947"><ele>489.3333333333333</ele><time>2026-05-01T16:33:49Z</time></trkpt><trkpt lat="45.584953959784016" lon="8.038946953628587"><ele>491.5</ele><time>2026-05-01T16:33:59Z</time></trkpt><trkpt lat="45.58499176538662" lon="8.038847808503743"><ele>493.66666666666663</ele><time>2026-05-01T16:34:02Z</time></trkpt><trkpt lat="45.58500447225518" lon="8.038749452408195"><ele>495.8333333333333</ele><time>2026-05-01T16:34:05Z</time></trkpt><trkpt lat="45.58504339448605" lon="8.038665068945427"><ele>498.0</ele><time>2026-05-01T16:34:55Z</time></trkpt><trkpt lat="45.58510611436923" lon="8.038524632754728"><ele>498.0</ele><time>2026-05-01T16:35:01Z</time></trkpt><trkpt lat="45.585103129305104" lon="8.038429883925822"><ele>497.99999999999994</ele><time>2026-05-01T16:35:09Z</time></trkpt><trkpt lat="45.585163424778116" lon="8.038368557396605"><ele>498.0</ele><time>2026-05-01T16:35:18Z</time></trkpt><trkpt lat="45.5852263289813" lon="8.038346075644043"><ele>498.0</ele><time>2026-05-01T16:35:32Z</time></trkpt><trkpt lat="45.585271234255764" lon="8.038251966842335"><ele>497.99999999999994</ele><time>2026-05-01T16:35:35Z</time></trkpt><trkpt lat="45.585348041514216" lon="8.038174421255087"><ele>498.0</ele><time>2026-05-01T16:35:43Z</time></trkpt><trkpt lat="45.585405573998905" lon="8.038213446663336"><ele>498.0</ele><time>2026-05-01T16:35:50Z</time></trkpt><trkpt lat="45.58541913044624" lon="8.038110916502102"><ele>497.79999999999995</ele><time>2026-05-01T16:35:55Z</time></trkpt><trkpt lat="45.58546949380971" lon="8.038052289728846"><ele>497.59999999999997</ele><time>2026-05-01T16:36:08Z</time></trkpt><trkpt lat="45.58548315542026" lon="8.03796068450167"><ele>497.40000000000003</ele><time>2026-05-01T16:36:11Z</time></trkpt><trkpt lat="45.58554320785859" lon="8.037915280353682"><ele>497.20000000000005</ele><time>2026-05-01T16:36:13Z</time></trkpt><trkpt lat="45.58559055302013" lon="8.037848086463375"><ele>497.0</ele><time>2026-05-01T16:36:17Z</time></trkpt><trkpt lat="45.58580537920799" lon="8.037817287325337"><ele>497.0</ele><time>2026-05-01T16:36:24Z</time></trkpt><trkpt lat="45.58589907160882" lon="8.037798236862304"><ele>497.0</ele><time>2026-05-01T16:36:37Z</time></trkpt><trkpt lat="45.586063820710606" lon="8.037788251771602"><ele>497.0</ele><time>2026-05-01T16:36:57Z</time></trkpt><trkpt lat="45.58624480895585" lon="8.037817799306781"><ele>497.0</ele><time>2026-05-01T16:37:06Z</time></trkpt><trkpt lat="45.58632051215617" lon="8.037873101390241"><ele>496.8333333333333</ele><time>2026-05-01T16:37:08Z</time></trkpt><trkpt lat="45.58639444780717" lon="8.037903530445243"><ele>496.66666666666663</ele><time>2026-05-01T16:37:11Z</time></trkpt><trkpt lat="45.586482449177886" lon="8.037862257843216"><ele>496.5</ele><time>2026-05-01T16:37:14Z</time></trkpt><trkpt lat="45.58654774334123" lon="8.037821478765803"><ele>496.33333333333337</ele><time>2026-05-01T16:37:16Z</time></trkpt><trkpt lat="45.58662125002031" lon="8.037850250820496"><ele>496.1666666666667</ele><time>2026-05-01T16:37:20Z</time></trkpt><trkpt lat="45.5866847575035" lon="8.037898595253209"><ele>496.0</ele><time>2026-05-01T16:37:23Z</time></trkpt><trkpt lat="45.58678379765217" lon="8.037906810899024"><ele>496.00000000000006</ele><time>2026-05-01T16:37:26Z</time></trkpt><trkpt lat="45.58686002200594" lon="8.037866366618127"><ele>496.0</ele><time>2026-05-01T16:37:29Z</time></trkpt><trkpt lat="45.58691958160137" lon="8.037797766198752"><ele>496.0</ele><time>2026-05-01T16:37:32Z</time></trkpt><trkpt lat="45.58698795445525" lon="8.037788961156522"><ele>496.0</ele><time>2026-05-01T16:37:34Z</time></trkpt><trkpt lat="45.58706678444603" lon="8.037736659976373"><ele>496.00000000000006</ele><time>2026-05-01T16:37:36Z</time></trkpt><trkpt lat="45.5871371659422" lon="8.037663069183123"><ele>496.0</ele><time>2026-05-01T16:37:38Z</time></trkpt><trkpt lat="45.5871848878918" lon="8.037546316151152"><ele>496.33333333333337</ele><time>2026-05-01T16:37:41Z</time></trkpt><trkpt lat="45.58722056255586" lon="8.037461273530008"><ele>496.6666666666667</ele><time>2026-05-01T16:37:43Z</time></trkpt><trkpt lat="45.587270749350154" lon="8.03737764255892"><ele>497.0</ele><time>2026-05-01T16:37:46Z</time></trkpt><trkpt lat="45.587293863952446" lon="8.03727068918795"><ele>497.33333333333337</ele><time>2026-05-01T16:37:49Z</time></trkpt><trkpt lat="45.58731399444453" lon="8.037170457381729"><ele>497.6666666666667</ele><time>2026-05-01T16:37:53Z</time></trkpt><trkpt lat="45.58732493357839" lon="8.037046306371963"><ele>498.0</ele><time>2026-05-01T16:38:00Z</time></trkpt><trkpt lat="45.58735194950858" lon="8.036940614309078"><ele>498.0</ele><time>2026-05-01T16:38:03Z</time></trkpt><trkpt lat="45.58740687675648" lon="8.036852405492073"><ele>497.99999999999994</ele><time>2026-05-01T16:38:07Z</time></trkpt><trkpt lat="45.58744496920111" lon="8.036750199977662"><ele>497.99999999999994</ele><time>2026-05-01T16:38:13Z</time></trkpt><trkpt lat="45.58745806921566" lon="8.036642437762683"><ele>498.0</ele><time>2026-05-01T16:38:23Z</time></trkpt><trkpt lat="45.58752961657597" lon="8.036553161879054"><ele>498.0</ele><time>2026-05-01T16:38:26Z</time></trkpt><trkpt lat="45.58764122946109" lon="8.036473635945244"><ele>499.0</ele><time>2026-05-01T16:38:54Z</time></trkpt><trkpt lat="45.587733143165856" lon="8.036431553123304"><ele>500.0</ele><time>2026-05-01T16:39:02Z</time></trkpt><trkpt lat="45.58778611350424" lon="8.036339443600001"><ele>501.0</ele><time>2026-05-01T16:39:05Z</time></trkpt><trkpt lat="45.58783916050642" lon="8.036268937439226"><ele>502.0</ele><time>2026-05-01T16:39:08Z</time></trkpt><trkpt lat="45.58788712282549" lon="8.036207817514043"><ele>503.0</ele><time>2026-05-01T16:39:13Z</time></trkpt><trkpt lat="45.58791350114794" lon="8.036094224259584"><ele>504.0</ele><time>2026-05-01T16:39:28Z</time></trkpt><trkpt lat="45.58797259310909" lon="8.036021346459087"><ele>504.0</ele><time>2026-05-01T16:39:32Z</time></trkpt><trkpt lat="45.58802935216933" lon="8.035971735315051"><ele>504.0</ele><time>2026-05-01T16:39:36Z</time></trkpt><trkpt lat="45.58809440723365" lon="8.035911098363789"><ele>504.0</ele><time>2026-05-01T16:39:40Z</time></trkpt><trkpt lat="45.58814625544435" lon="8.035833761763037"><ele>504.0</ele><time>2026-05-01T16:39:43Z</time></trkpt><trkpt lat="45.58821049987175" lon="8.035720962048737"><ele>504.0</ele><time>2026-05-01T16:39:47Z</time></trkpt><trkpt lat="45.58826971069993" lon="8.035681542876736"><ele>504.0</ele><time>2026-05-01T16:39:50Z</time></trkpt><trkpt lat="45.58831607878829" lon="8.035611772503948"><ele>505.7142857142857</ele><time>2026-05-01T16:40:15Z</time></trkpt><trkpt lat="45.58838286066359" lon="8.035583738739001"><ele>507.42857142857144</ele><time>2026-05-01T16:40:18Z</time></trkpt><trkpt lat="45.58845580599187" lon="8.035548514382642"><ele>509.1428571428571</ele><time>2026-05-01T16:40:21Z</time></trkpt><trkpt lat="45.588509150756956" lon="8.035496414882553"><ele>510.85714285714283</ele><time>2026-05-01T16:40:36Z</time></trkpt><trkpt lat="45.58858775719161" lon="8.035484038059064"><ele>512.5714285714286</ele><time>2026-05-01T16:40:51Z</time></trkpt><trkpt lat="45.588660772638754" lon="8.035421977418741"><ele>514.2857142857142</ele><time>2026-05-01T16:40:54Z</time></trkpt><trkpt lat="45.58871938146209" lon="8.035386928798214"><ele>516.0</ele><time>2026-05-01T16:40:57Z</time></trkpt><trkpt lat="45.5887986581787" lon="8.035364132235753"><ele>516.0</ele><time>2026-05-01T16:41:01Z</time></trkpt><trkpt lat="45.58889779926125" lon="8.035347000920375"><ele>516.0</ele><time>2026-05-01T16:41:04Z</time></trkpt><trkpt lat="45.58898484459869" lon="8.035307070762613"><ele>516.0</ele><time>2026-05-01T16:41:07Z</time></trkpt><trkpt lat="45.589029114410934" lon="8.035235530166364"><ele>516.0</ele><time>2026-05-01T16:41:09Z</time></trkpt><trkpt lat="45.58911110586556" lon="8.035160467056865"><ele>516.0</ele><time>2026-05-01T16:41:12Z</time></trkpt><trkpt lat="45.58915689605232" lon="8.035084692728054"><ele>516.0</ele><time>2026-05-01T16:41:14Z</time></trkpt><trkpt lat="45.589204544305645" lon="8.034970326682574"><ele>518.6666666666666</ele><time>2026-05-01T16:41:16Z</time></trkpt><trkpt lat="45.58923501971685" lon="8.034862812088656"><ele>521.3333333333334</ele><time>2026-05-01T16:41:18Z</time></trkpt><trkpt lat="45.58920260405334" lon="8.034738397666095"><ele>524.0</ele><time>2026-05-01T16:41:20Z</time></trkpt><trkpt lat="45.58926133807534" lon="8.034656085453978"><ele>526.6666666666667</ele><time>2026-05-01T16:41:22Z</time></trkpt><trkpt lat="45.58928112560179" lon="8.0345677106597"><ele>529.3333333333334</ele><time>2026-05-01T16:41:31Z</time></trkpt><trkpt lat="45.589239105062425" lon="8.034493950332505"><ele>532.0</ele><time>2026-05-01T16:41:41Z</time></trkpt><trkpt lat="45.58923780729133" lon="8.034395057074182"><ele>532.0</ele><time>2026-05-01T16:41:48Z</time></trkpt><trkpt lat="45.58928074976439" lon="8.0342849714475"><ele>532.0</ele><time>2026-05-01T16:41:53Z</time></trkpt><trkpt lat="45.589325407258734" lon="8.034194952426637"><ele>532.0</ele><time>2026-05-01T16:41:58Z</time></trkpt><trkpt lat="45.589385556602394" lon="8.03408308310041"><ele>532.0</ele><time>2026-05-01T16:42:02Z</time></trkpt><trkpt lat="45.5894175423569" lon="8.033965290692926"><ele>532.0</ele><time>2026-05-01T16:42:05Z</time></trkpt><trkpt lat="45.589473602142" lon="8.033850718603238"><ele>531.0</ele><time>2026-05-01T16:42:08Z</time></trkpt><trkpt lat="45.58951072350174" lon="8.033773481683772"><ele>530.0</ele><time>2026-05-01T16:42:10Z</time></trkpt><trkpt lat="45.58953560469889" lon="8.033662512732258"><ele>529.0</ele><time>2026-05-01T16:42:14Z</time></trkpt><trkpt lat="45.5895638483092" lon="8.033545663705459"><ele>528.0</ele><time>2026-05-01T16:42:24Z</time></trkpt><trkpt lat="45.58957657408325" lon="8.033448393243086"><ele>527.0</ele><time>2026-05-01T16:42:36Z</time></trkpt><trkpt lat="45.58954509500555" lon="8.033360260501913"><ele>526.0</ele><time>2026-05-01T16:42:41Z</time></trkpt><trkpt lat="45.589550529883184" lon="8.033267277303642"><ele>525.0</ele><time>2026-05-01T16:42:49Z</time></trkpt><trkpt lat="45.589598102106756" lon="8.033173291749016"><ele>525.0</ele><time>2026-05-01T16:43:00Z</time></trkpt><trkpt lat="45.589598128579134" lon="8.03307355704442"><ele>525.0</ele><time>2026-05-01T16:43:14Z</time></trkpt><trkpt lat="45.5896123859923" lon="8.032984271370552"><ele>525.0</ele><time>2026-05-01T16:43:21Z</time></trkpt><trkpt lat="45.589615374560495" lon="8.032871360913196"><ele>525.0</ele><time>2026-05-01T16:43:25Z</time></trkpt><trkpt lat="45.589636198212524" lon="8.032765143573885"><ele>525.0</ele><time>2026-05-01T16:43:30Z</time></trkpt><trkpt lat="45.58972081976869" lon="8.032712383060172"><ele>525.0</ele><time>2026-05-01T16:43:33Z</time></trkpt><trkpt lat="45.58976463375834" lon="8.032638059231546"><ele>525.0</ele><time>2026-05-01T16:43:41Z</time></trkpt><trkpt lat="45.58981028682847" lon="8.032571526182624"><ele>525.0</ele><time>2026-05-01T16:43:59Z</time></trkpt><trkpt lat="45.58984414255867" lon="8.032450367776173"><ele>525.0</ele><time>2026-05-01T16:44:23Z</time></trkpt><trkpt lat="45.58988923031589" lon="8.032362512328282"><ele>525.0</ele><time>2026-05-01T16:44:26Z</time></trkpt><trkpt lat="45.58990991323514" lon="8.032277519398557"><ele>525.0</ele><time>2026-05-01T16:44:29Z</time></trkpt><trkpt lat="45.59000159589739" lon="8.032258797877569"><ele>525.0</ele><time>2026-05-01T16:44:57Z</time></trkpt><trkpt lat="45.59004198240749" lon="8.032180101708299"><ele>524.5</ele><time>2026-05-01T16:45:01Z</time></trkpt><trkpt lat="45.590158524341696" lon="8.032087159575058"><ele>524.0</ele><time>2026-05-01T16:46:16Z</time></trkpt><trkpt lat="45.59019213974382" lon="8.032010470096845"><ele>523.5</ele><time>2026-05-01T16:46:43Z</time></trkpt><trkpt lat="45.59026537070235" lon="8.03199494105666"><ele>523.0</ele><time>2026-05-01T16:46:46Z</time></trkpt><trkpt lat="45.590340478370564" lon="8.031984613770803"><ele>522.5</ele><time>2026-05-01T16:46:49Z</time></trkpt><trkpt lat="45.590403068326324" lon="8.031922834936525"><ele>522.0</ele><time>2026-05-01T16:46:53Z</time></trkpt><trkpt lat="45.5904856227161" lon="8.031866961113174"><ele>522.0</ele><time>2026-05-01T16:46:56Z</time></trkpt><trkpt lat="45.59055595531039" lon="8.031812579678439"><ele>522.0</ele><time>2026-05-01T16:46:58Z</time></trkpt><trkpt lat="45.59061256876334" lon="8.031759619817837"><ele>522.0</ele><time>2026-05-01T16:47:00Z</time></trkpt><trkpt lat="45.59068728675584" lon="8.03169785367175"><ele>522.0</ele><time>2026-05-01T16:47:03Z</time></trkpt><trkpt lat="45.59073991589061" lon="8.03164775171407"><ele>522.0</ele><time>2026-05-01T16:47:05Z</time></trkpt><trkpt lat="45.59079807206818" lon="8.031602522109061"><ele>522.0</ele><time>2026-05-01T16:47:07Z</time></trkpt><trkpt lat="45.590866493761354" lon="8.031581610257836"><ele>522.0</ele><time>2026-05-01T16:47:09Z</time></trkpt><trkpt lat="45.590943154850066" lon="8.031569700696815"><ele>524.5</ele><time>2026-05-01T16:47:11Z</time></trkpt><trkpt lat="45.5910163373677" lon="8.031556922208475"><ele>527.0</ele><time>2026-05-01T16:47:13Z</time></trkpt><trkpt lat="45.591095430929826" lon="8.031497684438692"><ele>529.5</ele><time>2026-05-01T16:47:16Z</time></trkpt><trkpt lat="45.59116567888846" lon="8.031456119208004"><ele>532.0</ele><time>2026-05-01T16:47:18Z</time></trkpt><trkpt lat="45.59122487498709" lon="8.031411377189102"><ele>534.5</ele><time>2026-05-01T16:47:20Z</time></trkpt><trkpt lat="45.59128543398951" lon="8.031288228450238"><ele>537.0</ele><time>2026-05-01T16:48:12Z</time></trkpt><trkpt lat="45.591225415225736" lon="8.031255631140997"><ele>537.8571428571428</ele><time>2026-05-01T16:48:16Z</time></trkpt><trkpt lat="45.59115358391803" lon="8.031280363142228"><ele>538.7142857142857</ele><time>2026-05-01T16:48:20Z</time></trkpt><trkpt lat="45.591084772783624" lon="8.03130217125803"><ele>539.5714285714286</ele><time>2026-05-01T16:48:25Z</time></trkpt><trkpt lat="45.59101772239725" lon="8.03130329472377"><ele>540.4285714285713</ele><time>2026-05-01T16:48:29Z</time></trkpt><trkpt lat="45.59095335878452" lon="8.031262602480588"><ele>541.2857142857142</ele><time>2026-05-01T16:48:33Z</time></trkpt><trkpt lat="45.5908938428519" lon="8.031215431695703"><ele>542.1428571428571</ele><time>2026-05-01T16:48:37Z</time></trkpt><trkpt lat="45.5908580965182" lon="8.031139347006"><ele>543.0</ele><time>2026-05-01T16:48:44Z</time></trkpt><trkpt lat="45.59087767705548" lon="8.031048409264617"><ele>543.0</ele><time>2026-05-01T16:48:55Z</time></trkpt><trkpt lat="45.590932894501734" lon="8.030965464914983"><ele>543.0</ele><time>2026-05-01T16:49:05Z</time></trkpt><trkpt lat="45.590993017285875" lon="8.030922891043845"><ele>543.0</ele><time>2026-05-01T16:49:09Z</time></trkpt><trkpt lat="45.59105158879178" lon="8.030876492217105"><ele>543.0</ele><time>2026-05-01T16:49:13Z</time></trkpt><trkpt lat="45.5910295556528" lon="8.030968702369146"><ele>543.0</ele><time>2026-05-01T16:49:35Z</time></trkpt><trkpt lat="45.59097120061393" lon="8.030916614548515"><ele>543.0</ele><time>2026-05-01T16:49:41Z</time></trkpt><trkpt lat="45.59089077211536" lon="8.030935850835863"><ele>543.0</ele><time>2026-05-01T16:49:46Z</time></trkpt><trkpt lat="45.590827342569554" lon="8.030947356693686"><ele>543.0</ele><time>2026-05-01T16:49:50Z</time></trkpt><trkpt lat="45.590772309113845" lon="8.030894307939684"><ele>543.0</ele><time>2026-05-01T16:49:54Z</time></trkpt><trkpt lat="45.59070802454668" lon="8.030920274316289"><ele>543.0</ele><time>2026-05-01T16:49:57Z</time></trkpt><trkpt lat="45.59063205055708" lon="8.030899853510483"><ele>543.0</ele><time>2026-05-01T16:50:02Z</time></trkpt><trkpt lat="45.59056275992612" lon="8.030891518572117"><ele>543.0</ele><time>2026-05-01T16:50:07Z</time></trkpt><trkpt lat="45.59049791298545" lon="8.03088677811797"><ele>543.0</ele><time>2026-05-01T16:50:11Z</time></trkpt><trkpt lat="45.59042744312949" lon="8.030891509801153"><ele>543.0</ele><time>2026-05-01T16:50:15Z</time></trkpt><trkpt lat="45.59034701611791" lon="8.03090296922451"><ele>545.2857142857143</ele><time>2026-05-01T16:50:19Z</time></trkpt><trkpt lat="45.59028985072073" lon="8.030949124814061"><ele>547.5714285714286</ele><time>2026-05-01T16:50:22Z</time></trkpt><trkpt lat="45.59022948658212" lon="8.03089851412356"><ele>549.8571428571429</ele><time>2026-05-01T16:50:25Z</time></trkpt><trkpt lat="45.59015572002258" lon="8.03090696445033"><ele>552.1428571428571</ele><time>2026-05-01T16:50:29Z</time></trkpt><trkpt lat="45.590092399656534" lon="8.030899530284827"><ele>554.4285714285714</ele><time>2026-05-01T16:50:33Z</time></trkpt><trkpt lat="45.590018538779645" lon="8.030896928583266"><ele>556.7142857142858</ele><time>2026-05-01T16:50:38Z</time></trkpt><trkpt lat="45.58994377399901" lon="8.030906118581694"><ele>559.0</ele><time>2026-05-01T16:50:43Z</time></trkpt><trkpt lat="45.58987602754781" lon="8.03092343347593"><ele>559.0</ele><time>2026-05-01T16:50:48Z</time></trkpt><trkpt lat="45.589800287263095" lon="8.030884527601927"><ele>559.0</ele><time>2026-05-01T16:50:53Z</time></trkpt><trkpt lat="45.58972859374033" lon="8.030887084223092"><ele>559.0</ele><time>2026-05-01T16:50:59Z</time></trkpt><trkpt lat="45.58965500524313" lon="8.030878508828458"><ele>559.0</ele><time>2026-05-01T16:51:05Z</time></trkpt><trkpt lat="45.589582429753285" lon="8.030866762788557"><ele>559.0</ele><time>2026-05-01T16:51:09Z</time></trkpt><trkpt lat="45.589515906222886" lon="8.030850444271213"><ele>559.0</ele><time>2026-05-01T16:51:14Z</time></trkpt><trkpt lat="45.58944513081976" lon="8.030842812828883"><ele>559.0</ele><time>2026-05-01T16:51:19Z</time></trkpt><trkpt lat="45.589382948646616" lon="8.030818575536008"><ele>559.8571428571429</ele><time>2026-05-01T16:51:24Z</time></trkpt><trkpt lat="45.58932223417288" lon="8.03078345293726"><ele>560.7142857142858</ele><time>2026-05-01T16:51:28Z</time></trkpt><trkpt lat="45.58926417467832" lon="8.03074319952177"><ele>561.5714285714286</ele><time>2026-05-01T16:51:32Z</time></trkpt><trkpt lat="45.589181711206805" lon="8.030711614736306"><ele>562.4285714285714</ele><time>2026-05-01T16:51:37Z</time></trkpt><trkpt lat="45.58911622561116" lon="8.030715559734034"><ele>563.2857142857142</ele><time>2026-05-01T16:51:40Z</time></trkpt><trkpt lat="45.5890451362776" lon="8.030715474618757"><ele>564.1428571428571</ele><time>2026-05-01T16:51:44Z</time></trkpt><trkpt lat="45.588973503041544" lon="8.030719347898716"><ele>565.0</ele><time>2026-05-01T16:51:48Z</time></trkpt><trkpt lat="45.588962380551244" lon="8.030604785566094"><ele>564.9999999999999</ele><time>2026-05-01T16:51:52Z</time></trkpt><trkpt lat="45.589001262872905" lon="8.03051786547046"><ele>565.0</ele><time>2026-05-01T16:51:55Z</time></trkpt><trkpt lat="45.58905970645707" lon="8.03043803516578"><ele>565.0</ele><time>2026-05-01T16:51:59Z</time></trkpt><trkpt lat="45.58909433198129" lon="8.030362172899963"><ele>565.0</ele><time>2026-05-01T16:52:02Z</time></trkpt><trkpt lat="45.58915698355215" lon="8.030293868931693"><ele>565.0</ele><time>2026-05-01T16:52:05Z</time></trkpt><trkpt lat="45.589223870313994" lon="8.030240369852937"><ele>564.9999999999999</ele><time>2026-05-01T16:52:08Z</time></trkpt><trkpt lat="45.589280405795236" lon="8.030184251238484"><ele>565.0</ele><time>2026-05-01T16:52:11Z</time></trkpt><trkpt lat="45.589318951300704" lon="8.030104666729873"><ele>565.0</ele><time>2026-05-01T16:52:14Z</time></trkpt><trkpt lat="45.58929296444118" lon="8.030010834545415"><ele>565.0</ele><time>2026-05-01T16:52:18Z</time></trkpt><trkpt lat="45.58926951549792" lon="8.029926007109959"><ele>565.0</ele><time>2026-05-01T16:52:21Z</time></trkpt><trkpt lat="45.58930395447485" lon="8.02978953678939"><ele>565.0</ele><time>2026-05-01T16:52:24Z</time></trkpt><trkpt lat="45.58934804984678" lon="8.029691548998816"><ele>565.0</ele><time>2026-05-01T16:52:26Z</time></trkpt><trkpt lat="45.58939441863394" lon="8.029583471279972"><ele>565.0</ele><time>2026-05-01T16:52:28Z</time></trkpt><trkpt lat="45.58943082716875" lon="8.02946801506647"><ele>565.2</ele><time>2026-05-01T16:52:30Z</time></trkpt><trkpt lat="45.58948107332266" lon="8.029360411054757"><ele>565.4</ele><time>2026-05-01T16:52:32Z</time></trkpt><trkpt lat="45.589540678580626" lon="8.029256114207467"><ele>565.6</ele><time>2026-05-01T16:52:34Z</time></trkpt><trkpt lat="45.589603672428055" lon="8.029166327448852"><ele>565.8</ele><time>2026-05-01T16:52:36Z</time></trkpt><trkpt lat="45.58969046385831" lon="8.029058237130277"><ele>566.0</ele><time>2026-05-01T16:52:38Z</time></trkpt><trkpt lat="45.5897717947258" lon="8.028936361892727"><ele>566.0</ele><time>2026-05-01T16:52:40Z</time></trkpt><trkpt lat="45.58981698356151" lon="8.028873643700164"><ele>566.0</ele><time>2026-05-01T16:52:41Z</time></trkpt><trkpt lat="45.58991232056104" lon="8.028753781923426"><ele>566.0</ele><time>2026-05-01T16:52:43Z</time></trkpt><trkpt lat="45.58995940021891" lon="8.028687629016343"><ele>566.0</ele><time>2026-05-01T16:52:44Z</time></trkpt><trkpt lat="45.59005050735869" lon="8.028558382860728"><ele>566.0</ele><time>2026-05-01T16:52:46Z</time></trkpt><trkpt lat="45.59009747894742" lon="8.028487471145258"><ele>566.0</ele><time>2026-05-01T16:52:47Z</time></trkpt><trkpt lat="45.59014686585701" lon="8.028419781834058"><ele>566.0</ele><time>2026-05-01T16:52:48Z</time></trkpt><trkpt lat="45.59019568886891" lon="8.028347566846941"><ele>566.0</ele><time>2026-05-01T16:52:49Z</time></trkpt><trkpt lat="45.590242987046885" lon="8.02827524259058"><ele>566.0</ele><time>2026-05-01T16:52:50Z</time></trkpt><trkpt lat="45.5902878363022" lon="8.028199201334502"><ele>566.0</ele><time>2026-05-01T16:52:51Z</time></trkpt><trkpt lat="45.59033772621554" lon="8.028126828593063"><ele>566.0</ele><time>2026-05-01T16:52:52Z</time></trkpt><trkpt lat="45.59038993806946" lon="8.028054556535563"><ele>566.0</ele><time>2026-05-01T16:52:53Z</time></trkpt><trkpt lat="45.59044140630088" lon="8.027980337891611"><ele>567.6666666666666</ele><time>2026-05-01T16:52:54Z</time></trkpt><trkpt lat="45.59049278533812" lon="8.027907479898381"><ele>569.3333333333333</ele><time>2026-05-01T16:52:55Z</time></trkpt><trkpt lat="45.59054402798038" lon="8.027830848776834"><ele>571.0</ele><time>2026-05-01T16:52:56Z</time></trkpt><trkpt lat="45.59059503975086" lon="8.027753550634667"><ele>572.6666666666666</ele><time>2026-05-01T16:52:57Z</time></trkpt><trkpt lat="45.59065308358294" lon="8.027683482868515"><ele>574.3333333333334</ele><time>2026-05-01T16:52:58Z</time></trkpt><trkpt lat="45.59070785069756" lon="8.0276045536285"><ele>576.0</ele><time>2026-05-01T16:52:59Z</time></trkpt><trkpt lat="45.590761945860464" lon="8.027524183202532"><ele>574.8333333333334</ele><time>2026-05-01T16:53:00Z</time></trkpt><trkpt lat="45.59081499364014" lon="8.027443314354645"><ele>573.6666666666666</ele><time>2026-05-01T16:53:01Z</time></trkpt><trkpt lat="45.5908694609211" lon="8.02736270299144"><ele>572.5</ele><time>2026-05-01T16:53:02Z</time></trkpt><trkpt lat="45.59090794454363" lon="8.027264518533617"><ele>571.3333333333333</ele><time>2026-05-01T16:53:03Z</time></trkpt><trkpt lat="45.590912501863244" lon="8.027148277618972"><ele>570.1666666666666</ele><time>2026-05-01T16:53:04Z</time></trkpt><trkpt lat="45.590873824920486" lon="8.027044479322342"><ele>569.0</ele><time>2026-05-01T16:53:05Z</time></trkpt><trkpt lat="45.590779597656535" lon="8.026979122633671"><ele>569.0</ele><time>2026-05-01T16:53:06Z</time></trkpt><trkpt lat="45.590699348685845" lon="8.026960644729753"><ele>569.0</ele><time>2026-05-01T16:53:07Z</time></trkpt><trkpt lat="45.5906167377784" lon="8.026990897414736"><ele>569.0</ele><time>2026-05-01T16:53:08Z</time></trkpt><trkpt lat="45.59055480191774" lon="8.027038858724687"><ele>569.0</ele><time>2026-05-01T16:53:09Z</time></trkpt><trkpt lat="45.59045076731601" lon="8.027109563084892"><ele>569.0</ele><time>2026-05-01T16:53:11Z</time></trkpt><trkpt lat="45.59037063180724" lon="8.027156789509284"><ele>569.0</ele><time>2026-05-01T16:53:13Z</time></trkpt><trkpt lat="45.59029853542944" lon="8.027213457159759"><ele>570.4</ele><time>2026-05-01T16:53:15Z</time></trkpt><trkpt lat="45.59021922414596" lon="8.027255210725306"><ele>571.8</ele><time>2026-05-01T16:53:17Z</time></trkpt><trkpt lat="45.590132412646085" lon="8.027288521012174"><ele>573.2</ele><time>2026-05-01T16:53:19Z</time></trkpt><trkpt lat="45.59004760229986" lon="8.027344023381394"><ele>574.6</ele><time>2026-05-01T16:53:21Z</time></trkpt><trkpt lat="45.58995591543388" lon="8.027378080109509"><ele>576.0</ele><time>2026-05-01T16:53:23Z</time></trkpt><trkpt lat="45.589866202010036" lon="8.027421023161766"><ele>576.0</ele><time>2026-05-01T16:53:25Z</time></trkpt><trkpt lat="45.58977409702193" lon="8.02745313990326"><ele>576.0</ele><time>2026-05-01T16:53:27Z</time></trkpt><trkpt lat="45.58969186374286" lon="8.027504660310381"><ele>576.0</ele><time>2026-05-01T16:53:29Z</time></trkpt><trkpt lat="45.58960549354266" lon="8.02754796297589"><ele>576.0</ele><time>2026-05-01T16:53:31Z</time></trkpt><trkpt lat="45.5895243407936" lon="8.027605585525018"><ele>576.0</ele><time>2026-05-01T16:53:33Z</time></trkpt><trkpt lat="45.58944917654617" lon="8.027686183217574"><ele>578.6</ele><time>2026-05-01T16:53:35Z</time></trkpt><trkpt lat="45.58939826080383" lon="8.027789755090328"><ele>581.2</ele><time>2026-05-01T16:53:37Z</time></trkpt><trkpt lat="45.58934235417209" lon="8.027890266426661"><ele>583.8</ele><time>2026-05-01T16:53:39Z</time></trkpt><trkpt lat="45.58926350144509" lon="8.02798601532345"><ele>586.4</ele><time>2026-05-01T16:53:41Z</time></trkpt><trkpt lat="45.58918068182171" lon="8.028091878035383"><ele>589.0</ele><time>2026-05-01T16:53:43Z</time></trkpt><trkpt lat="45.589100514106896" lon="8.028160607092891"><ele>589.0</ele><time>2026-05-01T16:53:45Z</time></trkpt><trkpt lat="45.58902677196887" lon="8.028213707831501"><ele>589.0</ele><time>2026-05-01T16:53:47Z</time></trkpt><trkpt lat="45.58892271087386" lon="8.028255359053349"><ele>589.0</ele><time>2026-05-01T16:53:49Z</time></trkpt><trkpt lat="45.58884098328726" lon="8.028323028186461"><ele>589.0</ele><time>2026-05-01T16:53:51Z</time></trkpt><trkpt lat="45.58876384932485" lon="8.028329443007825"><ele>589.0</ele><time>2026-05-01T16:53:53Z</time></trkpt><trkpt lat="45.588688454846704" lon="8.028339143384171"><ele>589.0</ele><time>2026-05-01T16:53:55Z</time></trkpt><trkpt lat="45.58859746555273" lon="8.028357995257279"><ele>587.2</ele><time>2026-05-01T16:53:57Z</time></trkpt><trkpt lat="45.58850366431661" lon="8.02840243751178"><ele>585.4</ele><time>2026-05-01T16:53:59Z</time></trkpt><trkpt lat="45.58840227107704" lon="8.028475861887243"><ele>583.6</ele><time>2026-05-01T16:54:01Z</time></trkpt><trkpt lat="45.588327113651836" lon="8.028535795973436"><ele>581.8</ele><time>2026-05-01T16:54:03Z</time></trkpt><trkpt lat="45.58825682722308" lon="8.02861438754706"><ele>580.0</ele><time>2026-05-01T16:54:05Z</time></trkpt><trkpt lat="45.58820138569289" lon="8.028657300993332"><ele>580.0</ele><time>2026-05-01T16:54:07Z</time></trkpt><trkpt lat="45.58813466876439" lon="8.028707850250264"><ele>580.0</ele><time>2026-05-01T16:54:09Z</time></trkpt><trkpt lat="45.588046331013416" lon="8.028773775339147"><ele>580.0</ele><time>2026-05-01T16:54:11Z</time></trkpt><trkpt lat="45.587942711500475" lon="8.02878880590691"><ele>580.0</ele><time>2026-05-01T16:54:13Z</time></trkpt><trkpt lat="45.587879809793854" lon="8.028808155140572"><ele>580.0</ele><time>2026-05-01T16:54:14Z</time></trkpt><trkpt lat="45.587782617412195" lon="8.028817669336208"><ele>580.0</ele><time>2026-05-01T16:54:16Z</time></trkpt><trkpt lat="45.587678745671" lon="8.028808091575952"><ele>578.4</ele><time>2026-05-01T16:54:18Z</time></trkpt><trkpt lat="45.58760144134078" lon="8.028726592837"><ele>576.8</ele><time>2026-05-01T16:54:20Z</time></trkpt><trkpt lat="45.587520076156274" lon="8.028671291929928"><ele>575.2</ele><time>2026-05-01T16:54:22Z</time></trkpt><trkpt lat="45.58743269717207" lon="8.028612640920239"><ele>573.6</ele><time>2026-05-01T16:54:24Z</time></trkpt><trkpt lat="45.587390842543925" lon="8.028473796766049"><ele>572.0</ele><time>2026-05-01T16:54:26Z</time></trkpt><trkpt lat="45.58737329437903" lon="8.028336124247842"><ele>571.5</ele><time>2026-05-01T16:54:28Z</time></trkpt><trkpt lat="45.58739605367849" lon="8.02819082298479"><ele>571.0</ele><time>2026-05-01T16:54:30Z</time></trkpt><trkpt lat="45.587427574386396" lon="8.028098062548807"><ele>570.5</ele><time>2026-05-01T16:54:32Z</time></trkpt><trkpt lat="45.58747642899118" lon="8.028011209432503"><ele>570.0</ele><time>2026-05-01T16:54:34Z</time></trkpt><trkpt lat="45.58754887060944" lon="8.02795695989764"><ele>569.5</ele><time>2026-05-01T16:54:36Z</time></trkpt><trkpt lat="45.587628407167536" lon="8.027902151373501"><ele>569.0</ele><time>2026-05-01T16:54:38Z</time></trkpt><trkpt lat="45.58771369654837" lon="8.027831862268988"><ele>569.0</ele><time>2026-05-01T16:54:40Z</time></trkpt><trkpt lat="45.58780217377288" lon="8.02775933109117"><ele>569.0</ele><time>2026-05-01T16:54:42Z</time></trkpt><trkpt lat="45.587888144246996" lon="8.027664307788315"><ele>569.0</ele><time>2026-05-01T16:54:44Z</time></trkpt><trkpt lat="45.58796217908629" lon="8.027547391570502"><ele>569.0</ele><time>2026-05-01T16:54:46Z</time></trkpt><trkpt lat="45.588017443848706" lon="8.027407505992544"><ele>569.0</ele><time>2026-05-01T16:54:48Z</time></trkpt><trkpt lat="45.58799404779016" lon="8.027235463196952"><ele>571.4</ele><time>2026-05-01T16:54:50Z</time></trkpt><trkpt lat="45.58796421020361" lon="8.027154337210025"><ele>573.8</ele><time>2026-05-01T16:54:51Z</time></trkpt><trkpt lat="45.58791922463673" lon="8.027084500013732"><ele>576.2</ele><time>2026-05-01T16:54:52Z</time></trkpt><trkpt lat="45.5878391494593" lon="8.026955943814132"><ele>578.6</ele><time>2026-05-01T16:54:54Z</time></trkpt><trkpt lat="45.587771273728556" lon="8.026818300775346"><ele>581.0</ele><time>2026-05-01T16:54:56Z</time></trkpt><trkpt lat="45.58768701229172" lon="8.02669963387324"><ele>581.0</ele><time>2026-05-01T16:54:58Z</time></trkpt><trkpt lat="45.58758058142831" lon="8.026626980657236"><ele>581.0</ele><time>2026-05-01T16:55:00Z</time></trkpt><trkpt lat="45.58751460287747" lon="8.026624656573716"><ele>581.0</ele><time>2026-05-01T16:55:01Z</time></trkpt><trkpt lat="45.58739673929882" lon="8.02666927987427"><ele>581.0</ele><time>2026-05-01T16:55:03Z</time></trkpt><trkpt lat="45.58728868965692" lon="8.026659153831037"><ele>581.0</ele><time>2026-05-01T16:55:05Z</time></trkpt><trkpt lat="45.58721370222776" lon="8.02653654150612"><ele>580.0</ele><time>2026-05-01T16:55:07Z</time></trkpt><trkpt lat="45.58714711080585" lon="8.026427912026282"><ele>579.0</ele><time>2026-05-01T16:55:09Z</time></trkpt><trkpt lat="45.58704737510477" lon="8.02639909342646"><ele>578.0</ele><time>2026-05-01T16:55:11Z</time></trkpt><trkpt lat="45.586951255221585" lon="8.026490580827549"><ele>577.0</ele><time>2026-05-01T16:55:13Z</time></trkpt><trkpt lat="45.5868764120679" lon="8.026616612559941"><ele>576.0</ele><time>2026-05-01T16:55:15Z</time></trkpt><trkpt lat="45.58680052290623" lon="8.026711476560743"><ele>576.0</ele><time>2026-05-01T16:55:17Z</time></trkpt><trkpt lat="45.586722696527154" lon="8.026818212179188"><ele>576.0</ele><time>2026-05-01T16:55:19Z</time></trkpt><trkpt lat="45.58659965937812" lon="8.026817725208288"><ele>576.0</ele><time>2026-05-01T16:55:21Z</time></trkpt><trkpt lat="45.58654719980074" lon="8.0267673768097"><ele>576.0</ele><time>2026-05-01T16:55:22Z</time></trkpt><trkpt lat="45.58651020175433" lon="8.02668877869859"><ele>576.0</ele><time>2026-05-01T16:55:23Z</time></trkpt><trkpt lat="45.58645389593617" lon="8.026552679066455"><ele>577.6</ele><time>2026-05-01T16:55:25Z</time></trkpt><trkpt lat="45.58639091316938" lon="8.026433245444853"><ele>579.2</ele><time>2026-05-01T16:55:27Z</time></trkpt><trkpt lat="45.58630865723079" lon="8.026357946651943"><ele>580.8</ele><time>2026-05-01T16:55:29Z</time></trkpt><trkpt lat="45.58621245392431" lon="8.026384977042923"><ele>582.4</ele><time>2026-05-01T16:55:31Z</time></trkpt><trkpt lat="45.58613350211956" lon="8.02652762488932"><ele>584.0</ele><time>2026-05-01T16:55:33Z</time></trkpt><trkpt lat="45.586079021078554" lon="8.0265923204509"><ele>582.8333333333333</ele><time>2026-05-01T16:55:35Z</time></trkpt><trkpt lat="45.58602848872772" lon="8.026667405393853"><ele>581.6666666666666</ele><time>2026-05-01T16:55:37Z</time></trkpt><trkpt lat="45.58596638748403" lon="8.02675533617396"><ele>580.5</ele><time>2026-05-01T16:55:39Z</time></trkpt><trkpt lat="45.58589962891141" lon="8.026844082938908"><ele>579.3333333333334</ele><time>2026-05-01T16:55:41Z</time></trkpt><trkpt lat="45.585827151528065" lon="8.026910344028828"><ele>578.1666666666667</ele><time>2026-05-01T16:55:43Z</time></trkpt><trkpt lat="45.58575024389513" lon="8.026973438966456"><ele>577.0</ele><time>2026-05-01T16:55:45Z</time></trkpt><trkpt lat="45.58567404862782" lon="8.027042968917769"><ele>577.0</ele><time>2026-05-01T16:55:47Z</time></trkpt><trkpt lat="45.58559957723931" lon="8.027124523347434"><ele>577.0</ele><time>2026-05-01T16:55:49Z</time></trkpt><trkpt lat="45.585512508284516" lon="8.02718044310775"><ele>577.0</ele><time>2026-05-01T16:55:51Z</time></trkpt><trkpt lat="45.5854331103042" lon="8.027244567936311"><ele>577.0</ele><time>2026-05-01T16:55:53Z</time></trkpt><trkpt lat="45.58535561067642" lon="8.027296682683025"><ele>577.0</ele><time>2026-05-01T16:55:55Z</time></trkpt><trkpt lat="45.58529320937838" lon="8.027360564084457"><ele>577.0</ele><time>2026-05-01T16:55:57Z</time></trkpt><trkpt lat="45.58522265802931" lon="8.02743790180116"><ele>576.0</ele><time>2026-05-01T16:56:00Z</time></trkpt><trkpt lat="45.58515268308158" lon="8.027490960892965"><ele>575.0</ele><time>2026-05-01T16:56:04Z</time></trkpt><trkpt lat="45.58508990706804" lon="8.027454195089781"><ele>574.0</ele><time>2026-05-01T16:56:11Z</time></trkpt><trkpt lat="45.58504848322007" lon="8.027597363134083"><ele>573.0</ele><time>2026-05-01T16:56:14Z</time></trkpt><trkpt lat="45.58495307715826" lon="8.027679364468204"><ele>572.0</ele><time>2026-05-01T16:56:16Z</time></trkpt><trkpt lat="45.584833452824164" lon="8.027667586847102"><ele>572.0</ele><time>2026-05-01T16:56:18Z</time></trkpt><trkpt lat="45.584812233765874" lon="8.027548794955631"><ele>572.0</ele><time>2026-05-01T16:56:19Z</time></trkpt><trkpt lat="45.58482207264521" lon="8.027423885934075"><ele>572.0</ele><time>2026-05-01T16:56:20Z</time></trkpt><trkpt lat="45.58481245114825" lon="8.027289579249585"><ele>572.0</ele><time>2026-05-01T16:56:21Z</time></trkpt><trkpt lat="45.58479372569435" lon="8.027166807013678"><ele>572.0</ele><time>2026-05-01T16:56:22Z</time></trkpt><trkpt lat="45.58475859644393" lon="8.027048228716504"><ele>572.0</ele><time>2026-05-01T16:56:23Z</time></trkpt><trkpt lat="45.58471583030462" lon="8.026931061803479"><ele>572.0</ele><time>2026-05-01T16:56:24Z</time></trkpt><trkpt lat="45.58468423873657" lon="8.02681464909253"><ele>572.0</ele><time>2026-05-01T16:56:25Z</time></trkpt><trkpt lat="45.58466037725332" lon="8.026694845690844"><ele>572.0</ele><time>2026-05-01T16:56:26Z</time></trkpt><trkpt lat="45.58466128242926" lon="8.026577972848722"><ele>572.0</ele><time>2026-05-01T16:56:27Z</time></trkpt><trkpt lat="45.5846851517418" lon="8.026471471781138"><ele>572.0</ele><time>2026-05-01T16:56:28Z</time></trkpt><trkpt lat="45.584721441283605" lon="8.026370133811701"><ele>572.0</ele><time>2026-05-01T16:56:29Z</time></trkpt><trkpt lat="45.58476770802719" lon="8.02628816115455"><ele>571.0</ele><time>2026-05-01T16:56:30Z</time></trkpt><trkpt lat="45.584807922187565" lon="8.026196171188317"><ele>570.0</ele><time>2026-05-01T16:56:31Z</time></trkpt><trkpt lat="45.5848526604209" lon="8.026113480510302"><ele>569.0</ele><time>2026-05-01T16:56:32Z</time></trkpt><trkpt lat="45.584908651916585" lon="8.026058101300023"><ele>568.0</ele><time>2026-05-01T16:56:33Z</time></trkpt><trkpt lat="45.5849849364039" lon="8.026019815039806"><ele>567.0</ele><time>2026-05-01T16:56:34Z</time></trkpt><trkpt lat="45.58505717109468" lon="8.025977856549316"><ele>566.0</ele><time>2026-05-01T16:56:35Z</time></trkpt><trkpt lat="45.58512379811418" lon="8.025922206463232"><ele>566.0</ele><time>2026-05-01T16:56:36Z</time></trkpt><trkpt lat="45.58518122527973" lon="8.025871497426714"><ele>566.0</ele><time>2026-05-01T16:56:37Z</time></trkpt><trkpt lat="45.58523955308797" lon="8.025815937670467"><ele>566.0</ele><time>2026-05-01T16:56:38Z</time></trkpt><trkpt lat="45.585289462148396" lon="8.02575338128234"><ele>566.0</ele><time>2026-05-01T16:56:39Z</time></trkpt><trkpt lat="45.585343400615194" lon="8.0257059298954"><ele>566.0</ele><time>2026-05-01T16:56:40Z</time></trkpt><trkpt lat="45.58543668735512" lon="8.025604367038197"><ele>566.0</ele><time>2026-05-01T16:56:42Z</time></trkpt><trkpt lat="45.58553654803769" lon="8.025520414662765"><ele>569.8</ele><time>2026-05-01T16:56:44Z</time></trkpt><trkpt lat="45.58563259080129" lon="8.025427895810868"><ele>573.6</ele><time>2026-05-01T16:56:46Z</time></trkpt><trkpt lat="45.58572301294541" lon="8.025336822849322"><ele>577.4</ele><time>2026-05-01T16:56:48Z</time></trkpt><trkpt lat="45.585807433919335" lon="8.025237925269503"><ele>581.2</ele><time>2026-05-01T16:56:50Z</time></trkpt><trkpt lat="45.58587779722867" lon="8.025120232990963"><ele>585.0</ele><time>2026-05-01T16:56:52Z</time></trkpt><trkpt lat="45.585903968848235" lon="8.024974541806523"><ele>587.4</ele><time>2026-05-01T16:56:54Z</time></trkpt><trkpt lat="45.58584008924938" lon="8.024841137926312"><ele>589.8</ele><time>2026-05-01T16:56:56Z</time></trkpt><trkpt lat="45.585732544783426" lon="8.02476921706235"><ele>592.2</ele><time>2026-05-01T16:56:58Z</time></trkpt><trkpt lat="45.585616221742754" lon="8.024729318230555"><ele>594.6</ele><time>2026-05-01T16:57:00Z</time></trkpt><trkpt lat="45.58555377637452" lon="8.02471505747128"><ele>597.0</ele><time>2026-05-01T16:57:01Z</time></trkpt><trkpt lat="45.58548712087923" lon="8.024710355980623"><ele>597.0</ele><time>2026-05-01T16:57:02Z</time></trkpt><trkpt lat="45.585413684020395" lon="8.024705812052012"><ele>597.0</ele><time>2026-05-01T16:57:03Z</time></trkpt><trkpt lat="45.58533517118913" lon="8.024691539290156"><ele>597.0</ele><time>2026-05-01T16:57:04Z</time></trkpt><trkpt lat="45.585263174716125" lon="8.024645791152368"><ele>597.0</ele><time>2026-05-01T16:57:05Z</time></trkpt><trkpt lat="45.585220193467336" lon="8.024559149721611"><ele>597.0</ele><time>2026-05-01T16:57:06Z</time></trkpt><trkpt lat="45.58515629303742" lon="8.02447057675768"><ele>597.0</ele><time>2026-05-01T16:57:07Z</time></trkpt><trkpt lat="45.585090265339545" lon="8.024393854724986"><ele>595.0</ele><time>2026-05-01T16:57:08Z</time></trkpt><trkpt lat="45.58500074136505" lon="8.024384992071427"><ele>593.0</ele><time>2026-05-01T16:57:09Z</time></trkpt><trkpt lat="45.584912246514094" lon="8.024391288266905"><ele>591.0</ele><time>2026-05-01T16:57:10Z</time></trkpt><trkpt lat="45.58484589520016" lon="8.024462678012018"><ele>589.0</ele><time>2026-05-01T16:57:11Z</time></trkpt><trkpt lat="45.584793235962714" lon="8.024555363044206"><ele>587.0</ele><time>2026-05-01T16:57:12Z</time></trkpt><trkpt lat="45.58474650182636" lon="8.024687062357613"><ele>585.0</ele><time>2026-05-01T16:57:13Z</time></trkpt><trkpt lat="45.58470274816255" lon="8.024778048056753"><ele>585.0</ele><time>2026-05-01T16:57:14Z</time></trkpt><trkpt lat="45.584648068953626" lon="8.024863836875353"><ele>585.0</ele><time>2026-05-01T16:57:15Z</time></trkpt><trkpt lat="45.584594250163946" lon="8.024938925345811"><ele>585.0</ele><time>2026-05-01T16:57:16Z</time></trkpt><trkpt lat="45.58452769284234" lon="8.025007792251111"><ele>585.0</ele><time>2026-05-01T16:57:17Z</time></trkpt><trkpt lat="45.58445646225516" lon="8.025066112829991"><ele>585.0</ele><time>2026-05-01T16:57:18Z</time></trkpt><trkpt lat="45.584374755226555" lon="8.025102601249463"><ele>585.0</ele><time>2026-05-01T16:57:19Z</time></trkpt><trkpt lat="45.5842910697389" lon="8.02510298625181"><ele>583.6666666666666</ele><time>2026-05-01T16:57:20Z</time></trkpt><trkpt lat="45.58421386263123" lon="8.025070383924568"><ele>582.3333333333334</ele><time>2026-05-01T16:57:21Z</time></trkpt><trkpt lat="45.584151038695175" lon="8.024984194557117"><ele>581.0</ele><time>2026-05-01T16:57:22Z</time></trkpt><trkpt lat="45.58410453844019" lon="8.024883890091864"><ele>579.6666666666667</ele><time>2026-05-01T16:57:23Z</time></trkpt><trkpt lat="45.58408616856335" lon="8.024764604729977"><ele>578.3333333333334</ele><time>2026-05-01T16:57:24Z</time></trkpt><trkpt lat="45.5840701428791" lon="8.024656357219891"><ele>577.0</ele><time>2026-05-01T16:57:25Z</time></trkpt><trkpt lat="45.58405183764736" lon="8.024556097533585"><ele>577.0</ele><time>2026-05-01T16:57:26Z</time></trkpt><trkpt lat="45.58402565811204" lon="8.024460252752448"><ele>577.0</ele><time>2026-05-01T16:57:27Z</time></trkpt><trkpt lat="45.58398760090144" lon="8.024371797639548"><ele>577.0</ele><time>2026-05-01T16:57:28Z</time></trkpt><trkpt lat="45.583928021082734" lon="8.024302594690193"><ele>577.0</ele><time>2026-05-01T16:57:29Z</time></trkpt><trkpt lat="45.58387767466876" lon="8.024230338239963"><ele>577.0</ele><time>2026-05-01T16:57:30Z</time></trkpt><trkpt lat="45.58383770917257" lon="8.024148356479229"><ele>577.0</ele><time>2026-05-01T16:57:31Z</time></trkpt><trkpt lat="45.58381687858506" lon="8.024052805245912"><ele>577.0</ele><time>2026-05-01T16:57:32Z</time></trkpt><trkpt lat="45.58379761287418" lon="8.023949683062595"><ele>578.8333333333334</ele><time>2026-05-01T16:57:33Z</time></trkpt><trkpt lat="45.583770846927415" lon="8.023848019370996"><ele>580.6666666666667</ele><time>2026-05-01T16:57:34Z</time></trkpt><trkpt lat="45.583713308046626" lon="8.023777250819265"><ele>582.5</ele><time>2026-05-01T16:57:35Z</time></trkpt><trkpt lat="45.58363257544225" lon="8.023745439096022"><ele>584.3333333333334</ele><time>2026-05-01T16:57:36Z</time></trkpt><trkpt lat="45.583550399484004" lon="8.023741150230295"><ele>586.1666666666666</ele><time>2026-05-01T16:57:37Z</time></trkpt><trkpt lat="45.58348012086281" lon="8.023729350505018"><ele>588.0</ele><time>2026-05-01T16:57:38Z</time></trkpt><trkpt lat="45.58341433032296" lon="8.023696526435344"><ele>584.5</ele><time>2026-05-01T16:57:39Z</time></trkpt><trkpt lat="45.5833507971748" lon="8.023642476768078"><ele>581.0</ele><time>2026-05-01T16:57:40Z</time></trkpt><trkpt lat="45.583300230939265" lon="8.023561868221462"><ele>577.5</ele><time>2026-05-01T16:57:41Z</time></trkpt><trkpt lat="45.58327053565925" lon="8.023450055276863"><ele>574.0</ele><time>2026-05-01T16:57:42Z</time></trkpt><trkpt lat="45.583271486512" lon="8.023337935060502"><ele>570.5</ele><time>2026-05-01T16:57:43Z</time></trkpt><trkpt lat="45.58330058665137" lon="8.023223847021193"><ele>567.0</ele><time>2026-05-01T16:57:44Z</time></trkpt><trkpt lat="45.58333763276091" lon="8.023116515523085"><ele>567.0</ele><time>2026-05-01T16:57:45Z</time></trkpt><trkpt lat="45.583375276143435" lon="8.023022736301035"><ele>567.0</ele><time>2026-05-01T16:57:46Z</time></trkpt><trkpt lat="45.583391066056315" lon="8.022917398851101"><ele>567.0</ele><time>2026-05-01T16:57:47Z</time></trkpt><trkpt lat="45.58341110679456" lon="8.022819217142667"><ele>567.0</ele><time>2026-05-01T16:57:48Z</time></trkpt><trkpt lat="45.58341444784485" lon="8.02271426554772"><ele>567.0</ele><time>2026-05-01T16:57:49Z</time></trkpt><trkpt lat="45.58340589196908" lon="8.022611391872339"><ele>567.0</ele><time>2026-05-01T16:57:50Z</time></trkpt><trkpt lat="45.58339020009522" lon="8.022508896337957"><ele>567.0</ele><time>2026-05-01T16:57:51Z</time></trkpt><trkpt lat="45.583364782851675" lon="8.02241484070752"><ele>566.8571428571429</ele><time>2026-05-01T16:57:52Z</time></trkpt><trkpt lat="45.5833299825358" lon="8.022323260673755"><ele>566.7142857142858</ele><time>2026-05-01T16:57:53Z</time></trkpt><trkpt lat="45.58329264900729" lon="8.022237818144982"><ele>566.5714285714286</ele><time>2026-05-01T16:57:54Z</time></trkpt><trkpt lat="45.583251336720544" lon="8.02215674097816"><ele>566.4285714285714</ele><time>2026-05-01T16:57:55Z</time></trkpt><trkpt lat="45.583207053384704" lon="8.02207087749201"><ele>566.2857142857143</ele><time>2026-05-01T16:57:56Z</time></trkpt><trkpt lat="45.58317079771088" lon="8.021977779379023"><ele>566.1428571428571</ele><time>2026-05-01T16:57:57Z</time></trkpt><trkpt lat="45.58313319123451" lon="8.021889184400415"><ele>566.0</ele><time>2026-05-01T16:57:58Z</time></trkpt><trkpt lat="45.58310493217206" lon="8.02179170897493"><ele>566.0</ele><time>2026-05-01T16:57:59Z</time></trkpt><trkpt lat="45.58309208398436" lon="8.02168300876694"><ele>566.0</ele><time>2026-05-01T16:58:00Z</time></trkpt><trkpt lat="45.58311244324709" lon="8.021561413594036"><ele>566.0</ele><time>2026-05-01T16:58:01Z</time></trkpt><trkpt lat="45.58316937670227" lon="8.021475116501593"><ele>566.0</ele><time>2026-05-01T16:58:02Z</time></trkpt><trkpt lat="45.58325147292171" lon="8.021436136266734"><ele>566.0</ele><time>2026-05-01T16:58:03Z</time></trkpt><trkpt lat="45.58334117737082" lon="8.021438595782314"><ele>566.0</ele><time>2026-05-01T16:58:04Z</time></trkpt><trkpt lat="45.583425882366484" lon="8.021447515956869"><ele>565.0</ele><time>2026-05-01T16:58:05Z</time></trkpt><trkpt lat="45.58350240012639" lon="8.021490501511776"><ele>564.0</ele><time>2026-05-01T16:58:06Z</time></trkpt><trkpt lat="45.583577179795796" lon="8.02153962414259"><ele>563.0</ele><time>2026-05-01T16:58:07Z</time></trkpt><trkpt lat="45.58364681210334" lon="8.021605918848604"><ele>562.0</ele><time>2026-05-01T16:58:08Z</time></trkpt><trkpt lat="45.58371319285116" lon="8.021680030379207"><ele>561.0</ele><time>2026-05-01T16:58:09Z</time></trkpt><trkpt lat="45.58378947352077" lon="8.021706945083611"><ele>560.0</ele><time>2026-05-01T16:58:10Z</time></trkpt><trkpt lat="45.58386577115236" lon="8.02166731239051"><ele>561.4285714285714</ele><time>2026-05-01T16:58:11Z</time></trkpt><trkpt lat="45.58392688559643" lon="8.021607314377738"><ele>562.8571428571429</ele><time>2026-05-01T16:58:12Z</time></trkpt><trkpt lat="45.58398764646746" lon="8.021554378806181"><ele>564.2857142857142</ele><time>2026-05-01T16:58:13Z</time></trkpt><trkpt lat="45.58404087258299" lon="8.021494260783777"><ele>565.7142857142858</ele><time>2026-05-01T16:58:14Z</time></trkpt><trkpt lat="45.584111787659964" lon="8.021447996603628"><ele>567.1428571428571</ele><time>2026-05-01T16:58:15Z</time></trkpt><trkpt lat="45.58416948572499" lon="8.02140126573737"><ele>568.5714285714286</ele><time>2026-05-01T16:58:16Z</time></trkpt><trkpt lat="45.58422965612701" lon="8.021348430696802"><ele>570.0</ele><time>2026-05-01T16:58:17Z</time></trkpt><trkpt lat="45.58429210968119" lon="8.02130210764764"><ele>570.0</ele><time>2026-05-01T16:58:18Z</time></trkpt><trkpt lat="45.58433613809462" lon="8.021226988292659"><ele>570.0</ele><time>2026-05-01T16:58:19Z</time></trkpt><trkpt lat="45.5843842288161" lon="8.021052518083458"><ele>570.0</ele><time>2026-05-01T16:58:21Z</time></trkpt><trkpt lat="45.58433608075972" lon="8.02094939254418"><ele>570.0</ele><time>2026-05-01T16:58:22Z</time></trkpt><trkpt lat="45.58428097404358" lon="8.020863416089288"><ele>570.0</ele><time>2026-05-01T16:58:23Z</time></trkpt><trkpt lat="45.584199224765904" lon="8.020818271870812"><ele>569.3333333333334</ele><time>2026-05-01T16:58:24Z</time></trkpt><trkpt lat="45.58410813527739" lon="8.020803840584692"><ele>568.6666666666666</ele><time>2026-05-01T16:58:25Z</time></trkpt><trkpt lat="45.58404321963053" lon="8.020756594665617"><ele>568.0</ele><time>2026-05-01T16:58:26Z</time></trkpt><trkpt lat="45.58399425258512" lon="8.020671628251065"><ele>567.3333333333333</ele><time>2026-05-01T16:58:27Z</time></trkpt><trkpt lat="45.583978433609765" lon="8.020562447173766"><ele>566.6666666666666</ele><time>2026-05-01T16:58:28Z</time></trkpt><trkpt lat="45.58397862071854" lon="8.020441406760092"><ele>566.0</ele><time>2026-05-01T16:58:29Z</time></trkpt><trkpt lat="45.58400298707595" lon="8.02033960312062"><ele>566.0</ele><time>2026-05-01T16:58:30Z</time></trkpt><trkpt lat="45.58406753504614" lon="8.02024205918628"><ele>566.0</ele><time>2026-05-01T16:58:31Z</time></trkpt><trkpt lat="45.58415447208907" lon="8.020200157913163"><ele>566.0</ele><time>2026-05-01T16:58:32Z</time></trkpt><trkpt lat="45.58425202572825" lon="8.020187421315319"><ele>566.0</ele><time>2026-05-01T16:58:33Z</time></trkpt><trkpt lat="45.58431816367532" lon="8.020130094149863"><ele>566.0</ele><time>2026-05-01T16:58:34Z</time></trkpt><trkpt lat="45.584380600466766" lon="8.02005516514325"><ele>566.0</ele><time>2026-05-01T16:58:35Z</time></trkpt><trkpt lat="45.58443355702848" lon="8.019963773233409"><ele>566.8333333333333</ele><time>2026-05-01T16:58:36Z</time></trkpt><trkpt lat="45.58445560334568" lon="8.019852837026027"><ele>567.6666666666666</ele><time>2026-05-01T16:58:37Z</time></trkpt><trkpt lat="45.584441985365025" lon="8.019735557126536"><ele>568.5</ele><time>2026-05-01T16:58:38Z</time></trkpt><trkpt lat="45.58439102787227" lon="8.019637976101768"><ele>569.3333333333334</ele><time>2026-05-01T16:58:39Z</time></trkpt><trkpt lat="45.584332344747644" lon="8.019553671058715"><ele>570.1666666666667</ele><time>2026-05-01T16:58:40Z</time></trkpt><trkpt lat="45.584270428453706" lon="8.019488132400049"><ele>571.0</ele><time>2026-05-01T16:58:41Z</time></trkpt><trkpt lat="45.58417163919668" lon="8.019382972628087"><ele>571.0</ele><time>2026-05-01T16:58:43Z</time></trkpt><trkpt lat="45.584123109930864" lon="8.019322955113289"><ele>571.0</ele><time>2026-05-01T16:58:44Z</time></trkpt><trkpt lat="45.5840323891943" lon="8.01922860134558"><ele>571.0</ele><time>2026-05-01T16:58:46Z</time></trkpt><trkpt lat="45.58392661392189" lon="8.019152404596664"><ele>571.0</ele><time>2026-05-01T16:58:48Z</time></trkpt><trkpt lat="45.58383355093123" lon="8.019048816661922"><ele>571.0</ele><time>2026-05-01T16:58:50Z</time></trkpt><trkpt lat="45.58379040798683" lon="8.01897344926342"><ele>572.0</ele><time>2026-05-01T16:58:51Z</time></trkpt><trkpt lat="45.58375123156592" lon="8.018897704732636"><ele>573.0</ele><time>2026-05-01T16:58:52Z</time></trkpt><trkpt lat="45.58372800802943" lon="8.018798875804862"><ele>574.0</ele><time>2026-05-01T16:58:53Z</time></trkpt><trkpt lat="45.58372615505615" lon="8.018699715114623"><ele>575.0</ele><time>2026-05-01T16:58:54Z</time></trkpt><trkpt lat="45.58374979553175" lon="8.01859796368883"><ele>576.0</ele><time>2026-05-01T16:58:55Z</time></trkpt><trkpt lat="45.58378788689231" lon="8.018499777472195"><ele>577.0</ele><time>2026-05-01T16:58:56Z</time></trkpt><trkpt lat="45.583797169601034" lon="8.018402275539964"><ele>578.0</ele><time>2026-05-01T16:58:57Z</time></trkpt><trkpt lat="45.583781296145" lon="8.018305432678172"><ele>578.8571428571429</ele><time>2026-05-01T16:58:58Z</time></trkpt><trkpt lat="45.58373777772394" lon="8.018227470858125"><ele>579.7142857142857</ele><time>2026-05-01T16:58:59Z</time></trkpt><trkpt lat="45.58367931838836" lon="8.018166234231398"><ele>580.5714285714286</ele><time>2026-05-01T16:59:00Z</time></trkpt><trkpt lat="45.583624802399754" lon="8.018114362083058"><ele>581.4285714285714</ele><time>2026-05-01T16:59:01Z</time></trkpt><trkpt lat="45.583565861545324" lon="8.018082282448221"><ele>582.2857142857143</ele><time>2026-05-01T16:59:02Z</time></trkpt><trkpt lat="45.5835076877368" lon="8.018037776675923"><ele>583.1428571428571</ele><time>2026-05-01T16:59:03Z</time></trkpt><trkpt lat="45.583452474560765" lon="8.017987320050413"><ele>584.0</ele><time>2026-05-01T16:59:04Z</time></trkpt><trkpt lat="45.58336065256866" lon="8.017870051179631"><ele>584.5</ele><time>2026-05-01T16:59:06Z</time></trkpt><trkpt lat="45.58326947867149" lon="8.017762900574187"><ele>585.0</ele><time>2026-05-01T16:59:08Z</time></trkpt><trkpt lat="45.58322083602827" lon="8.017705529169342"><ele>585.5</ele><time>2026-05-01T16:59:09Z</time></trkpt><trkpt lat="45.58317952754308" lon="8.017625931319289"><ele>586.0</ele><time>2026-05-01T16:59:10Z</time></trkpt><trkpt lat="45.58314576888803" lon="8.017546752562035"><ele>586.5</ele><time>2026-05-01T16:59:11Z</time></trkpt><trkpt lat="45.583122971516765" lon="8.017455323883796"><ele>587.0</ele><time>2026-05-01T16:59:12Z</time></trkpt><trkpt lat="45.58309634177623" lon="8.017368037481559"><ele>587.0</ele><time>2026-05-01T16:59:13Z</time></trkpt><trkpt lat="45.58306366935087" lon="8.017286415084584"><ele>587.0</ele><time>2026-05-01T16:59:14Z</time></trkpt><trkpt lat="45.58303595860794" lon="8.01720240714242"><ele>587.0</ele><time>2026-05-01T16:59:15Z</time></trkpt><trkpt lat="45.58300797063315" lon="8.017118734135844"><ele>587.0</ele><time>2026-05-01T16:59:16Z</time></trkpt><trkpt lat="45.582950266491395" lon="8.016956604950058"><ele>587.0</ele><time>2026-05-01T16:59:18Z</time></trkpt><trkpt lat="45.58289438839809" lon="8.01679868839858"><ele>587.0</ele><time>2026-05-01T16:59:20Z</time></trkpt><trkpt lat="45.58284278125504" lon="8.01663473656349"><ele>583.8333333333333</ele><time>2026-05-01T16:59:22Z</time></trkpt><trkpt lat="45.582828923689654" lon="8.01654615627415"><ele>580.6666666666666</ele><time>2026-05-01T16:59:23Z</time></trkpt><trkpt lat="45.582826133799244" lon="8.016450229604924"><ele>577.5</ele><time>2026-05-01T16:59:24Z</time></trkpt><trkpt lat="45.582829388956625" lon="8.016350451213698"><ele>574.3333333333334</ele><time>2026-05-01T16:59:25Z</time></trkpt><trkpt lat="45.582816132316154" lon="8.016163854020919"><ele>571.1666666666667</ele><time>2026-05-01T16:59:27Z</time></trkpt><trkpt lat="45.582798058018376" lon="8.016073898176874"><ele>568.0</ele><time>2026-05-01T16:59:28Z</time></trkpt><trkpt lat="45.58274509308628" lon="8.0159950957009"><ele>568.0</ele><time>2026-05-01T16:59:29Z</time></trkpt><trkpt lat="45.58269508299929" lon="8.015937899391258"><ele>568.0</ele><time>2026-05-01T16:59:30Z</time></trkpt><trkpt lat="45.58264206433287" lon="8.015877474243629"><ele>568.0</ele><time>2026-05-01T16:59:31Z</time></trkpt><trkpt lat="45.58258098590167" lon="8.015825208772455"><ele>568.0</ele><time>2026-05-01T16:59:32Z</time></trkpt><trkpt lat="45.58251988510082" lon="8.015781435625433"><ele>568.0</ele><time>2026-05-01T16:59:33Z</time></trkpt><trkpt lat="45.58246184885466" lon="8.015728639602333"><ele>568.0</ele><time>2026-05-01T16:59:34Z</time></trkpt><trkpt lat="45.582408554393375" lon="8.015665734482686"><ele>568.0</ele><time>2026-05-01T16:59:35Z</time></trkpt><trkpt lat="45.582370109614125" lon="8.015572725540231"><ele>568.1428571428571</ele><time>2026-05-01T16:59:36Z</time></trkpt><trkpt lat="45.58235007703192" lon="8.015466470996868"><ele>568.2857142857142</ele><time>2026-05-01T16:59:37Z</time></trkpt><trkpt lat="45.58235100052896" lon="8.0153642557723"><ele>568.4285714285714</ele><time>2026-05-01T16:59:38Z</time></trkpt><trkpt lat="45.58236139288869" lon="8.015267913878876"><ele>568.5714285714286</ele><time>2026-05-01T16:59:39Z</time></trkpt><trkpt lat="45.582379036264" lon="8.015169184496434"><ele>568.7142857142858</ele><time>2026-05-01T16:59:40Z</time></trkpt><trkpt lat="45.58241162386213" lon="8.015081336583892"><ele>568.8571428571429</ele><time>2026-05-01T16:59:41Z</time></trkpt><trkpt lat="45.58242585497608" lon="8.014993116713141"><ele>569.0</ele><time>2026-05-01T16:59:42Z</time></trkpt><trkpt lat="45.582444320965855" lon="8.01490558941928"><ele>569.1428571428572</ele><time>2026-05-01T16:59:43Z</time></trkpt><trkpt lat="45.5824533923412" lon="8.014810559360143"><ele>569.2857142857143</ele><time>2026-05-01T16:59:44Z</time></trkpt><trkpt lat="45.58245488497358" lon="8.014715227105752"><ele>569.4285714285714</ele><time>2026-05-01T16:59:45Z</time></trkpt><trkpt lat="45.58246545843319" lon="8.014624907036412"><ele>569.5714285714287</ele><time>2026-05-01T16:59:46Z</time></trkpt><trkpt lat="45.582469141217715" lon="8.014533687717377"><ele>569.7142857142858</ele><time>2026-05-01T16:59:47Z</time></trkpt><trkpt lat="45.58247796820988" lon="8.014443579205313"><ele>569.8571428571429</ele><time>2026-05-01T16:59:48Z</time></trkpt><trkpt lat="45.58248722292081" lon="8.01426926974784"><ele>570.0</ele><time>2026-05-01T16:59:50Z</time></trkpt><trkpt lat="45.58249475008292" lon="8.014108088001052"><ele>571.0</ele><time>2026-05-01T16:59:52Z</time></trkpt><trkpt lat="45.58249943136559" lon="8.013960505319044"><ele>572.0</ele><time>2026-05-01T16:59:54Z</time></trkpt><trkpt lat="45.58248562075462" lon="8.01381064505015"><ele>573.0</ele><time>2026-05-01T16:59:56Z</time></trkpt><trkpt lat="45.58246681654436" lon="8.013663637509845"><ele>574.0</ele><time>2026-05-01T16:59:58Z</time></trkpt><trkpt lat="45.58243054019113" lon="8.013519491226159"><ele>575.0</ele><time>2026-05-01T17:00:00Z</time></trkpt><trkpt lat="45.58238628140957" lon="8.01338386490643"><ele>575.6</ele><time>2026-05-01T17:00:02Z</time></trkpt><trkpt lat="45.58235527742773" lon="8.013240915666785"><ele>576.2</ele><time>2026-05-01T17:00:04Z</time></trkpt><trkpt lat="45.58233614019865" lon="8.013096781895062"><ele>576.8</ele><time>2026-05-01T17:00:06Z</time></trkpt><trkpt lat="45.58230731585731" lon="8.012947655056518"><ele>577.4</ele><time>2026-05-01T17:00:08Z</time></trkpt><trkpt lat="45.58226727718398" lon="8.012798416716958"><ele>578.0</ele><time>2026-05-01T17:00:10Z</time></trkpt><trkpt lat="45.58222898676923" lon="8.012660245643492"><ele>578.0</ele><time>2026-05-01T17:00:12Z</time></trkpt><trkpt lat="45.582194505610275" lon="8.012519898552114"><ele>578.0</ele><time>2026-05-01T17:00:14Z</time></trkpt><trkpt lat="45.58215751583455" lon="8.012371767596218"><ele>578.0</ele><time>2026-05-01T17:00:16Z</time></trkpt><trkpt lat="45.58213188357112" lon="8.012217613117135"><ele>578.0</ele><time>2026-05-01T17:00:18Z</time></trkpt><trkpt lat="45.582121591743274" lon="8.012065197449058"><ele>578.0</ele><time>2026-05-01T17:00:20Z</time></trkpt><trkpt lat="45.582120812882145" lon="8.01192295261781"><ele>578.0</ele><time>2026-05-01T17:00:22Z</time></trkpt><trkpt lat="45.582120266750614" lon="8.01179654481017"><ele>578.0</ele><time>2026-05-01T17:00:24Z</time></trkpt><trkpt lat="45.5821198620332" lon="8.011653807162945"><ele>578.0</ele><time>2026-05-01T17:00:26Z</time></trkpt><trkpt lat="45.58211775009897" lon="8.01152668821382"><ele>578.0</ele><time>2026-05-01T17:00:28Z</time></trkpt><trkpt lat="45.58211098673965" lon="8.011436106690738"><ele>578.0</ele><time>2026-05-01T17:00:29Z</time></trkpt><trkpt lat="45.58210631569097" lon="8.011249154424625"><ele>578.0</ele><time>2026-05-01T17:00:31Z</time></trkpt><trkpt lat="45.58215340451429" lon="8.011137686253957"><ele>578.0</ele><time>2026-05-01T17:00:32Z</time></trkpt><trkpt lat="45.582181257302295" lon="8.01105159726526"><ele>578.0</ele><time>2026-05-01T17:00:33Z</time></trkpt><trkpt lat="45.58218783479291" lon="8.010952148362476"><ele>578.0</ele><time>2026-05-01T17:00:34Z</time></trkpt><trkpt lat="45.582189652917194" lon="8.010841880225357"><ele>578.0</ele><time>2026-05-01T17:00:35Z</time></trkpt><trkpt lat="45.582199042909174" lon="8.010705407313294"><ele>578.0</ele><time>2026-05-01T17:00:36Z</time></trkpt><trkpt lat="45.582186516826" lon="8.010583700235724"><ele>576.6666666666666</ele><time>2026-05-01T17:00:37Z</time></trkpt><trkpt lat="45.58228302661952" lon="8.010455810505098"><ele>575.3333333333333</ele><time>2026-05-01T17:00:38Z</time></trkpt><trkpt lat="45.58233385369317" lon="8.01038748623745"><ele>574.0</ele><time>2026-05-01T17:00:39Z</time></trkpt><trkpt lat="45.582389362550614" lon="8.010341443532251"><ele>572.6666666666666</ele><time>2026-05-01T17:00:40Z</time></trkpt><trkpt lat="45.582441585251175" lon="8.010278869853972"><ele>571.3333333333334</ele><time>2026-05-01T17:00:41Z</time></trkpt><trkpt lat="45.582493002198795" lon="8.010211163315091"><ele>570.0</ele><time>2026-05-01T17:00:42Z</time></trkpt><trkpt lat="45.58257728960869" lon="8.010103242538612"><ele>570.0</ele><time>2026-05-01T17:00:44Z</time></trkpt><trkpt lat="45.58263773539676" lon="8.010069393520713"><ele>570.0</ele><time>2026-05-01T17:00:45Z</time></trkpt><trkpt lat="45.582699364481286" lon="8.01004240358297"><ele>570.0</ele><time>2026-05-01T17:00:46Z</time></trkpt><trkpt lat="45.58276817168779" lon="8.010027910124485"><ele>570.0</ele><time>2026-05-01T17:00:47Z</time></trkpt><trkpt lat="45.582834280330935" lon="8.010013735063847"><ele>570.0</ele><time>2026-05-01T17:00:48Z</time></trkpt><trkpt lat="45.58289433701464" lon="8.009979583042396"><ele>570.0</ele><time>2026-05-01T17:00:49Z</time></trkpt><trkpt lat="45.58293864042026" lon="8.009910813068648"><ele>570.0</ele><time>2026-05-01T17:00:50Z</time></trkpt><trkpt lat="45.58296776209695" lon="8.009823975766498"><ele>571.4285714285714</ele><time>2026-05-01T17:00:51Z</time></trkpt><trkpt lat="45.58295999405948" lon="8.009711472827066"><ele>572.8571428571429</ele><time>2026-05-01T17:00:52Z</time></trkpt><trkpt lat="45.58296251451558" lon="8.009614761168127"><ele>574.2857142857143</ele><time>2026-05-01T17:00:53Z</time></trkpt><trkpt lat="45.58296891286621" lon="8.009520940840957"><ele>575.7142857142858</ele><time>2026-05-01T17:00:54Z</time></trkpt><trkpt lat="45.58298313254908" lon="8.00942150892153"><ele>577.1428571428572</ele><time>2026-05-01T17:00:55Z</time></trkpt><trkpt lat="45.582992946955386" lon="8.009323052520923"><ele>578.5714285714286</ele><time>2026-05-01T17:00:56Z</time></trkpt><trkpt lat="45.582995663380416" lon="8.009221174500764"><ele>580.0</ele><time>2026-05-01T17:00:57Z</time></trkpt><trkpt lat="45.583012882735225" lon="8.009130204140332"><ele>580.0</ele><time>2026-05-01T17:00:58Z</time></trkpt><trkpt lat="45.58303809200897" lon="8.008949207828962"><ele>580.0</ele><time>2026-05-01T17:01:00Z</time></trkpt><trkpt lat="45.58303414741328" lon="8.008857123350984"><ele>580.0</ele><time>2026-05-01T17:01:01Z</time></trkpt><trkpt lat="45.583007821624086" lon="8.008765818171392"><ele>580.0</ele><time>2026-05-01T17:01:02Z</time></trkpt><trkpt lat="45.582942362342024" lon="8.008679858676057"><ele>580.0</ele><time>2026-05-01T17:01:03Z</time></trkpt><trkpt lat="45.58284861747123" lon="8.008577560382575"><ele>578.6</ele><time>2026-05-01T17:01:05Z</time></trkpt><trkpt lat="45.58280494940747" lon="8.008503200362812"><ele>577.2</ele><time>2026-05-01T17:01:06Z</time></trkpt><trkpt lat="45.5827220623196" lon="8.008376130396362"><ele>575.8</ele><time>2026-05-01T17:01:08Z</time></trkpt><trkpt lat="45.582653830447406" lon="8.008243535753799"><ele>574.4</ele><time>2026-05-01T17:01:10Z</time></trkpt><trkpt lat="45.582578677032004" lon="8.008116484877853"><ele>573.0</ele><time>2026-05-01T17:01:12Z</time></trkpt><trkpt lat="45.58254127809215" lon="8.008040470453482"><ele>573.0</ele><time>2026-05-01T17:01:13Z</time></trkpt><trkpt lat="45.58246515129846" lon="8.00789860727828"><ele>573.0</ele><time>2026-05-01T17:01:15Z</time></trkpt><trkpt lat="45.58237964714656" lon="8.00776456639647"><ele>573.0</ele><time>2026-05-01T17:01:17Z</time></trkpt><trkpt lat="45.58233301107834" lon="8.007690615245918"><ele>573.0</ele><time>2026-05-01T17:01:18Z</time></trkpt><trkpt lat="45.58227898372997" lon="8.007613556037096"><ele>573.0</ele><time>2026-05-01T17:01:19Z</time></trkpt><trkpt lat="45.582230636581826" lon="8.007524628291572"><ele>573.0</ele><time>2026-05-01T17:01:20Z</time></trkpt><trkpt lat="45.5821786483209" lon="8.007432079558747"><ele>573.0</ele><time>2026-05-01T17:01:21Z</time></trkpt><trkpt lat="45.58212717157108" lon="8.007335094576163"><ele>573.0</ele><time>2026-05-01T17:01:22Z</time></trkpt><trkpt lat="45.58206550697014" lon="8.007236505064045"><ele>573.0</ele><time>2026-05-01T17:01:23Z</time></trkpt><trkpt lat="45.582002654031264" lon="8.00713940975469"><ele>573.0</ele><time>2026-05-01T17:01:24Z</time></trkpt><trkpt lat="45.58195850153024" lon="8.007042818978631"><ele>573.0</ele><time>2026-05-01T17:01:25Z</time></trkpt><trkpt lat="45.58190726031747" lon="8.006943395509193"><ele>572.2857142857143</ele><time>2026-05-01T17:01:27Z</time></trkpt><trkpt lat="45.58185031116912" lon="8.00687818615822"><ele>571.5714285714287</ele><time>2026-05-01T17:01:30Z</time></trkpt><trkpt lat="45.58179117407441" lon="8.006835762112102"><ele>570.8571428571429</ele><time>2026-05-01T17:01:32Z</time></trkpt><trkpt lat="45.5817318808786" lon="8.006760919555072"><ele>570.1428571428571</ele><time>2026-05-01T17:01:34Z</time></trkpt><trkpt lat="45.58166200908934" lon="8.006733569372551"><ele>569.4285714285713</ele><time>2026-05-01T17:01:36Z</time></trkpt><trkpt lat="45.58159248600972" lon="8.006749167521855"><ele>568.7142857142857</ele><time>2026-05-01T17:01:38Z</time></trkpt><trkpt lat="45.58153078425001" lon="8.006770289627614"><ele>568.0</ele><time>2026-05-01T17:01:40Z</time></trkpt><trkpt lat="45.581471762148" lon="8.006808841162007"><ele>568.0</ele><time>2026-05-01T17:01:42Z</time></trkpt><trkpt lat="45.58140822625127" lon="8.006844913223865"><ele>568.0</ele><time>2026-05-01T17:01:45Z</time></trkpt><trkpt lat="45.58149719249496" lon="8.006847421161302"><ele>568.0</ele><time>2026-05-01T17:01:48Z</time></trkpt><trkpt lat="45.58157105817111" lon="8.006731233050088"><ele>568.0</ele><time>2026-05-01T17:01:50Z</time></trkpt><trkpt lat="45.5816351390342" lon="8.006636145519941"><ele>568.0</ele><time>2026-05-01T17:01:53Z</time></trkpt><trkpt lat="45.58167609289197" lon="8.006562619192236"><ele>568.0</ele><time>2026-05-01T17:01:55Z</time></trkpt><trkpt lat="45.58173260718044" lon="8.006496553829013"><ele>569.3333333333334</ele><time>2026-05-01T17:01:58Z</time></trkpt><trkpt lat="45.58179514962322" lon="8.00644052952777"><ele>570.6666666666667</ele><time>2026-05-01T17:02:01Z</time></trkpt><trkpt lat="45.58184521295064" lon="8.00638126514693"><ele>572.0</ele><time>2026-05-01T17:02:04Z</time></trkpt><trkpt lat="45.5819934264791" lon="8.006341432106755"><ele>573.3333333333334</ele><time>2026-05-01T17:02:10Z</time></trkpt><trkpt lat="45.58205073687118" lon="8.006297359032752"><ele>574.6666666666666</ele><time>2026-05-01T17:02:13Z</time></trkpt><trkpt lat="45.582072754354144" lon="8.006203200769834"><ele>576.0</ele><time>2026-05-01T17:02:16Z</time></trkpt><trkpt lat="45.5820714737986" lon="8.00610637301316"><ele>576.1666666666666</ele><time>2026-05-01T17:02:20Z</time></trkpt><trkpt lat="45.58207437225159" lon="8.006007761229748"><ele>576.3333333333334</ele><time>2026-05-01T17:02:24Z</time></trkpt><trkpt lat="45.58212047058255" lon="8.005901465681568"><ele>576.5</ele><time>2026-05-01T17:02:28Z</time></trkpt><trkpt lat="45.582174218534476" lon="8.00580794157773"><ele>576.6666666666667</ele><time>2026-05-01T17:02:32Z</time></trkpt><trkpt lat="45.58222839135832" lon="8.00573998986465"><ele>576.8333333333334</ele><time>2026-05-01T17:02:35Z</time></trkpt><trkpt lat="45.582270032590166" lon="8.005640030714856"><ele>577.0</ele><time>2026-05-01T17:02:39Z</time></trkpt><trkpt lat="45.58231093092322" lon="8.005560308955562"><ele>578.1666666666667</ele><time>2026-05-01T17:02:42Z</time></trkpt><trkpt lat="45.58235476870982" lon="8.005463505526272"><ele>579.3333333333334</ele><time>2026-05-01T17:02:46Z</time></trkpt><trkpt lat="45.58241476879026" lon="8.005372066775246"><ele>580.5</ele><time>2026-05-01T17:02:50Z</time></trkpt><trkpt lat="45.582465464752126" lon="8.005276452353337"><ele>581.6666666666666</ele><time>2026-05-01T17:02:54Z</time></trkpt><trkpt lat="45.58251460309473" lon="8.00517978724312"><ele>582.8333333333333</ele><time>2026-05-01T17:02:58Z</time></trkpt><trkpt lat="45.582563524489146" lon="8.005110066746894"><ele>584.0</ele><time>2026-05-01T17:03:01Z</time></trkpt><trkpt lat="45.58259350843723" lon="8.005015806279415"><ele>585.1428571428571</ele><time>2026-05-01T17:03:05Z</time></trkpt><trkpt lat="45.58262809117917" lon="8.004933694885855"><ele>586.2857142857143</ele><time>2026-05-01T17:03:08Z</time></trkpt><trkpt lat="45.582661034318114" lon="8.004855503586143"><ele>587.4285714285714</ele><time>2026-05-01T17:03:11Z</time></trkpt><trkpt lat="45.582704653303864" lon="8.004789593489141"><ele>588.5714285714286</ele><time>2026-05-01T17:03:14Z</time></trkpt><trkpt lat="45.58274706057603" lon="8.004718165990873"><ele>589.7142857142857</ele><time>2026-05-01T17:03:17Z</time></trkpt><trkpt lat="45.582777747227865" lon="8.00461544744591"><ele>590.8571428571429</ele><time>2026-05-01T17:03:21Z</time></trkpt><trkpt lat="45.58284659339882" lon="8.004560909581373"><ele>592.0</ele><time>2026-05-01T17:05:14Z</time></trkpt><trkpt lat="45.58289354039921" lon="8.004460579315538"><ele>592.2857142857143</ele><time>2026-05-01T17:05:18Z</time></trkpt><trkpt lat="45.58296101022572" lon="8.00439674455482"><ele>592.5714285714286</ele><time>2026-05-01T17:05:22Z</time></trkpt><trkpt lat="45.583008405109794" lon="8.004325914124603"><ele>592.8571428571429</ele><time>2026-05-01T17:05:25Z</time></trkpt><trkpt lat="45.583047980093106" lon="8.004241829551736"><ele>593.1428571428571</ele><time>2026-05-01T17:05:28Z</time></trkpt><trkpt lat="45.58310449414835" lon="8.004188820908622"><ele>593.4285714285714</ele><time>2026-05-01T17:05:31Z</time></trkpt><trkpt lat="45.583150925114104" lon="8.004090905636074"><ele>593.7142857142858</ele><time>2026-05-01T17:05:34Z</time></trkpt><trkpt lat="45.58320396203337" lon="8.004011061509344"><ele>594.0</ele><time>2026-05-01T17:05:38Z</time></trkpt><trkpt lat="45.583222592788715" lon="8.003914906565655"><ele>595.5</ele><time>2026-05-01T17:05:41Z</time></trkpt><trkpt lat="45.58322863370418" lon="8.00381957588054"><ele>597.0</ele><time>2026-05-01T17:05:44Z</time></trkpt><trkpt lat="45.583248811281294" lon="8.003708050274177"><ele>598.5</ele><time>2026-05-01T17:05:47Z</time></trkpt><trkpt lat="45.583275823999024" lon="8.003585785500537"><ele>600.0</ele><time>2026-05-01T17:05:50Z</time></trkpt><trkpt lat="45.58329240403329" lon="8.003485189132652"><ele>601.5</ele><time>2026-05-01T17:05:53Z</time></trkpt><trkpt lat="45.583338792123804" lon="8.003390261608436"><ele>603.0</ele><time>2026-05-01T17:05:56Z</time></trkpt><trkpt lat="45.583393048811665" lon="8.003314508001656"><ele>604.0</ele><time>2026-05-01T17:05:59Z</time></trkpt><trkpt lat="45.58343787658519" lon="8.003239561645847"><ele>605.0</ele><time>2026-05-01T17:06:02Z</time></trkpt><trkpt lat="45.583476125438196" lon="8.003144755878884"><ele>606.0</ele><time>2026-05-01T17:06:05Z</time></trkpt><trkpt lat="45.58349672796785" lon="8.003042751503893"><ele>607.0</ele><time>2026-05-01T17:06:08Z</time></trkpt><trkpt lat="45.58354060853275" lon="8.002928536954741"><ele>608.0</ele><time>2026-05-01T17:06:12Z</time></trkpt><trkpt lat="45.583577285535746" lon="8.002830480393808"><ele>609.0</ele><time>2026-05-01T17:06:16Z</time></trkpt><trkpt lat="45.583513108365324" lon="8.002797378491783"><ele>609.0</ele><time>2026-05-01T17:06:20Z</time></trkpt><trkpt lat="45.58347114130555" lon="8.00272696506259"><ele>609.0</ele><time>2026-05-01T17:06:23Z</time></trkpt><trkpt lat="45.583403055808915" lon="8.002676407305387"><ele>609.0</ele><time>2026-05-01T17:06:26Z</time></trkpt><trkpt lat="45.583348746047584" lon="8.002610181472225"><ele>609.0</ele><time>2026-05-01T17:06:30Z</time></trkpt><trkpt lat="45.583292951365586" lon="8.002532383319803"><ele>609.0</ele><time>2026-05-01T17:06:34Z</time></trkpt><trkpt lat="45.58322572902612" lon="8.002457527841017"><ele>609.0</ele><time>2026-05-01T17:06:37Z</time></trkpt><trkpt lat="45.58316185576293" lon="8.002335956784165"><ele>610.0</ele><time>2026-05-01T17:06:40Z</time></trkpt><trkpt lat="45.58309160541259" lon="8.002246502766313"><ele>611.0</ele><time>2026-05-01T17:06:43Z</time></trkpt><trkpt lat="45.5830493672083" lon="8.002153499494725"><ele>612.0</ele><time>2026-05-01T17:06:46Z</time></trkpt><trkpt lat="45.58300306232737" lon="8.002071339710838"><ele>613.0</ele><time>2026-05-01T17:06:49Z</time></trkpt><trkpt lat="45.5829669513178" lon="8.001964214096155"><ele>614.0</ele><time>2026-05-01T17:06:53Z</time></trkpt><trkpt lat="45.583029903201464" lon="8.00187910520312"><ele>615.0</ele><time>2026-05-01T17:06:56Z</time></trkpt><trkpt lat="45.58308736735208" lon="8.001813817364885"><ele>615.0</ele><time>2026-05-01T17:06:59Z</time></trkpt><trkpt lat="45.583145246434576" lon="8.001740107052768"><ele>615.0</ele><time>2026-05-01T17:07:02Z</time></trkpt><trkpt lat="45.58318755222188" lon="8.001640345333007"><ele>615.0</ele><time>2026-05-01T17:07:06Z</time></trkpt><trkpt lat="45.58325589443972" lon="8.001571422040866"><ele>615.0</ele><time>2026-05-01T17:07:10Z</time></trkpt><trkpt lat="45.583314702233814" lon="8.0015056705791"><ele>615.0</ele><time>2026-05-01T17:07:13Z</time></trkpt><trkpt lat="45.58337111756135" lon="8.001439419960834"><ele>615.0</ele><time>2026-05-01T17:07:16Z</time></trkpt><trkpt lat="45.583431369861565" lon="8.001366125548342"><ele>615.8571428571428</ele><time>2026-05-01T17:07:19Z</time></trkpt><trkpt lat="45.58345780927157" lon="8.001275338611434"><ele>616.7142857142858</ele><time>2026-05-01T17:07:22Z</time></trkpt><trkpt lat="45.58351224937183" lon="8.001204451610343"><ele>617.5714285714286</ele><time>2026-05-01T17:07:25Z</time></trkpt><trkpt lat="45.583563562634396" lon="8.001131906112485"><ele>618.4285714285713</ele><time>2026-05-01T17:07:30Z</time></trkpt><trkpt lat="45.583627384872536" lon="8.0011595731354"><ele>619.2857142857142</ele><time>2026-05-01T17:07:32Z</time></trkpt><trkpt lat="45.58369810084744" lon="8.001216903502598"><ele>620.1428571428571</ele><time>2026-05-01T17:07:35Z</time></trkpt><trkpt lat="45.58373970881287" lon="8.00132206681455"><ele>621.0</ele><time>2026-05-01T17:07:39Z</time></trkpt><trkpt lat="45.58380211559361" lon="8.001390054822169"><ele>621.8333333333334</ele><time>2026-05-01T17:07:43Z</time></trkpt><trkpt lat="45.58386291710809" lon="8.001464226229901"><ele>622.6666666666666</ele><time>2026-05-01T17:07:46Z</time></trkpt><trkpt lat="45.583920015853195" lon="8.001525603325153"><ele>623.5</ele><time>2026-05-01T17:07:49Z</time></trkpt><trkpt lat="45.58392936205553" lon="8.001655511943616"><ele>624.3333333333333</ele><time>2026-05-01T17:07:54Z</time></trkpt><trkpt lat="45.58385820004848" lon="8.00162259772516"><ele>625.1666666666666</ele><time>2026-05-01T17:08:05Z</time></trkpt><trkpt lat="45.583801459826994" lon="8.001559309815406"><ele>626.0</ele><time>2026-05-01T17:08:12Z</time></trkpt><trkpt lat="45.583890246584026" lon="8.001545020895122"><ele>626.0</ele><time>2026-05-01T17:08:17Z</time></trkpt><trkpt lat="45.58394672164344" lon="8.001489691191844"><ele>626.0</ele><time>2026-05-01T17:08:19Z</time></trkpt><trkpt lat="45.583974387551706" lon="8.001385940548744"><ele>626.0</ele><time>2026-05-01T17:08:22Z</time></trkpt><trkpt lat="45.58400366249428" lon="8.001301310781441"><ele>626.0</ele><time>2026-05-01T17:08:25Z</time></trkpt><trkpt lat="45.58405942288089" lon="8.001209397469841"><ele>626.0</ele><time>2026-05-01T17:08:29Z</time></trkpt><trkpt lat="45.584092912778395" lon="8.001130756560023"><ele>626.0</ele><time>2026-05-01T17:08:32Z</time></trkpt><trkpt lat="45.58414084982309" lon="8.001039396184396"><ele>626.0</ele><time>2026-05-01T17:08:36Z</time></trkpt><trkpt lat="45.58417871801771" lon="8.000962192662652"><ele>626.0</ele><time>2026-05-01T17:08:39Z</time></trkpt><trkpt lat="45.58423658990102" lon="8.000878440218733"><ele>626.0</ele><time>2026-05-01T17:08:43Z</time></trkpt><trkpt lat="45.58429761297633" lon="8.00079751572369"><ele>626.0</ele><time>2026-05-01T17:08:47Z</time></trkpt><trkpt lat="45.584338667126296" lon="8.000720658476506"><ele>626.0</ele><time>2026-05-01T17:08:50Z</time></trkpt><trkpt lat="45.58438240580759" lon="8.000622133788848"><ele>626.0</ele><time>2026-05-01T17:08:54Z</time></trkpt><trkpt lat="45.58441782630595" lon="8.00054109396861"><ele>626.0</ele><time>2026-05-01T17:08:57Z</time></trkpt><trkpt lat="45.58445352764707" lon="8.000464420020206"><ele>626.0</ele><time>2026-05-01T17:09:00Z</time></trkpt><trkpt lat="45.58448529036009" lon="8.000381942251373"><ele>627.0</ele><time>2026-05-01T17:09:03Z</time></trkpt><trkpt lat="45.58450387950353" lon="8.000270706832628"><ele>628.0</ele><time>2026-05-01T17:09:07Z</time></trkpt><trkpt lat="45.58444685170473" lon="8.000181642859078"><ele>629.0</ele><time>2026-05-01T17:10:07Z</time></trkpt><trkpt lat="45.584411113518925" lon="8.000102934936086"><ele>630.0</ele><time>2026-05-01T17:10:10Z</time></trkpt><trkpt lat="45.584431391934665" lon="7.999977955035208"><ele>631.0</ele><time>2026-05-01T17:10:13Z</time></trkpt><trkpt lat="45.58446331492139" lon="7.999873342007603"><ele>632.0</ele><time>2026-05-01T17:10:16Z</time></trkpt><trkpt lat="45.58449616403444" lon="7.9997907760215945"><ele>633.0000000000001</ele><time>2026-05-01T17:10:19Z</time></trkpt><trkpt lat="45.58454450735001" lon="7.999704217108766"><ele>634.0</ele><time>2026-05-01T17:10:22Z</time></trkpt><trkpt lat="45.58458430288331" lon="7.999616882852089"><ele>635.0</ele><time>2026-05-01T17:10:25Z</time></trkpt><trkpt lat="45.5846224882794" lon="7.999534755891407"><ele>636.0</ele><time>2026-05-01T17:10:28Z</time></trkpt><trkpt lat="45.584642529383316" lon="7.9994351682613445"><ele>637.0</ele><time>2026-05-01T17:10:31Z</time></trkpt><trkpt lat="45.58463338042961" lon="7.999316323387969"><ele>638.0000000000001</ele><time>2026-05-01T17:10:35Z</time></trkpt><trkpt lat="45.58462308872112" lon="7.999212673789266"><ele>639.0</ele><time>2026-05-01T17:10:39Z</time></trkpt><trkpt lat="45.584673237139846" lon="7.999123929866525"><ele>640.0000000000001</ele><time>2026-05-01T17:10:42Z</time></trkpt><trkpt lat="45.58471932449352" lon="7.999041763066855"><ele>641.0</ele><time>2026-05-01T17:10:47Z</time></trkpt><trkpt lat="45.584777126812185" lon="7.9989869875243595"><ele>642.0</ele><time>2026-05-01T17:10:50Z</time></trkpt><trkpt lat="45.584821803466134" lon="7.998917644481489"><ele>643.0</ele><time>2026-05-01T17:10:53Z</time></trkpt><trkpt lat="45.58488336495109" lon="7.998883341114736"><ele>644.0</ele><time>2026-05-01T17:10:56Z</time></trkpt><trkpt lat="45.58493784692318" lon="7.998803316230296"><ele>645.0000000000001</ele><time>2026-05-01T17:11:00Z</time></trkpt><trkpt lat="45.58499737025019" lon="7.998765766022762"><ele>646.0</ele><time>2026-05-01T17:11:04Z</time></trkpt><trkpt lat="45.58508272038203" lon="7.998751659157346"><ele>646.0</ele><time>2026-05-01T17:11:08Z</time></trkpt><trkpt lat="45.585164785093575" lon="7.998781717777121"><ele>646.0</ele><time>2026-05-01T17:11:12Z</time></trkpt><trkpt lat="45.58524827832704" lon="7.9987939133788695"><ele>646.0</ele><time>2026-05-01T17:11:16Z</time></trkpt><trkpt lat="45.58532020469107" lon="7.998801804848263"><ele>646.0</ele><time>2026-05-01T17:11:20Z</time></trkpt><trkpt lat="45.58538723574959" lon="7.998842098971241"><ele>646.0</ele><time>2026-05-01T17:11:24Z</time></trkpt><trkpt lat="45.5854621092111" lon="7.9988480230934424"><ele>646.0</ele><time>2026-05-01T17:11:28Z</time></trkpt><trkpt lat="45.585519422206545" lon="7.9988036175160095"><ele>647.1428571428572</ele><time>2026-05-01T17:11:32Z</time></trkpt><trkpt lat="45.5855903607845" lon="7.998779449277538"><ele>648.2857142857143</ele><time>2026-05-01T17:11:36Z</time></trkpt><trkpt lat="45.585665038969125" lon="7.998803174687076"><ele>649.4285714285714</ele><time>2026-05-01T17:11:40Z</time></trkpt><trkpt lat="45.5857337317825" lon="7.998833229982624"><ele>650.5714285714287</ele><time>2026-05-01T17:11:44Z</time></trkpt><trkpt lat="45.585799772973616" lon="7.99886928050025"><ele>651.7142857142858</ele><time>2026-05-01T17:11:48Z</time></trkpt><trkpt lat="45.58586657848027" lon="7.998869284266966"><ele>652.8571428571429</ele><time>2026-05-01T17:11:52Z</time></trkpt><trkpt lat="45.58592337359904" lon="7.998819248420703"><ele>654.0</ele><time>2026-05-01T17:11:56Z</time></trkpt><trkpt lat="45.585987345219344" lon="7.998772527104363"><ele>654.0</ele><time>2026-05-01T17:12:00Z</time></trkpt><trkpt lat="45.58605032952044" lon="7.998709567682898"><ele>654.0</ele><time>2026-05-01T17:12:04Z</time></trkpt><trkpt lat="45.586101194456134" lon="7.998632495439007"><ele>654.0</ele><time>2026-05-01T17:12:08Z</time></trkpt><trkpt lat="45.58615000006431" lon="7.998544699299682"><ele>654.0</ele><time>2026-05-01T17:12:12Z</time></trkpt><trkpt lat="45.586188750960396" lon="7.9984503515842125"><ele>654.0</ele><time>2026-05-01T17:12:16Z</time></trkpt><trkpt lat="45.58622927024349" lon="7.998359337044725"><ele>654.0</ele><time>2026-05-01T17:12:20Z</time></trkpt><trkpt lat="45.5862595024998" lon="7.99827844253996"><ele>654.0</ele><time>2026-05-01T17:12:24Z</time></trkpt><trkpt lat="45.586294694145494" lon="7.998197364968447"><ele>655.4285714285714</ele><time>2026-05-01T17:12:28Z</time></trkpt><trkpt lat="45.586355631166754" lon="7.998134493524043"><ele>656.8571428571429</ele><time>2026-05-01T17:12:33Z</time></trkpt><trkpt lat="45.58641233922824" lon="7.9980561639267735"><ele>658.2857142857142</ele><time>2026-05-01T17:12:38Z</time></trkpt><trkpt lat="45.58645913857374" lon="7.9979922162343"><ele>659.7142857142858</ele><time>2026-05-01T17:12:42Z</time></trkpt><trkpt lat="45.586508760704206" lon="7.997922337032958"><ele>661.1428571428572</ele><time>2026-05-01T17:12:46Z</time></trkpt><trkpt lat="45.5865562955694" lon="7.997853269268235"><ele>662.5714285714286</ele><time>2026-05-01T17:12:50Z</time></trkpt><trkpt lat="45.586595456643316" lon="7.997772588684352"><ele>664.0</ele><time>2026-05-01T17:12:55Z</time></trkpt><trkpt lat="45.586630223395204" lon="7.997689356585999"><ele>664.0</ele><time>2026-05-01T17:13:01Z</time></trkpt><trkpt lat="45.58663985919858" lon="7.99757800966384"><ele>664.0</ele><time>2026-05-01T17:13:07Z</time></trkpt><trkpt lat="45.58660009566807" lon="7.997489516466363"><ele>664.0</ele><time>2026-05-01T17:13:11Z</time></trkpt><trkpt lat="45.58656545634741" lon="7.997386909133705"><ele>664.0</ele><time>2026-05-01T17:13:16Z</time></trkpt><trkpt lat="45.586545938375735" lon="7.997298813037328"><ele>664.0</ele><time>2026-05-01T17:13:20Z</time></trkpt><trkpt lat="45.58648825573056" lon="7.997232034681524"><ele>664.0</ele><time>2026-05-01T17:13:25Z</time></trkpt><trkpt lat="45.58642744023053" lon="7.997169127060781"><ele>664.0</ele><time>2026-05-01T17:13:30Z</time></trkpt><trkpt lat="45.586374395822475" lon="7.997117835474777"><ele>664.2857142857142</ele><time>2026-05-01T17:13:34Z</time></trkpt><trkpt lat="45.58631629359979" lon="7.99706420186573"><ele>664.5714285714287</ele><time>2026-05-01T17:13:38Z</time></trkpt><trkpt lat="45.58626550772941" lon="7.99699464598782"><ele>664.8571428571429</ele><time>2026-05-01T17:13:42Z</time></trkpt><trkpt lat="45.586217990369725" lon="7.996913678886489"><ele>665.1428571428571</ele><time>2026-05-01T17:13:46Z</time></trkpt><trkpt lat="45.586163874700624" lon="7.996842935571872"><ele>665.4285714285713</ele><time>2026-05-01T17:13:50Z</time></trkpt><trkpt lat="45.58612158758299" lon="7.996754671435651"><ele>665.7142857142858</ele><time>2026-05-01T17:13:54Z</time></trkpt><trkpt lat="45.58609670261383" lon="7.996655076082855"><ele>666.0</ele><time>2026-05-01T17:13:58Z</time></trkpt><trkpt lat="45.586074043078135" lon="7.996547950230694"><ele>667.8571428571429</ele><time>2026-05-01T17:14:02Z</time></trkpt><trkpt lat="45.586048120128616" lon="7.996440725351241"><ele>669.7142857142857</ele><time>2026-05-01T17:14:06Z</time></trkpt><trkpt lat="45.586025721025" lon="7.996347897631324"><ele>671.5714285714286</ele><time>2026-05-01T17:14:10Z</time></trkpt><trkpt lat="45.586016332391566" lon="7.9962531294209205"><ele>673.4285714285714</ele><time>2026-05-01T17:14:14Z</time></trkpt><trkpt lat="45.586018894489584" lon="7.996157064118987"><ele>675.2857142857142</ele><time>2026-05-01T17:14:18Z</time></trkpt><trkpt lat="45.586050266512736" lon="7.996066210366824"><ele>677.1428571428571</ele><time>2026-05-01T17:14:22Z</time></trkpt><trkpt lat="45.58610494166256" lon="7.996005152274954"><ele>679.0</ele><time>2026-05-01T17:14:26Z</time></trkpt><trkpt lat="45.58616319326686" lon="7.99594782778811"><ele>680.0</ele><time>2026-05-01T17:14:30Z</time></trkpt><trkpt lat="45.586234436798605" lon="7.995893767111868"><ele>681.0</ele><time>2026-05-01T17:14:35Z</time></trkpt><trkpt lat="45.58629144178269" lon="7.9958541367373135"><ele>682.0</ele><time>2026-05-01T17:14:39Z</time></trkpt><trkpt lat="45.586346410178066" lon="7.995777648317845"><ele>683.0</ele><time>2026-05-01T17:14:44Z</time></trkpt><trkpt lat="45.58639222990711" lon="7.995693632025664"><ele>684.0</ele><time>2026-05-01T17:14:49Z</time></trkpt><trkpt lat="45.586433183996796" lon="7.99560344688505"><ele>685.0</ele><time>2026-05-01T17:14:54Z</time></trkpt><trkpt lat="45.58644468837459" lon="7.995508571642814"><ele>686.0</ele><time>2026-05-01T17:15:00Z</time></trkpt><trkpt lat="45.58638010511374" lon="7.995489995341565"><ele>686.5714285714286</ele><time>2026-05-01T17:15:35Z</time></trkpt><trkpt lat="45.58631452389437" lon="7.995461914867053"><ele>687.1428571428571</ele><time>2026-05-01T17:15:38Z</time></trkpt><trkpt lat="45.58625306582288" lon="7.9954418229856765"><ele>687.7142857142858</ele><time>2026-05-01T17:15:41Z</time></trkpt><trkpt lat="45.58619089487959" lon="7.995418164377336"><ele>688.2857142857142</ele><time>2026-05-01T17:15:44Z</time></trkpt><trkpt lat="45.58612693585915" lon="7.995400470641189"><ele>688.8571428571429</ele><time>2026-05-01T17:15:47Z</time></trkpt><trkpt lat="45.58604017270614" lon="7.99537399018811"><ele>689.4285714285714</ele><time>2026-05-01T17:15:50Z</time></trkpt><trkpt lat="45.585946538645885" lon="7.995355002808937"><ele>690.0</ele><time>2026-05-01T17:15:53Z</time></trkpt><trkpt lat="45.58588024932808" lon="7.995314806820367"><ele>690.0</ele><time>2026-05-01T17:15:55Z</time></trkpt><trkpt lat="45.585801424295425" lon="7.995271924754165"><ele>690.0</ele><time>2026-05-01T17:15:58Z</time></trkpt><trkpt lat="45.58572792876008" lon="7.995190572840335"><ele>690.0</ele><time>2026-05-01T17:16:01Z</time></trkpt><trkpt lat="45.58567895047234" lon="7.995125247360845"><ele>690.0</ele><time>2026-05-01T17:16:03Z</time></trkpt><trkpt lat="45.58560818160583" lon="7.9950348530135775"><ele>690.0</ele><time>2026-05-01T17:16:06Z</time></trkpt><trkpt lat="45.585557497346734" lon="7.994969975646524"><ele>690.0</ele><time>2026-05-01T17:16:08Z</time></trkpt><trkpt lat="45.58550353940443" lon="7.994899974492946"><ele>690.5714285714286</ele><time>2026-05-01T17:16:10Z</time></trkpt><trkpt lat="45.5854411987191" lon="7.994842958619015"><ele>691.1428571428571</ele><time>2026-05-01T17:16:12Z</time></trkpt><trkpt lat="45.58538210895394" lon="7.994784444823535"><ele>691.7142857142858</ele><time>2026-05-01T17:16:14Z</time></trkpt><trkpt lat="45.58532892045671" lon="7.994715955690219"><ele>692.2857142857142</ele><time>2026-05-01T17:16:16Z</time></trkpt><trkpt lat="45.58527101860185" lon="7.994653229815289"><ele>692.8571428571428</ele><time>2026-05-01T17:16:18Z</time></trkpt><trkpt lat="45.585214914505016" lon="7.994590472128892"><ele>693.4285714285714</ele><time>2026-05-01T17:16:20Z</time></trkpt><trkpt lat="45.585159262975175" lon="7.9945334749074615"><ele>694.0</ele><time>2026-05-01T17:16:22Z</time></trkpt><trkpt lat="45.58510542822779" lon="7.994463307886006"><ele>694.0</ele><time>2026-05-01T17:16:24Z</time></trkpt><trkpt lat="45.58506090775664" lon="7.994382030372584"><ele>694.0</ele><time>2026-05-01T17:16:26Z</time></trkpt><trkpt lat="45.585010546565826" lon="7.994290054912512"><ele>694.0</ele><time>2026-05-01T17:16:28Z</time></trkpt><trkpt lat="45.58498514764876" lon="7.994200163945005"><ele>694.0</ele><time>2026-05-01T17:16:30Z</time></trkpt><trkpt lat="45.584967010797385" lon="7.994106790765112"><ele>694.0</ele><time>2026-05-01T17:16:32Z</time></trkpt><trkpt lat="45.584939932788586" lon="7.994023614413111"><ele>694.0</ele><time>2026-05-01T17:16:34Z</time></trkpt><trkpt lat="45.584889541344296" lon="7.993949466821361"><ele>694.0</ele><time>2026-05-01T17:17:16Z</time></trkpt><trkpt lat="45.58483914627445" lon="7.993891882517297"><ele>695.1428571428572</ele><time>2026-05-01T17:17:46Z</time></trkpt><trkpt lat="45.58478618112897" lon="7.993813101177636"><ele>696.2857142857142</ele><time>2026-05-01T17:17:55Z</time></trkpt><trkpt lat="45.58475051868043" lon="7.993715469840043"><ele>697.4285714285714</ele><time>2026-05-01T17:17:58Z</time></trkpt><trkpt lat="45.584741048108256" lon="7.993612721454117"><ele>698.5714285714287</ele><time>2026-05-01T17:18:01Z</time></trkpt><trkpt lat="45.58471855610919" lon="7.993523168724223"><ele>699.7142857142858</ele><time>2026-05-01T17:18:06Z</time></trkpt><trkpt lat="45.58472072923185" lon="7.993427889146578"><ele>700.8571428571429</ele><time>2026-05-01T17:18:11Z</time></trkpt><trkpt lat="45.58468744757066" lon="7.993335890592792"><ele>702.0</ele><time>2026-05-01T17:18:18Z</time></trkpt><trkpt lat="45.58469372338812" lon="7.993460530867405"><ele>702.0</ele><time>2026-05-01T17:19:08Z</time></trkpt><trkpt lat="45.58471311758169" lon="7.993574584438396"><ele>702.0</ele><time>2026-05-01T17:19:10Z</time></trkpt><trkpt lat="45.58465559067529" lon="7.993680788828129"><ele>702.0</ele><time>2026-05-01T17:19:12Z</time></trkpt><trkpt lat="45.584584596148346" lon="7.993745364975494"><ele>702.0</ele><time>2026-05-01T17:19:16Z</time></trkpt><trkpt lat="45.58455331826149" lon="7.993867605423393"><ele>702.0</ele><time>2026-05-01T17:19:18Z</time></trkpt><trkpt lat="45.58452457734415" lon="7.993996460291379"><ele>702.0</ele><time>2026-05-01T17:19:20Z</time></trkpt><trkpt lat="45.58454433839174" lon="7.994118766387538"><ele>700.8571428571429</ele><time>2026-05-01T17:19:23Z</time></trkpt><trkpt lat="45.584544052264526" lon="7.994212386084734"><ele>699.7142857142858</ele><time>2026-05-01T17:19:25Z</time></trkpt><trkpt lat="45.58453062178677" lon="7.994301496089646"><ele>698.5714285714287</ele><time>2026-05-01T17:19:28Z</time></trkpt><trkpt lat="45.584508925456575" lon="7.9944028489206165"><ele>697.4285714285714</ele><time>2026-05-01T17:19:31Z</time></trkpt><trkpt lat="45.58452058243923" lon="7.994493938067069"><ele>696.2857142857142</ele><time>2026-05-01T17:19:35Z</time></trkpt><trkpt lat="45.58450295311702" lon="7.994588403179528"><ele>695.1428571428572</ele><time>2026-05-01T17:19:37Z</time></trkpt><trkpt lat="45.58444093212895" lon="7.994710548011291"><ele>694.0</ele><time>2026-05-01T17:19:40Z</time></trkpt><trkpt lat="45.58437114124701" lon="7.994805762409647"><ele>693.3333333333334</ele><time>2026-05-01T17:19:42Z</time></trkpt><trkpt lat="45.584303860446695" lon="7.994862127312146"><ele>692.6666666666667</ele><time>2026-05-01T17:19:44Z</time></trkpt><trkpt lat="45.58424879910756" lon="7.994908042442398"><ele>692.0</ele><time>2026-05-01T17:19:46Z</time></trkpt><trkpt lat="45.58424261718645" lon="7.995011146272014"><ele>691.3333333333334</ele><time>2026-05-01T17:19:49Z</time></trkpt><trkpt lat="45.584333453024534" lon="7.995062640342959"><ele>690.6666666666666</ele><time>2026-05-01T17:19:51Z</time></trkpt><trkpt lat="45.58440914963608" lon="7.995064009050495"><ele>690.0</ele><time>2026-05-01T17:19:53Z</time></trkpt><trkpt lat="45.58447408962522" lon="7.995074632358725"><ele>688.6666666666666</ele><time>2026-05-01T17:19:55Z</time></trkpt><trkpt lat="45.58451037869033" lon="7.995180237505077"><ele>687.3333333333334</ele><time>2026-05-01T17:19:58Z</time></trkpt><trkpt lat="45.58448369712888" lon="7.995281297290243"><ele>686.0</ele><time>2026-05-01T17:20:00Z</time></trkpt><trkpt lat="45.58444024590915" lon="7.9953923648282945"><ele>684.6666666666667</ele><time>2026-05-01T17:20:03Z</time></trkpt><trkpt lat="45.584434674037034" lon="7.995507876524105"><ele>683.3333333333334</ele><time>2026-05-01T17:20:06Z</time></trkpt><trkpt lat="45.58447368078844" lon="7.9955946854184035"><ele>682.0</ele><time>2026-05-01T17:20:09Z</time></trkpt><trkpt lat="45.58449879024742" lon="7.9956802984268895"><ele>682.0</ele><time>2026-05-01T17:20:12Z</time></trkpt><trkpt lat="45.5845112161675" lon="7.995779396391215"><ele>682.0</ele><time>2026-05-01T17:20:34Z</time></trkpt><trkpt lat="45.58449470382968" lon="7.995904240284522"><ele>682.0</ele><time>2026-05-01T17:20:37Z</time></trkpt><trkpt lat="45.58448697005126" lon="7.996038928290105"><ele>682.0</ele><time>2026-05-01T17:20:40Z</time></trkpt><trkpt lat="45.58446436001091" lon="7.996150242813292"><ele>682.0</ele><time>2026-05-01T17:20:42Z</time></trkpt><trkpt lat="45.58444307597989" lon="7.996273130007166"><ele>682.0</ele><time>2026-05-01T17:20:45Z</time></trkpt><trkpt lat="45.58442313061237" lon="7.9963605972986445"><ele>680.1428571428571</ele><time>2026-05-01T17:20:48Z</time></trkpt><trkpt lat="45.584368307613886" lon="7.996409882082486"><ele>678.2857142857143</ele><time>2026-05-01T17:20:51Z</time></trkpt><trkpt lat="45.58441983460478" lon="7.996463178517936"><ele>676.4285714285714</ele><time>2026-05-01T17:20:55Z</time></trkpt><trkpt lat="45.58445768528493" lon="7.996543096406608"><ele>674.5714285714286</ele><time>2026-05-01T17:20:59Z</time></trkpt><trkpt lat="45.58442091428911" lon="7.996622840302332"><ele>672.7142857142857</ele><time>2026-05-01T17:21:12Z</time></trkpt><trkpt lat="45.584337419133476" lon="7.996550485388903"><ele>670.8571428571429</ele><time>2026-05-01T17:21:14Z</time></trkpt><trkpt lat="45.584318322337374" lon="7.996657965096599"><ele>669.0</ele><time>2026-05-01T17:21:20Z</time></trkpt><trkpt lat="45.5842915588575" lon="7.996752764652504"><ele>669.0</ele><time>2026-05-01T17:21:23Z</time></trkpt><trkpt lat="45.58425190527305" lon="7.996658880191404"><ele>669.0</ele><time>2026-05-01T17:21:25Z</time></trkpt><trkpt lat="45.58426135698675" lon="7.996785955750819"><ele>669.0</ele><time>2026-05-01T17:21:30Z</time></trkpt><trkpt lat="45.584229957435916" lon="7.996886513988722"><ele>669.0</ele><time>2026-05-01T17:21:35Z</time></trkpt><trkpt lat="45.58416823043433" lon="7.9967682520238865"><ele>669.0</ele><time>2026-05-01T17:21:41Z</time></trkpt><trkpt lat="45.58414898903421" lon="7.996625270219865"><ele>669.0</ele><time>2026-05-01T17:21:43Z</time></trkpt><trkpt lat="45.58413726424532" lon="7.996480629036211"><ele>669.0</ele><time>2026-05-01T17:21:45Z</time></trkpt><trkpt lat="45.584111533034395" lon="7.9963503479233475"><ele>669.0</ele><time>2026-05-01T17:21:47Z</time></trkpt><trkpt lat="45.58409630583949" lon="7.9964394805274175"><ele>669.0</ele><time>2026-05-01T17:21:52Z</time></trkpt><trkpt lat="45.58410397656194" lon="7.996623167515136"><ele>669.0</ele><time>2026-05-01T17:21:54Z</time></trkpt><trkpt lat="45.584068395033555" lon="7.996726834859693"><ele>669.0</ele><time>2026-05-01T17:21:55Z</time></trkpt><trkpt lat="45.58402450655115" lon="7.996832065766653"><ele>666.0</ele><time>2026-05-01T17:21:56Z</time></trkpt><trkpt lat="45.58400515734637" lon="7.996924822815541"><ele>663.0</ele><time>2026-05-01T17:21:57Z</time></trkpt><trkpt lat="45.58400715941488" lon="7.997025191430233"><ele>660.0</ele><time>2026-05-01T17:21:58Z</time></trkpt><trkpt lat="45.583999623876885" lon="7.997154467622"><ele>657.0</ele><time>2026-05-01T17:22:00Z</time></trkpt><trkpt lat="45.583944474810664" lon="7.997235264585281"><ele>654.0</ele><time>2026-05-01T17:22:05Z</time></trkpt><trkpt lat="45.58387011878923" lon="7.997139981138997"><ele>651.0</ele><time>2026-05-01T17:22:07Z</time></trkpt><trkpt lat="45.583828465960075" lon="7.997043230185861"><ele>651.0</ele><time>2026-05-01T17:22:09Z</time></trkpt><trkpt lat="45.58380456324379" lon="7.997170431684822"><ele>651.0</ele><time>2026-05-01T17:22:17Z</time></trkpt><trkpt lat="45.58374993669222" lon="7.997309885663243"><ele>651.0</ele><time>2026-05-01T17:22:20Z</time></trkpt><trkpt lat="45.58374327863983" lon="7.9974083408759675"><ele>651.0</ele><time>2026-05-01T17:22:22Z</time></trkpt><trkpt lat="45.58382776850742" lon="7.9974520596890795"><ele>651.0</ele><time>2026-05-01T17:22:26Z</time></trkpt><trkpt lat="45.58375500669778" lon="7.997527443584828"><ele>649.6666666666666</ele><time>2026-05-01T17:22:28Z</time></trkpt><trkpt lat="45.58368838373558" lon="7.997542347077157"><ele>648.3333333333334</ele><time>2026-05-01T17:22:30Z</time></trkpt><trkpt lat="45.58360897717098" lon="7.997462777615442"><ele>647.0</ele><time>2026-05-01T17:22:32Z</time></trkpt><trkpt lat="45.5835407663895" lon="7.997452513144334"><ele>645.6666666666667</ele><time>2026-05-01T17:22:34Z</time></trkpt><trkpt lat="45.583626169268285" lon="7.997443794138065"><ele>644.3333333333334</ele><time>2026-05-01T17:22:37Z</time></trkpt><trkpt lat="45.58366985657558" lon="7.997562249920652"><ele>643.0</ele><time>2026-05-01T17:22:41Z</time></trkpt><trkpt lat="45.583586548746766" lon="7.9976663943120005"><ele>643.0</ele><time>2026-05-01T17:22:43Z</time></trkpt><trkpt lat="45.583515192603635" lon="7.997708294595354"><ele>643.0</ele><time>2026-05-01T17:22:45Z</time></trkpt><trkpt lat="45.583514084423925" lon="7.997829181322941"><ele>643.0</ele><time>2026-05-01T17:22:47Z</time></trkpt><trkpt lat="45.583577410901434" lon="7.997893085317389"><ele>643.0</ele><time>2026-05-01T17:22:48Z</time></trkpt><trkpt lat="45.58365776321424" lon="7.99796878782005"><ele>643.0</ele><time>2026-05-01T17:23:41Z</time></trkpt><trkpt lat="45.58367064995617" lon="7.998076874159178"><ele>643.0</ele><time>2026-05-01T17:23:43Z</time></trkpt><trkpt lat="45.58369803126808" lon="7.998163587454701"><ele>643.0</ele><time>2026-05-01T17:23:45Z</time></trkpt><trkpt lat="45.5837452144682" lon="7.998252005527206"><ele>643.0</ele><time>2026-05-01T17:23:47Z</time></trkpt><trkpt lat="45.583784125570226" lon="7.998360920382483"><ele>643.0</ele><time>2026-05-01T17:23:50Z</time></trkpt><trkpt lat="45.58383494862758" lon="7.998418165042385"><ele>643.0</ele><time>2026-05-01T17:23:53Z</time></trkpt><trkpt lat="45.58385275059488" lon="7.998508778917634"><ele>643.0</ele><time>2026-05-01T17:23:55Z</time></trkpt><trkpt lat="45.583844602405804" lon="7.998626347471798"><ele>643.0</ele><time>2026-05-01T17:23:57Z</time></trkpt><trkpt lat="45.58383847725412" lon="7.998736546611276"><ele>642.4</ele><time>2026-05-01T17:23:59Z</time></trkpt><trkpt lat="45.583854488256726" lon="7.998867204137089"><ele>641.8</ele><time>2026-05-01T17:24:01Z</time></trkpt><trkpt lat="45.58376362224907" lon="7.9989667597598615"><ele>641.2</ele><time>2026-05-01T17:24:03Z</time></trkpt><trkpt lat="45.58367652452991" lon="7.999071587782563"><ele>640.6</ele><time>2026-05-01T17:24:05Z</time></trkpt><trkpt lat="45.58363183493245" lon="7.999147116550009"><ele>640.0</ele><time>2026-05-01T17:24:06Z</time></trkpt><trkpt lat="45.58357079664823" lon="7.999233668856822"><ele>637.8333333333334</ele><time>2026-05-01T17:24:07Z</time></trkpt><trkpt lat="45.58351920534243" lon="7.99933867541695"><ele>635.6666666666667</ele><time>2026-05-01T17:24:08Z</time></trkpt><trkpt lat="45.5834618838306" lon="7.999445042686298"><ele>633.5</ele><time>2026-05-01T17:24:09Z</time></trkpt><trkpt lat="45.58341402710099" lon="7.999559958944573"><ele>631.3333333333334</ele><time>2026-05-01T17:24:10Z</time></trkpt><trkpt lat="45.583364365636875" lon="7.99966373445218"><ele>629.1666666666666</ele><time>2026-05-01T17:24:11Z</time></trkpt><trkpt lat="45.58331136752628" lon="7.999739325210304"><ele>627.0</ele><time>2026-05-01T17:24:12Z</time></trkpt><trkpt lat="45.5832743705453" lon="7.999819386002235"><ele>627.0</ele><time>2026-05-01T17:24:13Z</time></trkpt><trkpt lat="45.58321463855423" lon="7.999854052574339"><ele>627.0</ele><time>2026-05-01T17:24:14Z</time></trkpt><trkpt lat="45.583147918596524" lon="7.99992421552605"><ele>627.0</ele><time>2026-05-01T17:24:17Z</time></trkpt><trkpt lat="45.58317441168971" lon="8.00005067771073"><ele>627.0</ele><time>2026-05-01T17:24:19Z</time></trkpt><trkpt lat="45.58320341182964" lon="8.000130557213737"><ele>627.0</ele><time>2026-05-01T17:24:20Z</time></trkpt><trkpt lat="45.583217751642124" lon="8.000276087512393"><ele>627.0</ele><time>2026-05-01T17:24:22Z</time></trkpt><trkpt lat="45.58315197335691" lon="8.000300130741453"><ele>627.0</ele><time>2026-05-01T17:24:29Z</time></trkpt><trkpt lat="45.58308292004317" lon="8.00032165588516"><ele>627.0</ele><time>2026-05-01T17:24:33Z</time></trkpt><trkpt lat="45.583010577638206" lon="8.000365967358443"><ele>627.0</ele><time>2026-05-01T17:24:35Z</time></trkpt><trkpt lat="45.58307150991972" lon="8.000272008257658"><ele>627.0</ele><time>2026-05-01T17:24:40Z</time></trkpt><trkpt lat="45.58316741335727" lon="8.000258842348533"><ele>627.0</ele><time>2026-05-01T17:24:43Z</time></trkpt><trkpt lat="45.583230148887296" lon="8.000354403556262"><ele>627.0</ele><time>2026-05-01T17:24:46Z</time></trkpt><trkpt lat="45.58326629349828" lon="8.000494928940398"><ele>627.0</ele><time>2026-05-01T17:24:48Z</time></trkpt><trkpt lat="45.58331494301845" lon="8.000595867834486"><ele>627.0</ele><time>2026-05-01T17:24:50Z</time></trkpt><trkpt lat="45.5833705302358" lon="8.000686040179964"><ele>627.0</ele><time>2026-05-01T17:24:52Z</time></trkpt><trkpt lat="45.58342252686193" lon="8.000803216879907"><ele>627.0</ele><time>2026-05-01T17:24:54Z</time></trkpt><trkpt lat="45.58344651954013" lon="8.000986480077941"><ele>627.0</ele><time>2026-05-01T17:24:57Z</time></trkpt><trkpt lat="45.58351073872795" lon="8.00104786682119"><ele>626.0</ele><time>2026-05-01T17:24:59Z</time></trkpt><trkpt lat="45.583563737797505" lon="8.001118384728482"><ele>625.0</ele><time>2026-05-01T17:25:01Z</time></trkpt><trkpt lat="45.583504008592186" lon="8.001214984386115"><ele>624.0</ele><time>2026-05-01T17:25:02Z</time></trkpt><trkpt lat="45.58345211877173" lon="8.001311526333831"><ele>623.0</ele><time>2026-05-01T17:25:03Z</time></trkpt><trkpt lat="45.58340384101284" lon="8.001400306534"><ele>622.0</ele><time>2026-05-01T17:25:04Z</time></trkpt><trkpt lat="45.58335659582803" lon="8.001481702295097"><ele>621.0</ele><time>2026-05-01T17:25:05Z</time></trkpt><trkpt lat="45.58328698181652" lon="8.001556183112932"><ele>621.0</ele><time>2026-05-01T17:25:06Z</time></trkpt><trkpt lat="45.58323416553812" lon="8.001651972692732"><ele>621.0</ele><time>2026-05-01T17:25:07Z</time></trkpt><trkpt lat="45.58316179408974" lon="8.001749058341465"><ele>621.0</ele><time>2026-05-01T17:25:08Z</time></trkpt><trkpt lat="45.583085434166996" lon="8.001833981310684"><ele>621.0</ele><time>2026-05-01T17:25:09Z</time></trkpt><trkpt lat="45.583007096896026" lon="8.001929479906599"><ele>621.0</ele><time>2026-05-01T17:25:10Z</time></trkpt><trkpt lat="45.582934410829516" lon="8.002021755421683"><ele>619.8</ele><time>2026-05-01T17:25:11Z</time></trkpt><trkpt lat="45.58285967577232" lon="8.002096277157138"><ele>618.6</ele><time>2026-05-01T17:25:12Z</time></trkpt><trkpt lat="45.58278770882556" lon="8.002171218812457"><ele>617.4</ele><time>2026-05-01T17:25:13Z</time></trkpt><trkpt lat="45.582711109248" lon="8.002255581944633"><ele>616.2</ele><time>2026-05-01T17:25:14Z</time></trkpt><trkpt lat="45.58262758402123" lon="8.002350989812781"><ele>615.0</ele><time>2026-05-01T17:25:15Z</time></trkpt><trkpt lat="45.58253291214314" lon="8.002441796012162"><ele>612.0</ele><time>2026-05-01T17:25:16Z</time></trkpt><trkpt lat="45.58243817126578" lon="8.002516215007956"><ele>609.0</ele><time>2026-05-01T17:25:17Z</time></trkpt><trkpt lat="45.58232866930557" lon="8.002580641539355"><ele>606.0</ele><time>2026-05-01T17:25:18Z</time></trkpt><trkpt lat="45.582206591255606" lon="8.002633735277948"><ele>603.0</ele><time>2026-05-01T17:25:19Z</time></trkpt><trkpt lat="45.58209233594509" lon="8.002708049733569"><ele>600.5</ele><time>2026-05-01T17:25:20Z</time></trkpt><trkpt lat="45.58197808284405" lon="8.00277950172642"><ele>598.0</ele><time>2026-05-01T17:25:21Z</time></trkpt><trkpt lat="45.581847069390555" lon="8.002831126538682"><ele>595.5</ele><time>2026-05-01T17:25:22Z</time></trkpt><trkpt lat="45.581714401232425" lon="8.002871075497014"><ele>593.0</ele><time>2026-05-01T17:25:23Z</time></trkpt><trkpt lat="45.58157949285509" lon="8.002906884741373"><ele>593.0</ele><time>2026-05-01T17:25:24Z</time></trkpt><trkpt lat="45.58144679753146" lon="8.00296116867641"><ele>593.0</ele><time>2026-05-01T17:25:25Z</time></trkpt><trkpt lat="45.58132164023419" lon="8.003029095511677"><ele>593.0</ele><time>2026-05-01T17:25:26Z</time></trkpt><trkpt lat="45.58118699195168" lon="8.00309198323214"><ele>593.0</ele><time>2026-05-01T17:25:27Z</time></trkpt><trkpt lat="45.58104715744384" lon="8.003160371279952"><ele>591.3333333333333</ele><time>2026-05-01T17:25:28Z</time></trkpt><trkpt lat="45.58090559148308" lon="8.003217638494016"><ele>589.6666666666666</ele><time>2026-05-01T17:25:29Z</time></trkpt><trkpt lat="45.58076330851845" lon="8.003285709068432"><ele>588.0</ele><time>2026-05-01T17:25:30Z</time></trkpt><trkpt lat="45.58061409473376" lon="8.003356706707214"><ele>587.3333333333334</ele><time>2026-05-01T17:25:31Z</time></trkpt><trkpt lat="45.58047085195319" lon="8.003431051788882"><ele>586.6666666666667</ele><time>2026-05-01T17:25:32Z</time></trkpt><trkpt lat="45.5803176163397" lon="8.003489705548196"><ele>586.0</ele><time>2026-05-01T17:25:33Z</time></trkpt><trkpt lat="45.5801647330105" lon="8.003565954497102"><ele>583.3333333333334</ele><time>2026-05-01T17:25:34Z</time></trkpt><trkpt lat="45.58000540837254" lon="8.003637019798811"><ele>580.6666666666666</ele><time>2026-05-01T17:25:35Z</time></trkpt><trkpt lat="45.57984616292399" lon="8.003709919745047"><ele>578.0</ele><time>2026-05-01T17:25:36Z</time></trkpt><trkpt lat="45.57968444382636" lon="8.00378308130342"><ele>578.0</ele><time>2026-05-01T17:25:37Z</time></trkpt><trkpt lat="45.57951960488199" lon="8.003849914689926"><ele>578.0</ele><time>2026-05-01T17:25:38Z</time></trkpt><trkpt lat="45.57935480501383" lon="8.003924555965927"><ele>578.0</ele><time>2026-05-01T17:25:39Z</time></trkpt><trkpt lat="45.57919469098071" lon="8.004007408531642"><ele>575.0</ele><time>2026-05-01T17:25:40Z</time></trkpt><trkpt lat="45.57903315283697" lon="8.004099233676785"><ele>572.0</ele><time>2026-05-01T17:25:41Z</time></trkpt><trkpt lat="45.578877716269524" lon="8.00421787807985"><ele>569.0</ele><time>2026-05-01T17:25:42Z</time></trkpt><trkpt lat="45.57872476342531" lon="8.004353896644306"><ele>565.6666666666666</ele><time>2026-05-01T17:25:43Z</time></trkpt><trkpt lat="45.57858341127061" lon="8.004502208427185"><ele>562.3333333333334</ele><time>2026-05-01T17:25:44Z</time></trkpt><trkpt lat="45.5784427776501" lon="8.00465145665973"><ele>559.0</ele><time>2026-05-01T17:25:45Z</time></trkpt><trkpt lat="45.57830021040731" lon="8.004793802082288"><ele>559.0</ele><time>2026-05-01T17:25:46Z</time></trkpt><trkpt lat="45.578163807401864" lon="8.00495719580159"><ele>559.0</ele><time>2026-05-01T17:25:47Z</time></trkpt><trkpt lat="45.5780387893604" lon="8.005110746923148"><ele>559.0</ele><time>2026-05-01T17:25:48Z</time></trkpt><trkpt lat="45.577919552272554" lon="8.005269858951197"><ele>555.3333333333334</ele><time>2026-05-01T17:25:49Z</time></trkpt><trkpt lat="45.577807913893366" lon="8.005446360509334"><ele>551.6666666666666</ele><time>2026-05-01T17:25:50Z</time></trkpt><trkpt lat="45.57769696431137" lon="8.005627490915586"><ele>548.0</ele><time>2026-05-01T17:25:51Z</time></trkpt><trkpt lat="45.57758057943468" lon="8.005805091169627"><ele>547.0</ele><time>2026-05-01T17:25:52Z</time></trkpt><trkpt lat="45.577459973871264" lon="8.00598072308865"><ele>546.0</ele><time>2026-05-01T17:25:53Z</time></trkpt><trkpt lat="45.5773412595146" lon="8.006156594186232"><ele>545.0</ele><time>2026-05-01T17:25:54Z</time></trkpt><trkpt lat="45.57721914709469" lon="8.006327720514046"><ele>545.0</ele><time>2026-05-01T17:25:55Z</time></trkpt><trkpt lat="45.577096711217514" lon="8.00650040611183"><ele>545.0</ele><time>2026-05-01T17:25:56Z</time></trkpt><trkpt lat="45.576975601106334" lon="8.006675241314943"><ele>545.0</ele><time>2026-05-01T17:25:57Z</time></trkpt><trkpt lat="45.576859227483794" lon="8.006848157760919"><ele>542.3333333333333</ele><time>2026-05-01T17:25:58Z</time></trkpt><trkpt lat="45.5767441807186" lon="8.007026163444738"><ele>539.6666666666666</ele><time>2026-05-01T17:25:59Z</time></trkpt><trkpt lat="45.57662926820699" lon="8.007195788105836"><ele>537.0</ele><time>2026-05-01T17:26:00Z</time></trkpt><trkpt lat="45.57651699964987" lon="8.007365243754164"><ele>536.3333333333334</ele><time>2026-05-01T17:26:01Z</time></trkpt><trkpt lat="45.57640489429318" lon="8.007531869471379"><ele>535.6666666666667</ele><time>2026-05-01T17:26:02Z</time></trkpt><trkpt lat="45.57629290623185" lon="8.007698723347566"><ele>535.0</ele><time>2026-05-01T17:26:03Z</time></trkpt><trkpt lat="45.57618389770102" lon="8.007867332653193"><ele>533.0</ele><time>2026-05-01T17:26:04Z</time></trkpt><trkpt lat="45.576070039078125" lon="8.008037553131057"><ele>531.0</ele><time>2026-05-01T17:26:05Z</time></trkpt><trkpt lat="45.57594819463473" lon="8.008197673160849"><ele>529.0</ele><time>2026-05-01T17:26:06Z</time></trkpt><trkpt lat="45.57583150709329" lon="8.00836911978173"><ele>528.3333333333334</ele><time>2026-05-01T17:26:07Z</time></trkpt><trkpt lat="45.57571944598853" lon="8.008539688337299"><ele>527.6666666666666</ele><time>2026-05-01T17:26:08Z</time></trkpt><trkpt lat="45.57560449174482" lon="8.008705176663995"><ele>527.0</ele><time>2026-05-01T17:26:09Z</time></trkpt><trkpt lat="45.57548791189213" lon="8.00887279558734"><ele>527.0</ele><time>2026-05-01T17:26:10Z</time></trkpt><trkpt lat="45.57536912020245" lon="8.009042277192409"><ele>527.0</ele><time>2026-05-01T17:26:11Z</time></trkpt><trkpt lat="45.575252601655166" lon="8.009215530448431"><ele>527.0</ele><time>2026-05-01T17:26:12Z</time></trkpt><trkpt lat="45.575138207068036" lon="8.009387407425974"><ele>524.6666666666666</ele><time>2026-05-01T17:26:13Z</time></trkpt><trkpt lat="45.5750224574496" lon="8.009555099859737"><ele>522.3333333333334</ele><time>2026-05-01T17:26:14Z</time></trkpt><trkpt lat="45.574909876970324" lon="8.009732208607359"><ele>520.0</ele><time>2026-05-01T17:26:15Z</time></trkpt><trkpt lat="45.5747928885686" lon="8.009909118817843"><ele>519.3333333333334</ele><time>2026-05-01T17:26:16Z</time></trkpt><trkpt lat="45.57467566119624" lon="8.010080760834812"><ele>518.6666666666666</ele><time>2026-05-01T17:26:17Z</time></trkpt><trkpt lat="45.574559677088295" lon="8.010255200883352"><ele>518.0</ele><time>2026-05-01T17:26:18Z</time></trkpt><trkpt lat="45.57444292394521" lon="8.010426328255804"><ele>516.3333333333333</ele><time>2026-05-01T17:26:19Z</time></trkpt><trkpt lat="45.574326518591874" lon="8.010599574376329"><ele>514.6666666666666</ele><time>2026-05-01T17:26:20Z</time></trkpt><trkpt lat="45.57420757824636" lon="8.010775974227132"><ele>513.0</ele><time>2026-05-01T17:26:21Z</time></trkpt><trkpt lat="45.57408692094298" lon="8.010946698945224"><ele>513.0</ele><time>2026-05-01T17:26:22Z</time></trkpt><trkpt lat="45.57397848969654" lon="8.011122176977375"><ele>513.0</ele><time>2026-05-01T17:26:23Z</time></trkpt><trkpt lat="45.5738705801596" lon="8.011298361936856"><ele>513.0</ele><time>2026-05-01T17:26:24Z</time></trkpt><trkpt lat="45.57375470996129" lon="8.011467393713485"><ele>510.66666666666663</ele><time>2026-05-01T17:26:25Z</time></trkpt><trkpt lat="45.573637347858174" lon="8.011635663717037"><ele>508.3333333333333</ele><time>2026-05-01T17:26:26Z</time></trkpt><trkpt lat="45.57352191388716" lon="8.011804906557886"><ele>506.0</ele><time>2026-05-01T17:26:27Z</time></trkpt><trkpt lat="45.573402062052864" lon="8.011972854432411"><ele>505.0</ele><time>2026-05-01T17:26:28Z</time></trkpt><trkpt lat="45.5732845158636" lon="8.012136234315555"><ele>504.0</ele><time>2026-05-01T17:26:29Z</time></trkpt><trkpt lat="45.57316681894528" lon="8.012302821706626"><ele>503.0</ele><time>2026-05-01T17:26:30Z</time></trkpt><trkpt lat="45.57304643507084" lon="8.012472361787266"><ele>500.3333333333333</ele><time>2026-05-01T17:26:31Z</time></trkpt><trkpt lat="45.5729179311671" lon="8.012629489937622"><ele>497.66666666666663</ele><time>2026-05-01T17:26:32Z</time></trkpt><trkpt lat="45.57278179385875" lon="8.01277576266049"><ele>495.0</ele><time>2026-05-01T17:26:33Z</time></trkpt><trkpt lat="45.572645798959186" lon="8.012918163534831"><ele>495.0</ele><time>2026-05-01T17:26:34Z</time></trkpt><trkpt lat="45.57250958626131" lon="8.013055788207234"><ele>495.0</ele><time>2026-05-01T17:26:35Z</time></trkpt><trkpt lat="45.572377284357806" lon="8.01319816720499"><ele>495.0</ele><time>2026-05-01T17:26:36Z</time></trkpt><trkpt lat="45.57224583556259" lon="8.013334577008228"><ele>493.66666666666663</ele><time>2026-05-01T17:26:37Z</time></trkpt><trkpt lat="45.57211707731817" lon="8.013480450212805"><ele>492.3333333333333</ele><time>2026-05-01T17:26:38Z</time></trkpt><trkpt lat="45.57199137773618" lon="8.013624734230538"><ele>491.0</ele><time>2026-05-01T17:26:39Z</time></trkpt><trkpt lat="45.57187205789815" lon="8.013762478186191"><ele>491.0</ele><time>2026-05-01T17:26:40Z</time></trkpt><trkpt lat="45.57175188169566" lon="8.013902596520039"><ele>491.0</ele><time>2026-05-01T17:26:41Z</time></trkpt><trkpt lat="45.57162459757108" lon="8.01403144851839"><ele>491.0</ele><time>2026-05-01T17:26:42Z</time></trkpt><trkpt lat="45.57150994060995" lon="8.014155757373565"><ele>490.75</ele><time>2026-05-01T17:26:43Z</time></trkpt><trkpt lat="45.571402934395664" lon="8.014272194282192"><ele>490.5</ele><time>2026-05-01T17:26:44Z</time></trkpt><trkpt lat="45.57129378887656" lon="8.014396732996282"><ele>490.25</ele><time>2026-05-01T17:26:45Z</time></trkpt><trkpt lat="45.571187649910485" lon="8.014510614671929"><ele>490.0</ele><time>2026-05-01T17:26:46Z</time></trkpt><trkpt lat="45.571072362271906" lon="8.014621853830219"><ele>489.25</ele><time>2026-05-01T17:26:47Z</time></trkpt><trkpt lat="45.57094555489289" lon="8.014747255997412"><ele>488.5</ele><time>2026-05-01T17:26:48Z</time></trkpt><trkpt lat="45.570836741740344" lon="8.014844300305903"><ele>487.75</ele><time>2026-05-01T17:26:49Z</time></trkpt><trkpt lat="45.57072717851183" lon="8.014923769869718"><ele>487.0</ele><time>2026-05-01T17:26:50Z</time></trkpt><trkpt lat="45.57062375059242" lon="8.015017332254242"><ele>487.0</ele><time>2026-05-01T17:26:51Z</time></trkpt><trkpt lat="45.57052094379725" lon="8.015115682724334"><ele>487.0</ele><time>2026-05-01T17:26:52Z</time></trkpt><trkpt lat="45.570414826008" lon="8.015199314074119"><ele>487.0</ele><time>2026-05-01T17:26:53Z</time></trkpt><trkpt lat="45.57031190178337" lon="8.015281290027344"><ele>487.0</ele><time>2026-05-01T17:26:54Z</time></trkpt><trkpt lat="45.57020906406071" lon="8.015364191724375"><ele>484.75</ele><time>2026-05-01T17:26:55Z</time></trkpt><trkpt lat="45.570107650074426" lon="8.015438933906758"><ele>482.5</ele><time>2026-05-01T17:26:56Z</time></trkpt><trkpt lat="45.57000347465791" lon="8.015507472531333"><ele>480.25</ele><time>2026-05-01T17:26:57Z</time></trkpt><trkpt lat="45.56990408170666" lon="8.015582401188576"><ele>478.0</ele><time>2026-05-01T17:26:58Z</time></trkpt><trkpt lat="45.56980449045982" lon="8.015654183872387"><ele>478.0</ele><time>2026-05-01T17:26:59Z</time></trkpt><trkpt lat="45.56970360875655" lon="8.015731897339137"><ele>478.0</ele><time>2026-05-01T17:27:00Z</time></trkpt><trkpt lat="45.56960773167612" lon="8.015810939151411"><ele>478.0</ele><time>2026-05-01T17:27:01Z</time></trkpt><trkpt lat="45.56951608983289" lon="8.01589503954302"><ele>478.0</ele><time>2026-05-01T17:27:02Z</time></trkpt><trkpt lat="45.56941307324738" lon="8.015975568426883"><ele>476.5</ele><time>2026-05-01T17:27:03Z</time></trkpt><trkpt lat="45.569299334132204" lon="8.016041577117022"><ele>475.0</ele><time>2026-05-01T17:27:04Z</time></trkpt><trkpt lat="45.569196315448394" lon="8.01610620494334"><ele>473.5</ele><time>2026-05-01T17:27:05Z</time></trkpt><trkpt lat="45.56909481895267" lon="8.016174809015636"><ele>472.0</ele><time>2026-05-01T17:27:06Z</time></trkpt><trkpt lat="45.56899271515306" lon="8.016245287589063"><ele>472.0</ele><time>2026-05-01T17:27:07Z</time></trkpt><trkpt lat="45.56891046284595" lon="8.016314314687698"><ele>472.00000000000006</ele><time>2026-05-01T17:27:08Z</time></trkpt><trkpt lat="45.568822371313125" lon="8.016398645443985"><ele>472.00000000000006</ele><time>2026-05-01T17:27:09Z</time></trkpt><trkpt lat="45.56873342050225" lon="8.01647931098834"><ele>472.0</ele><time>2026-05-01T17:27:10Z</time></trkpt><trkpt lat="45.568660833210714" lon="8.016609069157"><ele>472.0</ele><time>2026-05-01T17:27:11Z</time></trkpt><trkpt lat="45.568586855787714" lon="8.016719519866308"><ele>471.6</ele><time>2026-05-01T17:27:12Z</time></trkpt><trkpt lat="45.568517379158095" lon="8.016832249215517"><ele>471.20000000000005</ele><time>2026-05-01T17:27:13Z</time></trkpt><trkpt lat="45.5684385568229" lon="8.016944274937037"><ele>470.8</ele><time>2026-05-01T17:27:14Z</time></trkpt><trkpt lat="45.56837418663568" lon="8.017067797606057"><ele>470.4</ele><time>2026-05-01T17:27:15Z</time></trkpt><trkpt lat="45.568317870381904" lon="8.017198623699953"><ele>470.0</ele><time>2026-05-01T17:27:16Z</time></trkpt><trkpt lat="45.56827107792141" lon="8.017335574177551"><ele>470.8</ele><time>2026-05-01T17:27:17Z</time></trkpt><trkpt lat="45.568239479211385" lon="8.01748978029377"><ele>471.6</ele><time>2026-05-01T17:27:18Z</time></trkpt><trkpt lat="45.56821740200569" lon="8.017638046259217"><ele>472.4</ele><time>2026-05-01T17:27:19Z</time></trkpt><trkpt lat="45.5682170088614" lon="8.017793184253684"><ele>473.2</ele><time>2026-05-01T17:27:20Z</time></trkpt><trkpt lat="45.568227718845925" lon="8.017948935201613"><ele>474.0</ele><time>2026-05-01T17:27:21Z</time></trkpt><trkpt lat="45.56824536180728" lon="8.018102524032583"><ele>474.0</ele><time>2026-05-01T17:27:22Z</time></trkpt><trkpt lat="45.56827221625948" lon="8.01825533620584"><ele>474.0</ele><time>2026-05-01T17:27:23Z</time></trkpt><trkpt lat="45.568300309526315" lon="8.018410991642384"><ele>474.0</ele><time>2026-05-01T17:27:24Z</time></trkpt><trkpt lat="45.56832220915949" lon="8.018560844228212"><ele>474.0</ele><time>2026-05-01T17:27:25Z</time></trkpt><trkpt lat="45.56834211534" lon="8.018712505124496"><ele>474.0</ele><time>2026-05-01T17:27:26Z</time></trkpt><trkpt lat="45.56837166295986" lon="8.018871625380768"><ele>472.75</ele><time>2026-05-01T17:27:27Z</time></trkpt><trkpt lat="45.56840758487799" lon="8.019039010929779"><ele>471.5</ele><time>2026-05-01T17:27:28Z</time></trkpt><trkpt lat="45.56843028799673" lon="8.019205634154902"><ele>470.25</ele><time>2026-05-01T17:27:29Z</time></trkpt><trkpt lat="45.56843617198129" lon="8.01937532144802"><ele>469.0</ele><time>2026-05-01T17:27:30Z</time></trkpt><trkpt lat="45.56843452656616" lon="8.019548559142272"><ele>467.5</ele><time>2026-05-01T17:27:31Z</time></trkpt><trkpt lat="45.568422413245564" lon="8.01972365530776"><ele>466.0</ele><time>2026-05-01T17:27:32Z</time></trkpt><trkpt lat="45.568398462538354" lon="8.01989513854474"><ele>464.5</ele><time>2026-05-01T17:27:33Z</time></trkpt><trkpt lat="45.56837274967926" lon="8.020063761742595"><ele>463.0</ele><time>2026-05-01T17:27:34Z</time></trkpt><trkpt lat="45.56833112803315" lon="8.020227463488212"><ele>461.0</ele><time>2026-05-01T17:27:35Z</time></trkpt><trkpt lat="45.568273018298854" lon="8.02038383414071"><ele>459.0</ele><time>2026-05-01T17:27:36Z</time></trkpt><trkpt lat="45.56821380209" lon="8.02054255652101"><ele>457.0</ele><time>2026-05-01T17:27:37Z</time></trkpt><trkpt lat="45.568145448880536" lon="8.020694307060511"><ele>455.0</ele><time>2026-05-01T17:27:38Z</time></trkpt><trkpt lat="45.568071854878895" lon="8.020834633696767"><ele>454.25</ele><time>2026-05-01T17:27:39Z</time></trkpt><trkpt lat="45.56800767985712" lon="8.0209743349722"><ele>453.5</ele><time>2026-05-01T17:27:40Z</time></trkpt><trkpt lat="45.567931972630895" lon="8.021110261084694"><ele>452.75</ele><time>2026-05-01T17:27:41Z</time></trkpt><trkpt lat="45.567855529660996" lon="8.02124770392717"><ele>452.0</ele><time>2026-05-01T17:27:42Z</time></trkpt><trkpt lat="45.56778885693852" lon="8.021381429372655"><ele>451.49999999999994</ele><time>2026-05-01T17:27:43Z</time></trkpt><trkpt lat="45.56776120222808" lon="8.021511673840472"><ele>451.0</ele><time>2026-05-01T17:27:44Z</time></trkpt><trkpt lat="45.56773268043912" lon="8.021631427534473"><ele>450.5</ele><time>2026-05-01T17:27:45Z</time></trkpt><trkpt lat="45.56770539480693" lon="8.021727045360494"><ele>450.0</ele><time>2026-05-01T17:27:46Z</time></trkpt><trkpt lat="45.56768709536864" lon="8.021832391358414"><ele>449.49999999999994</ele><time>2026-05-01T17:27:48Z</time></trkpt><trkpt lat="45.56765146470072" lon="8.021936258646052"><ele>449.0</ele><time>2026-05-01T17:27:50Z</time></trkpt><trkpt lat="45.56755270809956" lon="8.022011063505245"><ele>449.99999999999994</ele><time>2026-05-01T17:27:52Z</time></trkpt><trkpt lat="45.56748111583318" lon="8.022029070032067"><ele>451.0</ele><time>2026-05-01T17:27:53Z</time></trkpt><trkpt lat="45.5674105756533" lon="8.022058959953608"><ele>452.0</ele><time>2026-05-01T17:27:54Z</time></trkpt><trkpt lat="45.56741956582089" lon="8.02217393576859"><ele>453.0</ele><time>2026-05-01T17:27:55Z</time></trkpt><trkpt lat="45.56734674310901" lon="8.022287354652454"><ele>453.99999999999994</ele><time>2026-05-01T17:27:56Z</time></trkpt><trkpt lat="45.56725798410754" lon="8.022380710933708"><ele>455.0</ele><time>2026-05-01T17:27:57Z</time></trkpt><trkpt lat="45.567179394417586" lon="8.02247390680092"><ele>456.8</ele><time>2026-05-01T17:27:58Z</time></trkpt><trkpt lat="45.56709710244398" lon="8.02254566040329"><ele>458.6</ele><time>2026-05-01T17:27:59Z</time></trkpt><trkpt lat="45.56698716197329" lon="8.022606211836326"><ele>460.4</ele><time>2026-05-01T17:28:00Z</time></trkpt><trkpt lat="45.56688931104331" lon="8.022657141457378"><ele>462.2</ele><time>2026-05-01T17:28:01Z</time></trkpt><trkpt lat="45.56679061506743" lon="8.022710338922568"><ele>464.0</ele><time>2026-05-01T17:28:02Z</time></trkpt><trkpt lat="45.56668396884872" lon="8.0227522803289"><ele>464.0</ele><time>2026-05-01T17:28:03Z</time></trkpt><trkpt lat="45.56658041607323" lon="8.022807469095122"><ele>464.0</ele><time>2026-05-01T17:28:04Z</time></trkpt><trkpt lat="45.56647318178069" lon="8.022875350205657"><ele>464.0</ele><time>2026-05-01T17:28:05Z</time></trkpt><trkpt lat="45.56637177968505" lon="8.022936063561161"><ele>464.0</ele><time>2026-05-01T17:28:06Z</time></trkpt><trkpt lat="45.56626879254266" lon="8.02298885969963"><ele>464.0</ele><time>2026-05-01T17:28:07Z</time></trkpt><trkpt lat="45.56615949871899" lon="8.02303023318053"><ele>459.0</ele><time>2026-05-01T17:28:08Z</time></trkpt><trkpt lat="45.56604964116207" lon="8.023058643002711"><ele>454.0</ele><time>2026-05-01T17:28:09Z</time></trkpt><trkpt lat="45.56593022148614" lon="8.023064290165044"><ele>449.0</ele><time>2026-05-01T17:28:10Z</time></trkpt><trkpt lat="45.565812785667326" lon="8.023052966169047"><ele>444.0</ele><time>2026-05-01T17:28:11Z</time></trkpt><trkpt lat="45.56570002502978" lon="8.023050620873434"><ele>444.0</ele><time>2026-05-01T17:28:12Z</time></trkpt><trkpt lat="45.565572077447875" lon="8.023038939874425"><ele>444.0</ele><time>2026-05-01T17:28:13Z</time></trkpt><trkpt lat="45.56545449526272" lon="8.023046173038102"><ele>444.0</ele><time>2026-05-01T17:28:14Z</time></trkpt><trkpt lat="45.56533704002816" lon="8.023039189781093"><ele>444.0</ele><time>2026-05-01T17:28:15Z</time></trkpt><trkpt lat="45.565210687464145" lon="8.023044541633023"><ele>441.75</ele><time>2026-05-01T17:28:16Z</time></trkpt><trkpt lat="45.565087935929" lon="8.023047679326808"><ele>439.5</ele><time>2026-05-01T17:28:17Z</time></trkpt><trkpt lat="45.56496836694756" lon="8.023046985317837"><ele>437.25</ele><time>2026-05-01T17:28:18Z</time></trkpt><trkpt lat="45.56483886057036" lon="8.023066531860987"><ele>435.0</ele><time>2026-05-01T17:28:19Z</time></trkpt><trkpt lat="45.56471385892372" lon="8.02307314798639"><ele>435.0</ele><time>2026-05-01T17:28:20Z</time></trkpt><trkpt lat="45.56458199727628" lon="8.023091575172801"><ele>435.0</ele><time>2026-05-01T17:28:21Z</time></trkpt><trkpt lat="45.56446070989569" lon="8.023070547011015"><ele>435.0</ele><time>2026-05-01T17:28:22Z</time></trkpt><trkpt lat="45.56433329604918" lon="8.023081731719197"><ele>435.0</ele><time>2026-05-01T17:28:23Z</time></trkpt><trkpt lat="45.56420850070879" lon="8.023103607306123"><ele>435.75</ele><time>2026-05-01T17:28:24Z</time></trkpt><trkpt lat="45.56407937402524" lon="8.023120627501296"><ele>436.5</ele><time>2026-05-01T17:28:25Z</time></trkpt><trkpt lat="45.56395949001537" lon="8.023138816760994"><ele>437.25</ele><time>2026-05-01T17:28:26Z</time></trkpt><trkpt lat="45.5638343941713" lon="8.023143936325397"><ele>438.0</ele><time>2026-05-01T17:28:27Z</time></trkpt><trkpt lat="45.56371201048997" lon="8.02315959841375"><ele>443.0</ele><time>2026-05-01T17:28:28Z</time></trkpt><trkpt lat="45.56359297348617" lon="8.023178953438613"><ele>448.0</ele><time>2026-05-01T17:28:29Z</time></trkpt><trkpt lat="45.56346939240868" lon="8.023210321290163"><ele>453.0</ele><time>2026-05-01T17:28:30Z</time></trkpt><trkpt lat="45.563353156569306" lon="8.02326021281038"><ele>458.0</ele><time>2026-05-01T17:28:31Z</time></trkpt><trkpt lat="45.563244219798385" lon="8.023311503150898"><ele>452.5</ele><time>2026-05-01T17:28:32Z</time></trkpt><trkpt lat="45.56313985592487" lon="8.023388499570276"><ele>447.0</ele><time>2026-05-01T17:28:33Z</time></trkpt><trkpt lat="45.56303657976726" lon="8.02344895953854"><ele>441.5</ele><time>2026-05-01T17:28:34Z</time></trkpt><trkpt lat="45.56293307254665" lon="8.023515211212757"><ele>436.0</ele><time>2026-05-01T17:28:35Z</time></trkpt><trkpt lat="45.56283317078698" lon="8.023583577464244"><ele>435.25</ele><time>2026-05-01T17:28:36Z</time></trkpt><trkpt lat="45.56272848991969" lon="8.023653407739314"><ele>434.5</ele><time>2026-05-01T17:28:37Z</time></trkpt><trkpt lat="45.56262423983752" lon="8.023734914519615"><ele>433.75</ele><time>2026-05-01T17:28:38Z</time></trkpt><trkpt lat="45.562522436775545" lon="8.02380140348644"><ele>433.0</ele><time>2026-05-01T17:28:39Z</time></trkpt><trkpt lat="45.562422051001164" lon="8.023884077720956"><ele>433.0</ele><time>2026-05-01T17:28:40Z</time></trkpt><trkpt lat="45.562324034260755" lon="8.023960841532357"><ele>433.0</ele><time>2026-05-01T17:28:41Z</time></trkpt><trkpt lat="45.56222485988991" lon="8.02402512509637"><ele>433.0</ele><time>2026-05-01T17:28:42Z</time></trkpt><trkpt lat="45.56213280881183" lon="8.024104708267126"><ele>433.0</ele><time>2026-05-01T17:28:43Z</time></trkpt><trkpt lat="45.562015008733724" lon="8.024153922305615"><ele>431.79999999999995</ele><time>2026-05-01T17:28:44Z</time></trkpt><trkpt lat="45.56193048075279" lon="8.024225218686345"><ele>430.59999999999997</ele><time>2026-05-01T17:28:45Z</time></trkpt><trkpt lat="45.56184528747413" lon="8.024284727253884"><ele>429.40000000000003</ele><time>2026-05-01T17:28:46Z</time></trkpt><trkpt lat="45.56174707493786" lon="8.024351011155268"><ele>428.20000000000005</ele><time>2026-05-01T17:28:47Z</time></trkpt><trkpt lat="45.561646037951576" lon="8.024421939164892"><ele>427.0</ele><time>2026-05-01T17:28:48Z</time></trkpt><trkpt lat="45.56155493266438" lon="8.024489547311546"><ele>427.0</ele><time>2026-05-01T17:28:49Z</time></trkpt><trkpt lat="45.561465400609364" lon="8.024551342135108"><ele>427.00000000000006</ele><time>2026-05-01T17:28:50Z</time></trkpt><trkpt lat="45.5613733339581" lon="8.02461819747787"><ele>427.00000000000006</ele><time>2026-05-01T17:28:51Z</time></trkpt><trkpt lat="45.56127971477016" lon="8.024694471073742"><ele>427.0</ele><time>2026-05-01T17:28:52Z</time></trkpt><trkpt lat="45.56118794048968" lon="8.024763775002405"><ele>427.0</ele><time>2026-05-01T17:28:53Z</time></trkpt><trkpt lat="45.56110067505197" lon="8.024838437166345"><ele>426.20000000000005</ele><time>2026-05-01T17:28:54Z</time></trkpt><trkpt lat="45.5610114080483" lon="8.024902044208584"><ele>425.40000000000003</ele><time>2026-05-01T17:28:55Z</time></trkpt><trkpt lat="45.56092157700003" lon="8.024974144315316"><ele>424.6</ele><time>2026-05-01T17:28:56Z</time></trkpt><trkpt lat="45.56083093885202" lon="8.02504174581855"><ele>423.79999999999995</ele><time>2026-05-01T17:28:57Z</time></trkpt><trkpt lat="45.560745112220225" lon="8.025112908072382"><ele>423.0</ele><time>2026-05-01T17:28:58Z</time></trkpt><trkpt lat="45.56065828735572" lon="8.025174870282381"><ele>422.4</ele><time>2026-05-01T17:28:59Z</time></trkpt><trkpt lat="45.560571189208744" lon="8.025240382151978"><ele>421.79999999999995</ele><time>2026-05-01T17:29:00Z</time></trkpt><trkpt lat="45.560489026265586" lon="8.025312487484888"><ele>421.2</ele><time>2026-05-01T17:29:01Z</time></trkpt><trkpt lat="45.560403869400176" lon="8.025380906211618"><ele>420.6</ele><time>2026-05-01T17:29:02Z</time></trkpt><trkpt lat="45.56033014009862" lon="8.025456059112782"><ele>420.0</ele><time>2026-05-01T17:29:03Z</time></trkpt><trkpt lat="45.5602470600656" lon="8.025537195227258"><ele>420.0</ele><time>2026-05-01T17:29:04Z</time></trkpt><trkpt lat="45.5601729961823" lon="8.025578476651122"><ele>420.0</ele><time>2026-05-01T17:29:05Z</time></trkpt><trkpt lat="45.56009477467071" lon="8.025645476777362"><ele>420.0</ele><time>2026-05-01T17:29:06Z</time></trkpt><trkpt lat="45.56002107089288" lon="8.025707074381327"><ele>420.0</ele><time>2026-05-01T17:29:07Z</time></trkpt><trkpt lat="45.559953411861436" lon="8.025769277010438"><ele>420.0</ele><time>2026-05-01T17:29:08Z</time></trkpt><trkpt lat="45.55989033596333" lon="8.025812170804684"><ele>420.0</ele><time>2026-05-01T17:29:09Z</time></trkpt><trkpt lat="45.559826310656085" lon="8.025875891148557"><ele>419.6</ele><time>2026-05-01T17:29:10Z</time></trkpt><trkpt lat="45.55974385339421" lon="8.025930725678192"><ele>419.2</ele><time>2026-05-01T17:29:11Z</time></trkpt><trkpt lat="45.55966042712419" lon="8.025980150932503"><ele>418.79999999999995</ele><time>2026-05-01T17:29:12Z</time></trkpt><trkpt lat="45.55959135640381" lon="8.026031449283385"><ele>418.4</ele><time>2026-05-01T17:29:13Z</time></trkpt><trkpt lat="45.55950819543952" lon="8.026090562719848"><ele>418.0</ele><time>2026-05-01T17:29:14Z</time></trkpt><trkpt lat="45.55941556810427" lon="8.026137302781136"><ele>417.50000000000006</ele><time>2026-05-01T17:29:15Z</time></trkpt><trkpt lat="45.55932775491189" lon="8.02618509409715"><ele>417.0</ele><time>2026-05-01T17:29:16Z</time></trkpt><trkpt lat="45.559249100453854" lon="8.0262447124432"><ele>416.5</ele><time>2026-05-01T17:29:17Z</time></trkpt><trkpt lat="45.55918071284576" lon="8.026302324721284"><ele>416.0</ele><time>2026-05-01T17:29:18Z</time></trkpt><trkpt lat="45.55910314473673" lon="8.02635918295455"><ele>415.50000000000006</ele><time>2026-05-01T17:29:19Z</time></trkpt><trkpt lat="45.559014980474636" lon="8.026414128934624"><ele>415.0</ele><time>2026-05-01T17:29:20Z</time></trkpt><trkpt lat="45.55893237926528" lon="8.026467689388982"><ele>415.00000000000006</ele><time>2026-05-01T17:29:21Z</time></trkpt><trkpt lat="45.558856599340864" lon="8.02652103965487"><ele>415.0</ele><time>2026-05-01T17:29:22Z</time></trkpt><trkpt lat="45.5587805151202" lon="8.026582759638135"><ele>415.0</ele><time>2026-05-01T17:29:23Z</time></trkpt><trkpt lat="45.55871279982449" lon="8.026643958715749"><ele>415.0</ele><time>2026-05-01T17:29:24Z</time></trkpt><trkpt lat="45.55865767201097" lon="8.02670465770064"><ele>415.00000000000006</ele><time>2026-05-01T17:29:25Z</time></trkpt><trkpt lat="45.55858984277162" lon="8.026761672022605"><ele>415.0</ele><time>2026-05-01T17:29:26Z</time></trkpt><trkpt lat="45.55851820854624" lon="8.02682046508124"><ele>414.50000000000006</ele><time>2026-05-01T17:29:27Z</time></trkpt><trkpt lat="45.55845151817432" lon="8.02688094733603"><ele>414.0</ele><time>2026-05-01T17:29:28Z</time></trkpt><trkpt lat="45.558387496795135" lon="8.0269375801504"><ele>413.5</ele><time>2026-05-01T17:29:29Z</time></trkpt><trkpt lat="45.55832053680954" lon="8.02698569623223"><ele>413.0</ele><time>2026-05-01T17:29:30Z</time></trkpt><trkpt lat="45.55826089190717" lon="8.027040458849026"><ele>412.50000000000006</ele><time>2026-05-01T17:29:31Z</time></trkpt><trkpt lat="45.558195122610606" lon="8.027082340999325"><ele>412.0</ele><time>2026-05-01T17:29:32Z</time></trkpt><trkpt lat="45.55812542924651" lon="8.02716537937319"><ele>412.00000000000006</ele><time>2026-05-01T17:29:33Z</time></trkpt><trkpt lat="45.558036817331555" lon="8.027213536599424"><ele>412.0</ele><time>2026-05-01T17:29:34Z</time></trkpt><trkpt lat="45.557956400419684" lon="8.027268614150355"><ele>412.0</ele><time>2026-05-01T17:29:35Z</time></trkpt><trkpt lat="45.55788227868213" lon="8.027317861104883"><ele>412.0</ele><time>2026-05-01T17:29:36Z</time></trkpt><trkpt lat="45.55780784259508" lon="8.027372106870386"><ele>412.00000000000006</ele><time>2026-05-01T17:29:37Z</time></trkpt><trkpt lat="45.557736801643394" lon="8.027424738109149"><ele>412.0</ele><time>2026-05-01T17:29:38Z</time></trkpt><trkpt lat="45.557665895358184" lon="8.027477481121666"><ele>413.1428571428571</ele><time>2026-05-01T17:29:39Z</time></trkpt><trkpt lat="45.557595261461344" lon="8.027520681383434"><ele>414.2857142857143</ele><time>2026-05-01T17:29:40Z</time></trkpt><trkpt lat="45.55753275446666" lon="8.02757149175776"><ele>415.42857142857144</ele><time>2026-05-01T17:29:41Z</time></trkpt><trkpt lat="45.55746747215318" lon="8.027620979539725"><ele>416.57142857142856</ele><time>2026-05-01T17:29:42Z</time></trkpt><trkpt lat="45.55740423265543" lon="8.027658668813267"><ele>417.7142857142857</ele><time>2026-05-01T17:29:43Z</time></trkpt><trkpt lat="45.55734556773788" lon="8.027700958087223"><ele>418.85714285714283</ele><time>2026-05-01T17:29:44Z</time></trkpt><trkpt lat="45.55727827396822" lon="8.02774879985933"><ele>420.0</ele><time>2026-05-01T17:29:45Z</time></trkpt><trkpt lat="45.55720079643368" lon="8.027801179761374"><ele>420.0</ele><time>2026-05-01T17:29:46Z</time></trkpt><trkpt lat="45.557125061017395" lon="8.027865250835294"><ele>420.0</ele><time>2026-05-01T17:29:47Z</time></trkpt><trkpt lat="45.55705698371814" lon="8.027938949888673"><ele>420.0</ele><time>2026-05-01T17:29:48Z</time></trkpt><trkpt lat="45.55698226153302" lon="8.0280110168292"><ele>420.0</ele><time>2026-05-01T17:29:49Z</time></trkpt><trkpt lat="45.55689878777469" lon="8.02808007568106"><ele>420.0</ele><time>2026-05-01T17:29:50Z</time></trkpt><trkpt lat="45.55680822287956" lon="8.028128558814538"><ele>421.2</ele><time>2026-05-01T17:29:51Z</time></trkpt><trkpt lat="45.556733545715964" lon="8.028201401301807"><ele>422.4</ele><time>2026-05-01T17:29:52Z</time></trkpt><trkpt lat="45.55664233014848" lon="8.028257944268898"><ele>423.6</ele><time>2026-05-01T17:29:53Z</time></trkpt><trkpt lat="45.55655954815452" lon="8.02831091850899"><ele>424.8</ele><time>2026-05-01T17:29:54Z</time></trkpt><trkpt lat="45.55648151947483" lon="8.028373436942264"><ele>426.0</ele><time>2026-05-01T17:29:55Z</time></trkpt><trkpt lat="45.55640501114932" lon="8.028433757259045"><ele>423.5</ele><time>2026-05-01T17:29:56Z</time></trkpt><trkpt lat="45.556322025623174" lon="8.028489596591468"><ele>421.0</ele><time>2026-05-01T17:29:57Z</time></trkpt><trkpt lat="45.5562656887335" lon="8.028530970131222"><ele>418.5</ele><time>2026-05-01T17:29:58Z</time></trkpt><trkpt lat="45.55618486952482" lon="8.028532340522384"><ele>416.0</ele><time>2026-05-01T17:30:00Z</time></trkpt><trkpt lat="45.55609721744949" lon="8.028536109832446"><ele>413.5</ele><time>2026-05-01T17:30:02Z</time></trkpt><trkpt lat="45.55601944678179" lon="8.028625078448423"><ele>411.0</ele><time>2026-05-01T17:30:04Z</time></trkpt><trkpt lat="45.5560612700308" lon="8.028786366798226"><ele>411.0</ele><time>2026-05-01T17:30:06Z</time></trkpt><trkpt lat="45.55611761742894" lon="8.02885979918567"><ele>411.0</ele><time>2026-05-01T17:30:07Z</time></trkpt><trkpt lat="45.55616226700143" lon="8.028935091895505"><ele>411.0</ele><time>2026-05-01T17:30:08Z</time></trkpt><trkpt lat="45.556195096251834" lon="8.02902261235857"><ele>411.0</ele><time>2026-05-01T17:30:09Z</time></trkpt><trkpt lat="45.55622745286659" lon="8.029110024821598"><ele>411.0</ele><time>2026-05-01T17:30:10Z</time></trkpt><trkpt lat="45.55626076151173" lon="8.0292016189872"><ele>411.0</ele><time>2026-05-01T17:30:11Z</time></trkpt><trkpt lat="45.55628960486838" lon="8.029297145627627"><ele>411.0</ele><time>2026-05-01T17:30:12Z</time></trkpt><trkpt lat="45.55632735874982" lon="8.029397676446502"><ele>410.5</ele><time>2026-05-01T17:30:13Z</time></trkpt><trkpt lat="45.55636711093647" lon="8.029497288160176"><ele>410.0</ele><time>2026-05-01T17:30:14Z</time></trkpt><trkpt lat="45.55640883204454" lon="8.02959556105426"><ele>409.5</ele><time>2026-05-01T17:30:15Z</time></trkpt><trkpt lat="45.55644832455301" lon="8.029692584866392"><ele>409.0</ele><time>2026-05-01T17:30:16Z</time></trkpt><trkpt lat="45.55648132356499" lon="8.029794481986578"><ele>408.5</ele><time>2026-05-01T17:30:17Z</time></trkpt><trkpt lat="45.55651159688463" lon="8.029881053536142"><ele>408.0</ele><time>2026-05-01T17:30:18Z</time></trkpt><trkpt lat="45.55654685837495" lon="8.02998222872563"><ele>408.0</ele><time>2026-05-01T17:30:19Z</time></trkpt><trkpt lat="45.556584200957474" lon="8.030077737579179"><ele>408.0</ele><time>2026-05-01T17:30:20Z</time></trkpt><trkpt lat="45.55662491184519" lon="8.030171502437717"><ele>408.0</ele><time>2026-05-01T17:30:21Z</time></trkpt><trkpt lat="45.556662895507316" lon="8.030270263597128"><ele>408.0</ele><time>2026-05-01T17:30:22Z</time></trkpt><trkpt lat="45.55669724240678" lon="8.030376241629837"><ele>408.0</ele><time>2026-05-01T17:30:23Z</time></trkpt><trkpt lat="45.556711425416125" lon="8.030476454196702"><ele>408.0</ele><time>2026-05-01T17:30:24Z</time></trkpt><trkpt lat="45.55673519591669" lon="8.030582798710231"><ele>408.0</ele><time>2026-05-01T17:30:25Z</time></trkpt><trkpt lat="45.556757564273234" lon="8.030690990578277"><ele>408.0</ele><time>2026-05-01T17:30:26Z</time></trkpt><trkpt lat="45.5567759946994" lon="8.030797173463505"><ele>408.0</ele><time>2026-05-01T17:30:27Z</time></trkpt><trkpt lat="45.556776478731905" lon="8.030909500299359"><ele>408.0</ele><time>2026-05-01T17:30:28Z</time></trkpt><trkpt lat="45.556781285211464" lon="8.031015712428585"><ele>408.0</ele><time>2026-05-01T17:30:29Z</time></trkpt><trkpt lat="45.556785616194254" lon="8.031116855365315"><ele>408.0</ele><time>2026-05-01T17:30:30Z</time></trkpt><trkpt lat="45.556791565802925" lon="8.03121624797579"><ele>408.0</ele><time>2026-05-01T17:30:31Z</time></trkpt><trkpt lat="45.556798795129886" lon="8.031319313276091"><ele>408.0</ele><time>2026-05-01T17:30:32Z</time></trkpt><trkpt lat="45.556802000643756" lon="8.031422261200591"><ele>408.0</ele><time>2026-05-01T17:30:33Z</time></trkpt><trkpt lat="45.55680381661438" lon="8.031526606809939"><ele>408.0</ele><time>2026-05-01T17:30:34Z</time></trkpt><trkpt lat="45.55681440520188" lon="8.031628495977989"><ele>408.0</ele><time>2026-05-01T17:30:35Z</time></trkpt><trkpt lat="45.55682191918995" lon="8.031735432732773"><ele>408.0</ele><time>2026-05-01T17:30:36Z</time></trkpt><trkpt lat="45.55683117483753" lon="8.03184007258997"><ele>408.0</ele><time>2026-05-01T17:30:37Z</time></trkpt><trkpt lat="45.55683872412061" lon="8.03194884667664"><ele>407.5</ele><time>2026-05-01T17:30:38Z</time></trkpt><trkpt lat="45.55684094566845" lon="8.032060700510424"><ele>407.0</ele><time>2026-05-01T17:30:39Z</time></trkpt><trkpt lat="45.55684982629461" lon="8.032170917154899"><ele>406.5</ele><time>2026-05-01T17:30:40Z</time></trkpt><trkpt lat="45.556850232253126" lon="8.032283494132363"><ele>406.0</ele><time>2026-05-01T17:30:41Z</time></trkpt><trkpt lat="45.55685829594285" lon="8.032393569878469"><ele>405.5</ele><time>2026-05-01T17:30:42Z</time></trkpt><trkpt lat="45.55686965009247" lon="8.032504842556815"><ele>405.0</ele><time>2026-05-01T17:30:43Z</time></trkpt><trkpt lat="45.55686774924983" lon="8.032621325728593"><ele>404.6666666666667</ele><time>2026-05-01T17:30:44Z</time></trkpt><trkpt lat="45.55687639705395" lon="8.032730809602299"><ele>404.33333333333337</ele><time>2026-05-01T17:30:45Z</time></trkpt><trkpt lat="45.55688922317553" lon="8.032848431997468"><ele>404.0</ele><time>2026-05-01T17:30:46Z</time></trkpt><trkpt lat="45.55689851440806" lon="8.032962857677914"><ele>403.6666666666667</ele><time>2026-05-01T17:30:47Z</time></trkpt><trkpt lat="45.556913525144076" lon="8.033085009058022"><ele>403.33333333333337</ele><time>2026-05-01T17:30:48Z</time></trkpt><trkpt lat="45.55691168570758" lon="8.03320655241906"><ele>403.0</ele><time>2026-05-01T17:30:49Z</time></trkpt><trkpt lat="45.556920740057826" lon="8.033324549473273"><ele>403.00000000000006</ele><time>2026-05-01T17:30:50Z</time></trkpt><trkpt lat="45.556920972923535" lon="8.033441884652571"><ele>403.0</ele><time>2026-05-01T17:30:51Z</time></trkpt><trkpt lat="45.55692755614675" lon="8.033556642778224"><ele>403.0</ele><time>2026-05-01T17:30:52Z</time></trkpt><trkpt lat="45.556932578856625" lon="8.033675460020794"><ele>403.0</ele><time>2026-05-01T17:30:53Z</time></trkpt><trkpt lat="45.55694427645014" lon="8.033778854103478"><ele>403.00000000000006</ele><time>2026-05-01T17:30:54Z</time></trkpt><trkpt lat="45.55695648594737" lon="8.033914946443812"><ele>403.0</ele><time>2026-05-01T17:30:56Z</time></trkpt><trkpt lat="45.55693964903751" lon="8.034042595640171"><ele>403.33333333333337</ele><time>2026-05-01T17:30:58Z</time></trkpt><trkpt lat="45.556895381503175" lon="8.034176663167319"><ele>403.6666666666667</ele><time>2026-05-01T17:31:00Z</time></trkpt><trkpt lat="45.556906654344814" lon="8.034336313096382"><ele>404.0</ele><time>2026-05-01T17:31:02Z</time></trkpt><trkpt lat="45.55694611554959" lon="8.034419245029728"><ele>404.33333333333337</ele><time>2026-05-01T17:31:03Z</time></trkpt><trkpt lat="45.55699698820332" lon="8.034498933139567"><ele>404.6666666666667</ele><time>2026-05-01T17:31:04Z</time></trkpt><trkpt lat="45.5570236418776" lon="8.034601374968615"><ele>405.0</ele><time>2026-05-01T17:31:05Z</time></trkpt><trkpt lat="45.557030613166205" lon="8.034729459225112"><ele>405.0</ele><time>2026-05-01T17:31:06Z</time></trkpt><trkpt lat="45.557033199178164" lon="8.034854631225679"><ele>405.0</ele><time>2026-05-01T17:31:07Z</time></trkpt><trkpt lat="45.557035800800406" lon="8.034982384896155"><ele>405.0</ele><time>2026-05-01T17:31:08Z</time></trkpt><trkpt lat="45.55703876429088" lon="8.035107615206591"><ele>405.0</ele><time>2026-05-01T17:31:09Z</time></trkpt><trkpt lat="45.55705304969887" lon="8.035231450682794"><ele>405.0</ele><time>2026-05-01T17:31:10Z</time></trkpt><trkpt lat="45.557049961963926" lon="8.035352713202471"><ele>405.0</ele><time>2026-05-01T17:31:11Z</time></trkpt><trkpt lat="45.55705821488871" lon="8.035478605860932"><ele>405.0</ele><time>2026-05-01T17:31:12Z</time></trkpt><trkpt lat="45.55706923697474" lon="8.035601851627346"><ele>405.0</ele><time>2026-05-01T17:31:13Z</time></trkpt><trkpt lat="45.557065876139845" lon="8.035725269787138"><ele>405.0</ele><time>2026-05-01T17:31:14Z</time></trkpt><trkpt lat="45.55706304884196" lon="8.035852020206073"><ele>405.0</ele><time>2026-05-01T17:31:15Z</time></trkpt><trkpt lat="45.55706704938583" lon="8.035986755567642"><ele>405.0</ele><time>2026-05-01T17:31:16Z</time></trkpt><trkpt lat="45.55705525186963" lon="8.036113049689508"><ele>405.0</ele><time>2026-05-01T17:31:17Z</time></trkpt><trkpt lat="45.557053065185066" lon="8.036233117974092"><ele>405.0</ele><time>2026-05-01T17:31:18Z</time></trkpt><trkpt lat="45.55705240241108" lon="8.036355267809308"><ele>405.0</ele><time>2026-05-01T17:31:19Z</time></trkpt><trkpt lat="45.55705380898889" lon="8.03647530823946"><ele>405.0</ele><time>2026-05-01T17:31:20Z</time></trkpt><trkpt lat="45.55705871679409" lon="8.036598739444326"><ele>405.0</ele><time>2026-05-01T17:31:21Z</time></trkpt><trkpt lat="45.557055493528765" lon="8.036719745073045"><ele>405.0</ele><time>2026-05-01T17:31:22Z</time></trkpt><trkpt lat="45.55705880845251" lon="8.036844797904727"><ele>405.0</ele><time>2026-05-01T17:31:23Z</time></trkpt><trkpt lat="45.5570596171642" lon="8.036966398195679"><ele>404.1666666666667</ele><time>2026-05-01T17:31:24Z</time></trkpt><trkpt lat="45.55705291981728" lon="8.037086969634515"><ele>403.33333333333337</ele><time>2026-05-01T17:31:25Z</time></trkpt><trkpt lat="45.5570451251451" lon="8.037200040317733"><ele>402.5</ele><time>2026-05-01T17:31:26Z</time></trkpt><trkpt lat="45.557034187262076" lon="8.037311847610653"><ele>401.6666666666667</ele><time>2026-05-01T17:31:27Z</time></trkpt><trkpt lat="45.557034046181414" lon="8.037437466260522"><ele>400.83333333333337</ele><time>2026-05-01T17:31:28Z</time></trkpt><trkpt lat="45.55703404082316" lon="8.037576766365543"><ele>400.0</ele><time>2026-05-01T17:31:29Z</time></trkpt><trkpt lat="45.55703428204101" lon="8.037712383365218"><ele>399.6666666666667</ele><time>2026-05-01T17:31:30Z</time></trkpt><trkpt lat="45.55703380490902" lon="8.037849625354093"><ele>399.33333333333337</ele><time>2026-05-01T17:31:31Z</time></trkpt><trkpt lat="45.5570256348049" lon="8.037984077602637"><ele>399.0</ele><time>2026-05-01T17:31:32Z</time></trkpt><trkpt lat="45.55701933396722" lon="8.038113250825544"><ele>398.66666666666663</ele><time>2026-05-01T17:31:33Z</time></trkpt><trkpt lat="45.55702159579973" lon="8.038232176829593"><ele>398.3333333333333</ele><time>2026-05-01T17:31:34Z</time></trkpt><trkpt lat="45.55701780493943" lon="8.038329251768184"><ele>398.0</ele><time>2026-05-01T17:31:35Z</time></trkpt><trkpt lat="45.557014602679374" lon="8.038485722870236"><ele>397.8333333333333</ele><time>2026-05-01T17:31:37Z</time></trkpt><trkpt lat="45.55698533652985" lon="8.038640842318188"><ele>397.66666666666663</ele><time>2026-05-01T17:31:39Z</time></trkpt><trkpt lat="45.55697675290357" lon="8.038733978440472"><ele>397.5</ele><time>2026-05-01T17:31:40Z</time></trkpt><trkpt lat="45.55700945009088" lon="8.038823079219336"><ele>397.33333333333337</ele><time>2026-05-01T17:31:41Z</time></trkpt><trkpt lat="45.55705554908952" lon="8.03889169031135"><ele>397.1666666666667</ele><time>2026-05-01T17:31:42Z</time></trkpt><trkpt lat="45.55712543767997" lon="8.03893445401808"><ele>397.0</ele><time>2026-05-01T17:31:43Z</time></trkpt><trkpt lat="45.55720066691914" lon="8.038965910198906"><ele>398.33333333333337</ele><time>2026-05-01T17:31:44Z</time></trkpt><trkpt lat="45.55725025885041" lon="8.03904041473686"><ele>399.6666666666667</ele><time>2026-05-01T17:31:45Z</time></trkpt><trkpt lat="45.557303339796434" lon="8.039121181124584"><ele>401.0</ele><time>2026-05-01T17:31:46Z</time></trkpt><trkpt lat="45.55735560626531" lon="8.039204863743729"><ele>402.33333333333337</ele><time>2026-05-01T17:31:47Z</time></trkpt><trkpt lat="45.55739739655584" lon="8.03929757957223"><ele>403.6666666666667</ele><time>2026-05-01T17:31:48Z</time></trkpt><trkpt lat="45.557433325686006" lon="8.03938475291685"><ele>405.0</ele><time>2026-05-01T17:31:49Z</time></trkpt><trkpt lat="45.55747443190751" lon="8.039487108648279"><ele>405.1666666666667</ele><time>2026-05-01T17:31:50Z</time></trkpt><trkpt lat="45.55751310157976" lon="8.039580579960463"><ele>405.33333333333337</ele><time>2026-05-01T17:31:51Z</time></trkpt><trkpt lat="45.55754869412885" lon="8.039674440252517"><ele>405.5</ele><time>2026-05-01T17:31:52Z</time></trkpt><trkpt lat="45.55759418247381" lon="8.039765887887086"><ele>405.6666666666667</ele><time>2026-05-01T17:31:53Z</time></trkpt><trkpt lat="45.55763678231856" lon="8.03985943313808"><ele>405.83333333333337</ele><time>2026-05-01T17:31:54Z</time></trkpt><trkpt lat="45.557676930994155" lon="8.039949304404399"><ele>406.0</ele><time>2026-05-01T17:31:55Z</time></trkpt><trkpt lat="45.55770213691788" lon="8.040046176223477"><ele>405.7142857142857</ele><time>2026-05-01T17:31:56Z</time></trkpt><trkpt lat="45.557731293663934" lon="8.040141186661275"><ele>405.42857142857144</ele><time>2026-05-01T17:31:57Z</time></trkpt><trkpt lat="45.55776468663812" lon="8.040243394207376"><ele>405.1428571428571</ele><time>2026-05-01T17:31:58Z</time></trkpt><trkpt lat="45.55780415330725" lon="8.040334434569742"><ele>404.8571428571429</ele><time>2026-05-01T17:31:59Z</time></trkpt><trkpt lat="45.557838108690525" lon="8.040426982413525"><ele>404.57142857142856</ele><time>2026-05-01T17:32:00Z</time></trkpt><trkpt lat="45.55787131725261" lon="8.040522423303893"><ele>404.2857142857143</ele><time>2026-05-01T17:32:01Z</time></trkpt><trkpt lat="45.557908583078486" lon="8.040612773836132"><ele>404.0</ele><time>2026-05-01T17:32:02Z</time></trkpt><trkpt lat="45.55794380265604" lon="8.04070311187838"><ele>404.2857142857143</ele><time>2026-05-01T17:32:03Z</time></trkpt><trkpt lat="45.557982224452886" lon="8.040795399262045"><ele>404.57142857142856</ele><time>2026-05-01T17:32:04Z</time></trkpt><trkpt lat="45.55801996167197" lon="8.04088675285725"><ele>404.8571428571429</ele><time>2026-05-01T17:32:05Z</time></trkpt><trkpt lat="45.55805083713175" lon="8.040975097204209"><ele>405.1428571428571</ele><time>2026-05-01T17:32:06Z</time></trkpt><trkpt lat="45.558087487290365" lon="8.041067835681895"><ele>405.42857142857144</ele><time>2026-05-01T17:32:07Z</time></trkpt><trkpt lat="45.55812390271501" lon="8.041151539108021"><ele>405.7142857142857</ele><time>2026-05-01T17:32:08Z</time></trkpt><trkpt lat="45.558152270292375" lon="8.04123941950495"><ele>406.0</ele><time>2026-05-01T17:32:09Z</time></trkpt><trkpt lat="45.55818703261208" lon="8.041324331333179"><ele>406.00000000000006</ele><time>2026-05-01T17:32:10Z</time></trkpt><trkpt lat="45.55821877721677" lon="8.041410078506164"><ele>406.0</ele><time>2026-05-01T17:32:11Z</time></trkpt><trkpt lat="45.55825166662731" lon="8.041489057619307"><ele>406.0</ele><time>2026-05-01T17:32:12Z</time></trkpt><trkpt lat="45.55828830612117" lon="8.041564749044442"><ele>406.0</ele><time>2026-05-01T17:32:13Z</time></trkpt><trkpt lat="45.55835649277842" lon="8.041723436335085"><ele>406.00000000000006</ele><time>2026-05-01T17:32:15Z</time></trkpt><trkpt lat="45.55839295521293" lon="8.041805143353745"><ele>406.0</ele><time>2026-05-01T17:32:16Z</time></trkpt><trkpt lat="45.55842865987088" lon="8.041885149845363"><ele>405.7142857142857</ele><time>2026-05-01T17:32:17Z</time></trkpt><trkpt lat="45.558463550007914" lon="8.041961185341222"><ele>405.42857142857144</ele><time>2026-05-01T17:32:18Z</time></trkpt><trkpt lat="45.558493439298154" lon="8.042042660061485"><ele>405.1428571428571</ele><time>2026-05-01T17:32:19Z</time></trkpt><trkpt lat="45.55852465014768" lon="8.042120754115873"><ele>404.8571428571429</ele><time>2026-05-01T17:32:20Z</time></trkpt><trkpt lat="45.558552762465695" lon="8.042203386815428"><ele>404.57142857142856</ele><time>2026-05-01T17:32:21Z</time></trkpt><trkpt lat="45.55859381593212" lon="8.042276865722704"><ele>404.2857142857143</ele><time>2026-05-01T17:32:22Z</time></trkpt><trkpt lat="45.558615202433714" lon="8.04236703018759"><ele>404.0</ele><time>2026-05-01T17:32:23Z</time></trkpt><trkpt lat="45.55866830711066" lon="8.042528922029977"><ele>404.25</ele><time>2026-05-01T17:32:25Z</time></trkpt><trkpt lat="45.55873263922465" lon="8.042684525993383"><ele>404.5</ele><time>2026-05-01T17:32:27Z</time></trkpt><trkpt lat="45.55878972131284" lon="8.042842470501176"><ele>404.75</ele><time>2026-05-01T17:32:29Z</time></trkpt><trkpt lat="45.558837713175805" lon="8.04300494287942"><ele>405.0</ele><time>2026-05-01T17:32:31Z</time></trkpt><trkpt lat="45.55889037159503" lon="8.043156784808136"><ele>405.0</ele><time>2026-05-01T17:32:33Z</time></trkpt><trkpt lat="45.55897401765704" lon="8.043279047458737"><ele>405.0</ele><time>2026-05-01T17:32:35Z</time></trkpt><trkpt lat="45.55900313050986" lon="8.04336033794993"><ele>405.0</ele><time>2026-05-01T17:32:36Z</time></trkpt><trkpt lat="45.55905104585081" lon="8.043509570051214"><ele>405.0</ele><time>2026-05-01T17:32:38Z</time></trkpt><trkpt lat="45.55907652811561" lon="8.043671249394476"><ele>405.0</ele><time>2026-05-01T17:32:40Z</time></trkpt><trkpt lat="45.55912911284593" lon="8.043824265956331"><ele>405.0</ele><time>2026-05-01T17:32:42Z</time></trkpt><trkpt lat="45.559187656254664" lon="8.043961395763288"><ele>405.0</ele><time>2026-05-01T17:32:44Z</time></trkpt><trkpt lat="45.55923618707045" lon="8.044106696716293"><ele>405.0</ele><time>2026-05-01T17:32:46Z</time></trkpt><trkpt lat="45.5592994458363" lon="8.044253809172693"><ele>405.0</ele><time>2026-05-01T17:32:48Z</time></trkpt><trkpt lat="45.55934979398471" lon="8.04440444893004"><ele>405.25</ele><time>2026-05-01T17:32:50Z</time></trkpt><trkpt lat="45.55940899474754" lon="8.044547360985586"><ele>405.5</ele><time>2026-05-01T17:32:52Z</time></trkpt><trkpt lat="45.55946148650497" lon="8.044703004777212"><ele>405.75</ele><time>2026-05-01T17:32:54Z</time></trkpt><trkpt lat="45.55951896058451" lon="8.044854463260686"><ele>406.0</ele><time>2026-05-01T17:32:56Z</time></trkpt><trkpt lat="45.55956591538865" lon="8.045008964482113"><ele>407.75</ele><time>2026-05-01T17:32:58Z</time></trkpt><trkpt lat="45.55959397629395" lon="8.045168620181334"><ele>409.5</ele><time>2026-05-01T17:33:00Z</time></trkpt><trkpt lat="45.55960407016776" lon="8.045336359080318"><ele>411.25</ele><time>2026-05-01T17:33:02Z</time></trkpt><trkpt lat="45.55960688134413" lon="8.045497715814852"><ele>413.0</ele><time>2026-05-01T17:33:04Z</time></trkpt><trkpt lat="45.559618378170946" lon="8.045663026447913"><ele>412.79999999999995</ele><time>2026-05-01T17:33:06Z</time></trkpt><trkpt lat="45.55962874304683" lon="8.045822648989814"><ele>412.6</ele><time>2026-05-01T17:33:08Z</time></trkpt><trkpt lat="45.55964045815602" lon="8.045979887656216"><ele>412.4</ele><time>2026-05-01T17:33:10Z</time></trkpt><trkpt lat="45.559655080330494" lon="8.04614001709355"><ele>412.20000000000005</ele><time>2026-05-01T17:33:12Z</time></trkpt><trkpt lat="45.559653858735224" lon="8.046301309348161"><ele>412.0</ele><time>2026-05-01T17:33:14Z</time></trkpt><trkpt lat="45.559653765979334" lon="8.046461815592703"><ele>412.0</ele><time>2026-05-01T17:33:16Z</time></trkpt><trkpt lat="45.55966910184743" lon="8.046619722638622"><ele>412.0</ele><time>2026-05-01T17:33:18Z</time></trkpt><trkpt lat="45.559669088225824" lon="8.046781935514838"><ele>412.0</ele><time>2026-05-01T17:33:20Z</time></trkpt><trkpt lat="45.559663223530606" lon="8.046940488752448"><ele>412.0</ele><time>2026-05-01T17:33:22Z</time></trkpt><trkpt lat="45.5596657815624" lon="8.047104730076232"><ele>412.0</ele><time>2026-05-01T17:33:24Z</time></trkpt><trkpt lat="45.55967546231444" lon="8.0472453203929"><ele>412.0</ele><time>2026-05-01T17:33:26Z</time></trkpt><trkpt lat="45.5596795510577" lon="8.047388913544447"><ele>412.0</ele><time>2026-05-01T17:33:28Z</time></trkpt><trkpt lat="45.559645590196936" lon="8.047466375170934"><ele>412.0</ele><time>2026-05-01T17:33:29Z</time></trkpt><trkpt lat="45.55958506178439" lon="8.047604736398366"><ele>412.0</ele><time>2026-05-01T17:33:31Z</time></trkpt><trkpt lat="45.559476430262585" lon="8.047693311854847"><ele>411.25</ele><time>2026-05-01T17:33:33Z</time></trkpt><trkpt lat="45.55934859268091" lon="8.047716626510468"><ele>410.5</ele><time>2026-05-01T17:33:35Z</time></trkpt><trkpt lat="45.55924684715434" lon="8.047754789587168"><ele>409.75</ele><time>2026-05-01T17:33:37Z</time></trkpt><trkpt lat="45.559139795324896" lon="8.047799467285003"><ele>409.0</ele><time>2026-05-01T17:33:39Z</time></trkpt><trkpt lat="45.55902136558373" lon="8.047839066208166"><ele>409.0</ele><time>2026-05-01T17:33:41Z</time></trkpt><trkpt lat="45.558910765361894" lon="8.047885160325842"><ele>409.0</ele><time>2026-05-01T17:33:43Z</time></trkpt><trkpt lat="45.558868242262534" lon="8.048037739584421"><ele>409.0</ele><time>2026-05-01T17:33:45Z</time></trkpt><trkpt lat="45.5589222351089" lon="8.048171559290969"><ele>409.0</ele><time>2026-05-01T17:33:47Z</time></trkpt><trkpt lat="45.55899850771057" lon="8.048185748053404"><ele>409.0</ele><time>2026-05-01T17:33:48Z</time></trkpt><trkpt lat="45.55908960439566" lon="8.04827172934893"><ele>409.25</ele><time>2026-05-01T17:33:50Z</time></trkpt><trkpt lat="45.559183412766444" lon="8.04837528430415"><ele>409.5</ele><time>2026-05-01T17:33:52Z</time></trkpt><trkpt lat="45.559251788620365" lon="8.048506564461746"><ele>409.75</ele><time>2026-05-01T17:33:54Z</time></trkpt><trkpt lat="45.55927033685346" lon="8.048664342058272"><ele>410.0</ele><time>2026-05-01T17:33:56Z</time></trkpt><trkpt lat="45.55929887892249" lon="8.048808543058902"><ele>410.0</ele><time>2026-05-01T17:33:58Z</time></trkpt><trkpt lat="45.559338680117285" lon="8.048961688916775"><ele>410.0</ele><time>2026-05-01T17:34:00Z</time></trkpt><trkpt lat="45.5593910306444" lon="8.049111543315071"><ele>410.0</ele><time>2026-05-01T17:34:02Z</time></trkpt><trkpt lat="45.55942455588714" lon="8.049256017160687"><ele>410.0</ele><time>2026-05-01T17:34:04Z</time></trkpt><trkpt lat="45.55940932348935" lon="8.049404031102156"><ele>410.0</ele><time>2026-05-01T17:34:06Z</time></trkpt><trkpt lat="45.55940156578663" lon="8.049497442330143"><ele>409.8</ele><time>2026-05-01T17:34:08Z</time></trkpt><trkpt lat="45.55933204784876" lon="8.04960483987983"><ele>409.6</ele><time>2026-05-01T17:34:11Z</time></trkpt><trkpt lat="45.55924111349602" lon="8.049639928019038"><ele>409.4</ele><time>2026-05-01T17:34:13Z</time></trkpt><trkpt lat="45.55916148576845" lon="8.049653916543303"><ele>409.2</ele><time>2026-05-01T17:34:15Z</time></trkpt><trkpt lat="45.55909857968349" lon="8.049751452039937"><ele>409.0</ele><time>2026-05-01T17:34:17Z</time></trkpt><trkpt lat="45.55905476272068" lon="8.049876826099528"><ele>409.25</ele><time>2026-05-01T17:34:19Z</time></trkpt><trkpt lat="45.55902503840285" lon="8.050003171109049"><ele>409.5</ele><time>2026-05-01T17:34:21Z</time></trkpt><trkpt lat="45.55903712870974" lon="8.050119432113355"><ele>409.75</ele><time>2026-05-01T17:34:23Z</time></trkpt><trkpt lat="45.55905538093435" lon="8.05021427945915"><ele>410.0</ele><time>2026-05-01T17:34:26Z</time></trkpt><trkpt lat="45.559261037644305" lon="8.050130571849001"><ele>414.0</ele><time>2026-05-01T17:35:39Z</time></trkpt><trkpt lat="45.55934172746303" lon="8.051243952989797"><ele>414.0</ele><time>2026-05-01T17:36:01Z</time></trkpt><trkpt lat="45.55966251851092" lon="8.05130990259585"><ele>414.0</ele><time>2026-05-01T17:36:05Z</time></trkpt><trkpt lat="45.55953306079032" lon="8.05120508646838"><ele>410.0</ele><time>2026-05-01T17:36:06Z</time></trkpt><trkpt lat="45.55919137265705" lon="8.050748718476239"><ele>410.0</ele><time>2026-05-01T17:36:07Z</time></trkpt><trkpt lat="45.55903677809091" lon="8.050124274445286"><ele>410.0</ele><time>2026-05-01T17:36:09Z</time></trkpt></trkseg></trk></gpx>